     2              OBSERVATION DATA    GPS                 RINEX VERSION / TYPE
teqc 1997Jun30 19970702                                     PGM / RUN BY / DATE
                                                            COMMENT
Original Marker Name: DMAS                                  COMMENT
Campaign Name: HMC San Gabriel Valley 1993-1996             COMMENT
4-Character Station Name: DMAS                              COMMENT
6-Character Antenna Code: DMRCHT                            COMMENT
Vertical Measurement Point: BPA                             COMMENT
Vertical Offset to Rinex Ref. Point: 0.0000                 COMMENT
Radial Measurement Point: RRP                               COMMENT
Radial Offset to Rinex Ref. Point: 0.0000                   COMMENT
Antenna Height from Field Measurement: 0.0806 m             COMMENT
Additional Antenna Identification Info.:                    COMMENT
Turborogue and Ashtech Choke Ring                           COMMENT
Original XYZ: -2524545.8606 -4630086.3623 3577393.2052      COMMENT
New XYZ position is based on association with SCEC monument COMMENT
E1D0Q9Y9+0011. Position of that monument is believed to be  COMMENT
valid to within 1 m horizontally; vertical accuracy         COMMENT
should be no worse than 3-times this value.                 COMMENT
                                                            COMMENT
Revised Rinex header created by UCSD GPS archive for        COMMENT
GSAC on 13-Apr-1999 (1999:103) 16:33:21 GMT                 COMMENT
For assistance contact dagnew@ucsd.edu or hjohnson@ucsd.edu COMMENT
                                                            COMMENT
SAN DIMAS                                                   MARKER NAME
WRP HARVEY MUDD COLLEGE                                     OBSERVER / AGENCY
263 TURBOROGUE SNR-8000 3.2                                 REC # / TYPE / VERS
329 DORNE-MARGOL. TYPE T                                    ANT # / TYPE
 -2464950.0000 -4674152.0000  3561237.0000                  APPROX POSITION XYZ
        0.0806        0.0000        0.0000                  ANTENNA: DELTA H/E/N
     1     1     0                                          WAVELENGTH FACT L1/2
     5    L1    L2    C1    P2    P1                        # / TYPES OF OBSERV
     0                                                      INTERVAL
  1996     4     2     0     0    0.000000                  TIME OF FIRST OBS
  1996     4     2    19    31   30.000000                  TIME OF LAST OBS
     0                                                      # OF SATELLITES
                                                            END OF HEADER
 96  4  2  0  0  0.0000000  0  8G 6G 4G16G20G24G 9G 5G 7
  -3337793.34944  -2600871.68444  24831773.2414   24831780.2784
 -18959946.15344 -14773962.03644  21570016.2524   21570017.8244
  -4874584.09744  -3798365.95244  24320794.9384   24320799.7604
 -10780144.02944  -8400105.56944  23121556.1154   23121559.7784
 -25562590.38044 -19918873.93944  20393613.9464   20393616.5184
 -17442258.29844 -13591366.12744  21972713.3924   21972716.1114
 -22590031.87144 -17602614.60944  21015777.3304   21015779.4874
  -4392284.71044  -3422550.38844  23851381.8264   23851383.2214
 96  4  2  0  0 30.0000000  0  8G 6G 4G16G20G24G 9G 5G 7
  -3409310.55244  -2656599.31244  24818163.8374   24818169.2494
 -18890014.85944 -14719470.12644  21583323.8014   21583325.2154
  -4968795.58544  -3871777.45944  24302866.8774   24302870.2564
 -10874413.45244  -8473562.22444  23103617.0324   23103620.3804
 -25562586.05144 -19918870.55344  20393614.6824   20393617.2034
 -17375146.36844 -13539071.13844  21985484.5564   21985487.2574
 -22647440.73144 -17647348.77944  21004852.7734   21004854.9274
  -4322736.03344  -3368357.92844  23864616.4654
 96  4  2  0  1  0.0000000  0  8G 6G 4G16G20G24G 9G 5G 7
  -3480836.70044  -2712333.89344  24804552.8624   24804556.0634
 -18819786.63744 -14664746.84444  21596687.9524   21596689.4764
  -5063069.90944  -3945237.87844  24284927.0094   24284932.2374
 -10968620.48944  -8546970.28044  23085690.1344   23085693.2404
 -25562120.77544 -19918507.98844  20393703.2404   20393705.7904
 -17307723.53744 -13486533.89044  21998314.7194   21998317.5144
 -22704598.95144 -17691887.64644  20993975.8874   20993977.9744
  -4253183.49344  -3314160.93844  23877852.1924
 96  4  2  0  1 30.0000000  0  8G 6G 4G16G20G24G 9G 5G 7
  -3552287.55444  -2768009.79244  24790956.2164   24790961.0284
 -18749217.16244 -14609757.65244  21610116.8944   21610118.1814
  -5157347.44844  -4018700.74944  24266986.6794   24266992.5294
 -11062679.98944  -8620263.37044  23067791.0644   23067794.4774
 -25561142.57044 -19917745.74044  20393889.3844   20393891.7104
 -17239905.51244 -13433688.69844  22011220.0814   22011222.9904
 -22761431.00644 -17736172.35644  20983161.1694   20983163.2794
  -4183583.33844  -3259927.05644  23891096.4664   23891101.7864
 96  4  2  0  2  0.0000000  0  8G 6G 4G16G20G24G 9G 5G 7
  -3623652.03444  -2823618.38644  24777375.7654   24777379.9484
 -18678314.67944 -14554508.97444  21623609.2644   21623610.6034
  -5251658.72344  -4092189.93044  24249039.7984   24249044.9014
 -11156584.62444  -8693435.78044  23049921.6324   23049924.1944
 -25559647.35144 -19916580.62444  20394173.9274   20394176.3574
 -17171692.33944 -13380535.60044  22024200.6004   22024203.3444
 -22817943.50844 -17780208.06544  20972407.2424   20972409.3084
  -4113963.57244  -3205677.91944  23904344.6934   23904344.3944
 96  4  2  0  2 30.0000000  0  8G 6G 4G16G20G24G 9G 5G 7
  -3694883.89144  -2879123.63944  24763820.6654   24763825.6344
 -18607034.46444 -14498965.95744  21637173.3304   21637174.5214
  -5345977.22844  -4165684.74044  24231091.3984   24231097.9484
 -11250299.42344  -8766460.28144  23032088.2424   23032091.4534
 -25557580.80044 -19914970.31444  20394567.0634   20394569.4434
 -17103055.01444 -13327051.98844  22037261.9934   22037264.8744
 -22874094.68644 -17823962.22344  20961721.9954   20961724.0064
  -4044289.14244  -3151386.14644  23917603.3674   23917609.7444
 96  4  2  0  3  0.0000000  0  8G 6G 4G16G20G24G 9G 5G 7
  -3766029.60644  -2934561.78844  24750282.2654   24750285.8814
 -18535415.14144 -14443158.70144  21650802.0194   21650803.2644
  -5440355.65444  -4239226.25344  24213131.6504   24213135.7704
 -11343879.41644  -8839379.72444  23014280.5404   23014282.7984
 -25554987.72044 -19912949.72344  20395060.5764   20395062.8734
 -17034043.57844 -13273276.86644  22050394.2974   22050397.0854
 -22929917.50144 -17867460.51444  20951099.2534   20951101.2764
  -3974610.17744                  23930862.9614
 96  4  2  0  3 30.0000000  0  8G 6G 4G16G20G24G 9G 5G 7
  -3837131.54944  -2989965.79844  24736751.6514   24736757.0604
 -18463476.95744 -14387102.97944  21664491.3444   21664492.7794
  -5534836.25644  -4312847.38944  24195152.6354   24195156.9874
 -11437378.20444  -8912235.89844  22996488.4074   22996491.5224
 -25551899.84144 -19910543.57344  20395648.1544   20395650.4054
 -16964706.80144 -13219248.23044  22063588.5944   22063591.3824
 -22985442.95144 -17910727.09444  20940533.0274   20940535.1304
  -3904968.21244  -3042822.06544  23944115.4354   23944118.5124
 96  4  2  0  4  0.0000000  0  8G 6G 4G16G20G24G 9G 5G 7
  -3908209.85344  -3045351.42144  24723225.6844   24723230.2164
 -18391189.15944 -14330774.83644  21678247.1384   21678248.5274
  -5629395.53344  -4386529.83444  24177158.3904   24177163.3534
 -11530783.34844  -8985019.09644  22978713.9064   22978716.9954
 -25548298.22444 -19907737.10744  20396333.5974   20396335.9784
 -16895041.18944 -13164963.36244  22076845.6434   22076848.2264
 -23040645.88844 -17953742.36644  20930028.2724   20930030.2984
  -3835345.94144  -2988571.46344  23957364.1574   23957367.3824
 96  4  2  0  4 30.0000000  0  8G 6G 4G16G20G24G 9G 5G 7
  -3979238.86644  -3100698.60544  24709709.2844   24709711.1374
 -18318495.17544 -14274130.18144  21692080.4254   21692081.8304
  -5723971.89244  -4460225.58944  24159161.1884   24159167.1144
 -11624048.47044  -9057693.19144  22960966.2224   22960969.6434
 -25544141.02644 -19904497.72244  20397124.5684   20397126.9924
 -16824987.06444 -13110375.75344  22090176.6094   22090179.2804
 -23095473.04344 -17996464.81844  20919595.0894   20919597.0694
  -3765679.15944  -2934285.75344  23970621.2794   23970627.0834
 96  4  2  0  5  0.0000000  0  8G 6G 4G16G20G24G 9G 5G 7
  -4050246.64644  -3156029.26144  24696197.3064   24696201.1854
 -18245429.76344 -14217196.10544  21705984.4594   21705985.7774
  -5818565.80444  -4533935.03844  24141160.3354   24141165.5154
 -11717186.77844  -9130268.47044  22943242.3784   22943245.3644
 -25539460.36044 -19900850.44044  20398015.3754   20398017.8344
 -16754569.54344 -13055504.98144  22103576.5674   22103579.2804
 -23149951.53444 -18038915.58344  20909228.1414   20909230.0954
  -3695985.53144  -2879979.03044  23983883.4374   23983887.3134
 96  4  2  0  5 30.0000000  0  8G 6G 4G16G20G24G 9G 5G 7
  -4121235.22644  -3211344.93644  24682688.4624   24682693.0274
 -18172031.08644 -14160002.33844  21719951.8364   21719952.9794
  -5913160.89744  -4607645.39844  24123159.3784   24123164.9744
 -11810195.09444  -9202742.46044  22925543.7414   22925546.9654
 -25534271.84944 -19896807.43344  20399002.6334   20399005.1744
 -16683806.14244 -13000364.69344  22117042.3504   22117045.1644
 -23204101.03544 -18081109.99344  20898923.8644   20898925.8674
  -3626269.39144  -2825654.78344  23997150.1074   23997152.0834
 96  4  2  0  6  0.0000000  0  8G 6G 4G16G20G24G 9G 5G 7
  -4192199.11944  -3266641.41244  24669184.3404   24669188.9204
 -18098309.55544 -14102556.99844  21733980.5534   21733981.7654
  -6007737.14144  -4681341.10844  24105162.1184   24105167.1904
 -11903062.88544  -9275106.94844  22907871.3174   22907874.4864
 -25528580.52344 -19892372.62544  20400085.6724   20400088.1114
 -16612677.67744 -12944939.94044  22130577.5594   22130580.2464
 -23257929.76344 -18123054.44944  20888680.5944   20888682.5594
  -3556523.40244  -2771307.28544  24010422.3384   24010425.5894
 96  4  2  0  6 30.0000000  0  8G 6G 4G16G20G24G 9G 5G 7
  -4263071.33444  -3321866.43444  24655697.7624   24655701.8584
 -18024235.04844 -14044836.61344  21748076.5164   21748077.6384
  -6102240.59044  -4754980.06044  24087178.6914   24087183.9454
 -11995747.76444  -9347328.90944  22890233.9754   22890237.1234
 -25522355.34544 -19887521.82644  20401270.3224   20401272.7124
 -16541149.07744 -12889203.39244  22144189.0884   22144192.0604
 -23311404.25244 -18164722.87544  20878504.6524   20878506.6304
  -3486697.27844  -2716897.34444  24023709.8674   24023713.0864
 96  4  2  0  7  0.0000000  0  8G 6G 4G16G20G24G 9G 5G 7
  -4333862.50044  -3377028.31244  24642226.3564   24642229.6074
 -17949843.83944 -13986869.44444  21762232.6144   21762234.0894
  -6196691.43644  -4828578.03544  24069205.2964   24069209.6324
 -12088265.75944  -9419420.82744  22872628.2074   22872631.2744
 -25515623.64644 -19882276.33644  20402551.1634   20402553.4474
 -16469267.33344 -12833191.66944  22157867.7984   22157870.6574
 -23364541.73144 -18206128.69844  20868392.9664   20868395.1064
  -3416816.52144  -2662444.86644  24037007.6964   24037011.7824
 96  4  2  0  7 30.0000000  0  8G 6G 4G16G20G24G 9G 5G 7
  -4404617.59944  -3432162.05844  24628762.1384   24628767.7114
 -17875171.20444 -13928682.99044  21776442.2904   21776443.5914
  -6291153.48444  -4902184.75144  24051229.6124   24051234.3664
 -12180661.89844  -9491417.80144  22855045.8594   22855049.0234
 -25508430.31144 -19876671.13144  20403920.0344   20403922.3644
 -16397061.88044 -12776927.70644  22171608.1884   22171610.6044
 -23417375.90844 -18247298.18044  20858338.9224   20858340.9014
  -3346924.66244  -2607983.70444  24050307.7204   24050310.9414
 96  4  2  0  8  0.0000000  0  8G 6G 4G16G20G24G 9G 5G 7
  -4475339.68744  -3487270.10144  24615303.9634   24615309.3004
 -17800200.84844 -13870264.54044  21790708.7404   21790709.8494
  -6385644.23744  -4975813.83544  24033248.4014   24033252.4724
 -12272934.46744  -9563318.47944  22837486.9374   22837489.6974
 -25500776.83344 -19870707.37444  20405376.5884   20405378.8874
 -16324523.15144 -12720404.04744  22185411.7204   22185414.4044
 -23469888.60544 -18288217.15844  20848346.1384   20848348.2894
  -3277014.79344  -2553508.52844  24063611.2284   24063614.3334
 96  4  2  0  8 30.0000000  0  8G 6G 4G16G20G24G 9G 5G 7
  -4549483.64644  -3545044.53544  24601195.0104   24601198.0334
 -17728396.69944 -13814313.26344  21804372.5434   21804373.8464
  -6483628.26144  -5052164.95644  24014602.7864   24014606.8964
 -12368535.65144  -9637812.88744  22819294.6574   22819298.0354
 -25496117.58344 -19867076.78244  20406263.0884   20406265.3544
 -16255120.22344 -12666323.86344  22198618.5764   22198621.4284
 -23525518.51344 -18331565.13044  20837760.0344   20837762.0954
  -3210542.98744  -2501712.36244  24076260.5154   24076264.0124
 96  4  2  0  9  0.0000000  0  8G 6G 4G16G20G24G 9G 5G 7
  -4624253.56644  -3603306.74244  24586966.5884   24586970.9694
 -17656945.57444 -13758637.07344  21817969.2784   21817970.5204
  -6582303.71444  -5129054.84944  23995825.4024   23995830.5474
 -12464659.34544  -9712714.45344  22801002.8764   22801006.0214
 -25491631.10444 -19863580.81644  20407116.7674   20407119.1984
 -16186039.19344 -12612494.51444  22211764.4224   22211767.1974
 -23581455.18144 -18375152.14044  20827115.7374   20827117.7124
  -3144706.10844  -2450410.95344  24088788.7784   24088791.8544
 96  4  2  0  9 30.0000000  0  8G 6G 4G16G20G24G 9G 5G 7
  -4698427.84944  -3661104.81344  24572851.4884   24572856.6814
 -17584626.88744 -13702284.86044  21831731.0514   21831732.4884
  -6680448.58544  -5205531.29744  23977149.1394   23977152.4724
 -12560092.35144  -9787077.81344  22782842.7014   22782845.7654
 -25486093.15344 -19859265.52444  20408170.6014   20408173.0474
 -16116063.01044 -12557967.64044  22225080.4644   22225083.2254
 -23636490.75244 -18418036.99644  20816642.6094   20816644.6234
  -3078291.99844  -2398659.73944  24101426.9884   24101429.9274
 96  4  2  0 10  0.0000000  0  8G 6G 4G16G20G24G 9G 5G 7
  -4771853.14644  -3718319.25944  24558879.1484   24558882.7414
 -17511292.42944 -13645141.13544  21845686.1114   21845687.2944
  -6777883.05144  -5281454.18544  23958607.9104   23958612.6264
 -12654667.68944  -9860772.85044  22764845.6594   22764848.1134
 -25479337.91244 -19854001.69144  20409456.1204   20409458.5914
 -16045064.11244 -12502643.84744  22238591.1504   22238593.7254
 -23690461.18244 -18460091.87344  20806372.4454   20806374.3264
  -3011154.67044  -2346344.97944  24114203.0774   24114206.7864
 96  4  2  0 10 30.0000000  0  8G 6G 4G16G20G24G 9G 5G 7
  -4844093.53044  -3774610.40344  24545132.4924   24545136.5414
 -17436510.87944 -13586869.80544  21859916.5004   21859917.9534
  -6874157.50844  -5356473.16744  23940287.2724   23940291.6404
 -12747947.73144  -9933458.58344  22747094.8694   22747097.6054
 -25470917.10944 -19847440.02044  20411058.4594   20411060.8284
 -15972634.55944 -12446205.25644  22252373.9234   22252376.6744
 -23742941.55944 -18500985.67044  20796385.7654   20796387.7484
  -2942865.41444  -2293132.60244  24127197.8974   24127201.6404
 96  4  2  0 11  0.0000000  0  8G 6G 4G16G20G24G 9G 5G 7
  -4913529.01744  -3828715.91244  24531919.3714   24531923.1124
 -17358654.49844 -13526202.50744  21874732.0284   21874733.2614
  -6967650.79044  -5429324.99944  23922496.0254   23922499.9224
 -12838310.65944 -10003871.24044  22729899.3774   22729902.4084
 -25459218.91044 -19838324.53144  20413284.5864   20413286.9304
 -15897166.30744 -12387398.85344  22266735.0654   22266737.5674
 -23792325.07344 -18539466.32944  20786988.4374   20786990.2844
  -2871805.33844  -2237761.20744  24140720.1954   24140723.2624
 96  4  2  0 11 30.0000000  0  8G 6G 4G16G20G24G 9G 5G 7
  -4981964.09844  -3882041.92744  24518896.3864   24518899.8444
 -17279555.61644 -13464567.02344  21889784.1444   21889785.6514
  -7060186.54644  -5501430.68744  23904886.8894   23904892.0664
 -12927568.08344 -10073422.45844  22712914.1884   22712917.1824
 -25446070.91644 -19828079.33544  20415786.5564   20415788.9644
 -15820481.03244 -12327644.11344  22281327.8824   22281330.7594
 -23840417.78044 -18576941.16344  20777836.6774   20777838.6054
  -2799801.35544  -2181654.22344  24154422.2234   24154425.4894
 96  4  2  0 12  0.0000000  0  8G 6G 4G16G20G24G 9G 5G 7
  -5049625.28044  -3934764.84444  24506020.8404   24506025.2674
 -17199438.21744 -13402137.89044  21905029.8174   21905031.4424
  -7151988.13444  -5572964.31844  23887417.7444   23887422.1184
 -13015942.49544 -10142285.61844  22696097.2844   22696100.3204
 -25431701.68844 -19816882.52844  20418520.9834   20418523.3544
 -15742796.97144 -12267111.10144  22296110.8254   22296113.1904
 -23887432.75344 -18613576.20544  20768890.0414   20768891.8854
  -2727058.99944  -2124971.94644  24168264.6754   24168269.4074
 96  4  2  0 12 30.0000000  0  8G 6G 4G16G20G24G 9G 5G 7
  -5117140.60444  -3987374.12644  24493172.8784   24493176.7524
 -17118935.55144 -13339408.54644  21920349.0684   21920350.3534
  -7243700.92544  -5644428.74344  23869965.1444   23869969.6404
 -13104085.46844 -10210968.43044  22679324.1464   22679327.3014
 -25416764.06744 -19805242.81744  20421363.5344   20421365.8834
 -15664733.55744 -12206282.49144  22310965.7694   22310968.4114
 -23934028.45644 -18649884.54344  20760023.3014   20760025.1464
  -2654194.43844  -2068194.41744  24182130.2894   24182133.9794
 96  4  2  0 13  0.0000000  0  8G 6G 4G16G20G24G 9G 5G 7
  -5185051.93644  -4040291.98444  24480249.8824   24480253.4844
 -17038585.11144 -13276797.82144  21935639.3094   21935640.6374
  -7335855.62944  -5716237.51144  23852428.6784   23852434.1484
 -13192531.35644 -10279887.28544  22662493.4594   22662496.5814
 -25401804.47844 -19793585.98844  20424210.2894   20424212.5044
 -15586802.73444 -12145557.19844  22325795.3694   22325798.0814
 -23980718.44144 -18686266.34644  20751138.3824   20751140.2824
  -2581741.90144  -2011737.94544  24195917.5504   24195920.2144
 96  4  2  0 13 30.0000000  0  8G 6G 4G16G20G24G 9G 5G 7
  -5253408.56544  -4093556.83844  24467242.0374   24467246.9234
 -16958447.30944 -13214352.78944  21950889.0214   21950890.4684
  -7428483.32444  -5788414.84844  23834802.1434   23834806.8294
 -13281315.54344 -10349069.74244  22645598.2334   22645601.3084
 -25386856.27344 -19781938.03144  20427054.7534   20427057.0804
 -15509034.51844 -12084958.61344  22340594.2424   22340597.1384
 -24027526.98844 -18722740.53844  20742231.0744   20742233.0334
  -2509740.24044  -1955632.80244  24209619.1144   24209622.1544
 96  4  2  0 14  0.0000000  0  8G 6G 4G16G20G24G 9G 5G 7
  -5322234.95544  -4147187.72944  24454144.5474   24454149.4914
 -16878524.39744 -13152075.20244  21966097.9994   21966099.4334
  -7521571.14044  -5860950.73144  23817088.2824   23817092.3864
 -13370431.79944 -10418510.95844  22628640.0664   22628642.8584
 -25371920.76244 -19770299.96444  20429896.8004   20429899.2074
 -15431442.72344 -12024497.50244  22355359.4414   22355362.2554
 -24074463.00744 -18759314.05644  20733299.3064   20733301.3034
  -2438188.42944  -1899878.19044  24223235.1414   24223239.0814
 96  4  2  0 14 30.0000000  0  8G 6G 4G16G20G24G 9G 5G 7
  -5391430.92344  -4201106.62544  24440977.0244   24440981.1074
 -16798720.89444 -13089890.65944  21981284.0904   21981285.4524
  -7615009.39044  -5933759.67744  23799307.3964   23799312.5874
 -13459770.80444 -10488125.74944  22611639.2964   22611642.0294
 -25356908.04844 -19758601.74144  20432753.5734   20432755.9574
 -15353930.02444 -11964098.02144  22370109.6294   22370112.2614
 -24121428.75244 -18795910.73844  20724362.0884   20724364.0504
  -2367012.35244  -1844416.36644  24236779.3694   24236782.0114
 96  4  2  0 15  0.0000000  0  8G 6G 4G16G20G24G 9G 5G 7
  -5460817.23644  -4255173.81744  24427773.3904   24427776.3404
 -16718863.42444 -13027664.07144  21996480.3154   21996481.8484
  -7708609.11244  -6006694.44144  23781495.8234   23781500.1184
 -13549136.19644 -10557761.09344  22594633.6194   22594636.5764
 -25341631.39544 -19746697.85144  20435660.7424   20435663.0424
 -15276329.97944 -11903630.48144  22384876.3484   22384879.1604
 -24168223.13344 -18832373.89144  20715457.3844   20715459.3354
  -2296042.50644  -1789115.24044  24250284.5894   24250287.7094
 96  4  2  0 15 30.0000000  0  8G 6G 4G16G20G24G 9G 5G 7
  -5530195.98144  -4309235.10544  24414571.0044   24414574.2034
 -16638760.07644 -12965245.89244  22011723.5614   22011724.8444
  -7802174.60744  -6079602.53944  23763690.7904   23763695.2964
 -13638338.71344 -10627269.52744  22577659.0984   22577662.3834
 -25325890.82544 -19734432.46844  20438655.8564   20438658.3494
 -15198461.52844 -11842953.79244  22399694.2444   22399696.8784
 -24214668.92544 -18868565.41144  20706619.0884   20706621.0274
  -2225089.45644  -1733827.19044  24263786.5364   24263789.7294
 96  4  2  0 16  0.0000000  0  8G 6G 4G16G20G24G 9G 5G 7
  -5599780.02144  -4363456.37244  24401329.3504   24401332.0744
 -16558613.88244 -12902794.32144  22026974.8094   22026975.8444
  -7895929.05144  -6152657.86944  23745850.0494   23745854.3114
 -13727603.20444 -10696826.25344  22560672.4864   22560675.5774
 -25309917.05844 -19721985.37144  20441695.6664   20441697.9964
 -15120546.24444 -11782240.61044  22414521.0834   22414523.8674
 -24261001.23044 -18904668.50044  20697802.3554   20697804.2524
  -2154380.56444  -1678729.40244  24277242.0024   24277245.6704
 96  4  2  0 16 30.0000000  0  8G 6G 4G16G20G24G 9G 5G 7
  -5669621.78844  -4417878.45144  24388039.1464   24388042.3644
 -16478493.46344 -12840362.84044  22042221.1904   22042222.4444
  -7989940.47444  -6225913.46744  23727960.1094   23727963.3084
 -13817001.67344 -10766487.37444  22543660.5174   22543663.3994
 -25293779.93244 -19709410.98244  20444766.4674   20444768.8514
 -15042649.09644 -11721541.56044  22429344.5024   22429347.5554
 -24307279.00444 -18940729.09844  20688995.9944   20688997.8914
  -2083971.41544  -1623865.17144  24290640.5804   24290643.7604
 96  4  2  0 17  0.0000000  0  8G 6G 4G16G20G24G 9G 5G 7
  -5739374.04644  -4472230.80644  24374765.4214   24374769.1654
 -16398052.40044 -12777681.50744  22057528.6514   22057530.2334
  -8083862.71844  -6299099.54944  23710087.3094   23710092.2624
 -13906187.28944 -10835982.64444  22526689.0794   22526692.2764
 -25277110.32944 -19696421.67244  20447938.6184   20447941.0104
 -14964426.03344 -11660588.55444  22444229.8374   22444232.8364
 -24353137.25944 -18976462.79544  20680269.4324   20680271.3414
  -2013494.88044  -1568948.43644  24304051.7484   24304055.2374
 96  4  2  0 17 30.0000000  0  8G 6G 4G16G20G24G 9G 5G 7
  -5809086.23944  -4526551.92044  24361499.9844   24361504.5074
 -16317345.88844 -12714793.32544  22072886.5944   22072888.1444
  -8177747.05344  -6372256.10844  23692221.4844   23692225.2054
 -13995208.00844 -10905349.41944  22509748.9554   22509752.1384
 -25259962.61644 -19683059.81244  20451201.7104   20451204.0054
 -14885928.59144 -11599421.74344  22459167.2894   22459170.3304
 -24398635.17844 -19011915.71144  20671611.4414   20671613.2614
  -1942998.09144  -1514015.91944  24317466.8744   24317469.7634
 96  4  2  0 18  0.0000000  0  8G 6G 4G16G20G24G 9G 5G 7
  -5878720.85044  -4580812.58944  24348248.6494   24348251.3194
 -16236347.81344 -12651677.95444  22088300.0734   22088301.4984
  -8271560.73944  -6445357.61844  23674369.5204   23674374.3644
 -14084019.85644 -10974553.43644  22492848.6704   22492851.7054
 -25242320.99044 -19669313.08444  20454558.8054   20454561.1824
 -14807138.32444 -11538026.75944  22474160.7384   22474163.5814
 -24443733.02344 -19047056.88244  20663029.5744   20663031.4134
  -1872434.00044  -1459030.97044  24330894.7954   24330897.9384
 96  4  2  0 18 30.0000000  0  8G 6G 4G16G20G24G 9G 5G 7
  -5948283.17944  -4635016.93744  24335011.2864   24335014.8594
 -16155071.50344 -12588345.77844  22103766.4864   22103767.9044
  -8365294.77944  -6518397.07944  23656532.5044   23656536.8704
 -14172622.58844 -11043594.51244  22475988.1214   22475991.2314
 -25224183.90344 -19655180.28444  20458010.1934   20458012.5774
 -14728072.52544 -11476417.07644  22489206.5034   22489209.6874
 -24488408.53644 -19081868.96444  20654528.1434   20654530.0004
  -1801806.68544  -1403996.76244  24344334.7914   24344336.7864
 96  4  2  0 19  0.0000000  0  8G 6G 4G16G20G24G 9G 5G 7
  -6017856.63644  -4689229.95444  24321771.7484   24321776.3084
 -16073596.60144 -12524858.85344  22119270.6034   22119272.1984
  -8459022.99844  -6591431.99844  23638696.3264   23638701.3984
 -14261086.37744 -11112527.32044  22459153.9164   22459156.5334
 -25205631.82444 -19640724.11244  20461540.5524   20461542.8754
 -14648805.06044 -11414650.24444  22504290.5104   22504293.5344
 -24532741.59544 -19116414.20044  20646091.7394   20646093.5974
  -1731203.23544  -1348981.15844  24357770.1154   24357772.1834
 96  4  2  0 19 30.0000000  0  8G 6G 4G16G20G24G 9G 5G 7
  -6087492.93744  -4743491.95544  24308520.5594   24308524.2224
 -15991970.31644 -12461253.96944  22134803.5244   22134805.0504
  -8552780.77444  -6664489.93844  23620854.9124   23620858.8614
 -14349440.42544 -11181374.61144  22442340.7844   22442343.7634
 -25186725.48344 -19625991.88944  20465138.3204   20465140.4794
 -14569368.00444 -11352751.26444  22519407.0034   22519409.9414
 -24576779.54944 -19150729.48644  20637711.6254   20637713.3954
  -1660674.51044  -1294023.75344  24371191.1284   24371193.2464
 96  4  2  0 20  0.0000000  0  8G 6G 4G16G20G24G 9G 5G 7
  -6157170.75144  -4797786.29244  24295260.8884   24295264.4264
 -15910162.86444 -12397507.91444  22150370.9534   22150372.5754
  -8646533.65944  -6737544.07544  23603014.1174   23603018.7434
 -14437656.46344 -11250114.36744  22425553.8264   22425556.4284
 -25167434.17744 -19610959.69444  20468809.3204   20468811.6214
 -14489725.20844 -11290691.97444  22534562.6354   22534565.6144
 -24620474.85344 -19184777.77044  20629396.6214   20629398.4624
  -1590200.52244  -1239108.96644  24384602.0344   24384606.3034
 96  4  2  0 20 30.0000000  0  8G 6G 4G16G20G24G 9G 5G 7
  -6226831.54544  -4852067.38544  24282005.1854   24282008.9774
 -15828102.52044 -12333564.80044  22165986.6814   22165988.2564
  -8740210.71044  -6810539.12444  23585187.9974   23585192.8154
 -14525667.24944 -11318694.18044  22408805.8964   22408808.9644
 -25147683.53744 -19595569.57844  20472567.6224   20472569.9474
 -14409794.71244 -11228408.49844  22549772.9074   22549775.4614
 -24663764.90244 -19218510.27244  20621158.8824   20621160.7024
  -1519725.70244  -1184193.59444  24398013.0364   24398013.9964
 96  4  2  0 21  0.0000000  0  8G 6G 4G16G20G24G 9G 5G 7
  -6296429.20044  -4906299.26144  24268760.9554   24268763.6674
 -15745742.89044 -12269388.47644  22181659.2234   22181660.7134
  -8833760.49744  -6883435.01544  23567385.9754   23567390.5064
 -14613423.21444 -11387075.43844  22392106.6164   22392109.0724
 -25127427.16244 -19579785.38444  20476422.2464   20476424.6224
 -14329525.45044 -11165861.05044  22565047.6614   22565050.5504
 -24706621.35444 -19251904.90844  20613003.5284   20613005.4604
  -1449187.06244  -1129228.48444  24411436.1374
 96  4  2  0 21 30.0000000  0  8G 6G 4G16G20G24G 9G 5G 7
  -6365925.26044  -4960452.02544  24255536.3694   24255540.6064
 -15663062.75344 -12204962.40644  22197392.5304   22197394.2494
  -8927155.67044  -6956210.41744  23549613.4864   23549617.9484
 -14700909.02344 -11455246.18144  22375458.5574   22375461.2714
 -25106641.17144 -19563588.50144  20480377.6774   20480380.0324
 -14248912.96944 -11103046.15944  22580387.8374   22580390.5164
 -24749018.80344 -19284941.87844  20604935.5774   20604937.4904
  -1378556.54544  -1074191.74644  24424876.7934
 96  4  2  0 22  0.0000000  0  8G 6G 4G16G20G24G 9G 5G 7
  -6435393.60944  -5014583.13044  24242316.7564   24242319.9524
 -15580143.67544 -12140350.15244  22213171.6194   22213172.9144
  -9020485.60144  -7028934.97744  23531853.2194   23531857.2984
 -14788215.03944 -11523276.82544  22358844.7544   22358847.3864
 -25085401.38744 -19547038.01544  20484419.5154   20484421.7764
 -14168059.57344 -11040043.54344  22595773.5984   22595776.4514
 -24791057.13544 -19317699.01744  20596935.9474   20596937.8504
  -1307917.46644  -1019148.35244  24438318.9374
 96  4  2  0 22 30.0000000  0  8G 6G 4G16G20G24G 9G 5G 7
  -6504839.31144  -5068696.61844  24229101.9264   24229106.0934
 -15496991.09044 -12075555.93744  22228995.1994   22228996.5134
  -9113759.25144  -7101615.67644  23514103.8654   23514108.4294
 -14875349.48944 -11591173.78844  22342263.5444   22342266.2214
 -25063713.64044 -19530138.46644  20488546.7384   20488549.0084
 -14086989.97644 -10976872.46044  22611200.6054   22611203.4504
 -24832754.05544 -19350190.12244  20589001.2344   20589003.1014
  -1237269.81544                  24451762.6434
 96  4  2  0 23  0.0000000  0  8G 6G 4G16G20G24G 9G 5G 7
  -6574258.49644  -5122789.42244  24215891.8354   24215894.7984
 -15413618.92944 -12010590.62844  22244860.3274   22244861.6924
  -9206987.18544  -7174260.76644  23496363.3294   23496367.4404
 -14962308.50944 -11658934.04544  22325715.7074   22325718.7044
 -25041580.09344 -19512891.54244  20492758.6914   20492760.8224
 -14005728.17644 -10913551.60844  22626664.2334   22626666.9594
 -24874106.65844 -19382412.92944  20581132.2704   20581134.0164
  -1166604.55744                  24465209.7954
 96  4  2  0 23 30.0000000  0  8G 6G 4G16G20G24G 9G 5G 7
  -6643638.20244  -5176851.49044  24202689.4414   24202693.0204
 -15330017.28344 -11945446.50344  22260769.1564   22260770.5044
  -9300167.47244  -7246868.72144  23478631.4114   23478634.9864
 -15049064.88744 -11726536.40644  22309206.7054   22309209.1484
 -25018994.86044 -19495292.65344  20497056.3454   20497058.4144
 -13924268.17844 -10850076.31544  22642165.8644   22642168.4974
 -24915099.74444 -19414355.59144  20573331.6004   20573333.2024
  -1095925.68844                  24478659.9124
 96  4  2  0 24  0.0000000  0  8G 6G 4G16G20G24G 9G 5G 7
  -6712981.66944  -5230885.30944  24189493.7774   24189497.1334
 -15246172.23844 -11880112.70744  22276724.4044   22276725.3924
  -9393291.30044  -7319432.67744  23460910.7614   23460915.2354
 -15135595.65144 -11793962.95744  22292740.4174   22292742.9934
 -24995946.32744 -19477332.74844  20501442.4384   20501444.4694
 -13842588.63544 -10786429.94744  22657709.0594   22657711.4594
 -24955721.89344 -19446009.21244  20565601.4794   20565603.0254
  -1025228.09344                  24492113.0864
 96  4  2  0 24 30.0000000  0  7G 6G 4G16G20G24G 9G 5
  -6781961.12544  -5284635.47744  24176367.3634   24176370.7074
 -15161758.30544 -11814335.62744  22292787.9904   22292788.8444
  -9486004.92844  -7391676.99544  23443267.9904   23443272.3754
 -15221576.17344 -11860960.74344  22276378.9404   22276381.5294
 -24972111.46744 -19458760.11844  20505978.1174   20505979.8144
 -13760365.12644 -10722359.70344  22673355.6604   22673358.2884
 -24995611.87444 -19477092.31044  20558010.7164   20558011.8874
 96  4  2  0 25  0.0000000  0  7G 6G 4G16G20G24G 9G 5
  -6850975.17044  -5338412.60144  24163234.2424   24163237.4754
 -15077195.90444 -11748442.86544  22308879.5494   22308881.1354
  -9578699.60444  -7463906.55044  23425628.4744   23425632.1074
 -15307410.64744 -11927844.73744  22260044.9364   22260047.6464
 -24947906.65044 -19439899.21944  20510583.8284   20510586.0304
 -13677987.10144 -10658169.07044  22689031.3684   22689033.9174
 -25035167.41944 -19507914.81444  20550483.3134   20550485.0404
 96  4  2  0 25 30.0000000  0  7G 6G 4G16G20G24G 9G 5
  -6920212.28444  -5392363.55744  24150058.8274   24150061.4244
 -14992672.37644 -11682580.38244  22324963.8244   22324964.6874
  -9671543.10244  -7536252.05444  23407961.0774   23407964.4584
 -15393295.86144 -11994768.26144  22243701.6654   22243704.5634
 -24923519.33344 -19420896.10544  20515224.6454   20515226.5334
 -13595624.19644 -10593990.21144  22704704.8284   22704707.3374
 -25074555.24144 -19538606.62044  20542988.1994   20542989.6504
 96  4  2  0 26  0.0000000  0  7G 6G 4G16G20G24G 9G 5
  -6989291.48144  -5446191.44444  24136913.5524   24136915.4434
 -14907806.69144 -11616451.29344  22341113.2954   22341114.1064
  -9764130.90544  -7608398.32944  23390342.0504   23390345.9734
 -15478869.21844 -12061448.78344  22227417.5984   22227419.7794
 -24898563.34344 -19401449.87344  20519973.6114   20519975.4194
 -13512893.25744 -10529524.58444  22720448.1244   22720450.6304
 -25113366.64044 -19568849.27244  20535602.6404   20535604.1174
 96  4  2  0 26 30.0000000  0  7G 6G 4G16G20G24G 9G 5
  -7058699.46644  -5500275.55244  24123705.4694   24123708.6654
 -14823103.27044 -11550448.64944  22357231.7284   22357232.9164
  -9856941.68044  -7680718.34844  23372680.6294   23372684.3874
 -15564624.80044 -12128271.30744  22211098.7824   22211101.1724
 -24873538.87144 -19381950.28244  20524735.5604   20524737.8094
 -13430285.22844 -10465154.72444  22736167.8334   22736170.8744
 -25152081.42244 -19599016.64344  20528235.3044   20528237.1994
 96  4  2  0 27  0.0000000  0  7G 6G 4G16G20G24G 9G 5
  -7128142.42244  -5554386.89744  24110491.0124   24110495.4644
 -14738268.24044 -11484343.44444  22373375.1754   22373376.4474
  -9949705.31344  -7753001.62944  23355028.1674   23355032.6554
 -15650252.74444 -12194994.36044  22194804.1844   22194807.0194
 -24848160.40544 -19362174.84844  20529564.9374   20529567.1774
 -13347490.93244 -10400639.71744  22751922.9064   22751925.8694
 -25190426.37144 -19628895.82144  20520938.5434   20520940.3344
 96  4  2  0 27 30.0000000  0  7G 6G 4G16G20G24G 9G 5
  -7197225.41044  -5608217.74644  24097344.7564   24097348.3094
 -14652890.55744 -11417815.38844  22389622.0234   22389623.4884
 -10042025.50144  -7824939.37944  23337460.2214   23337463.8894
 -15735346.57244 -12261301.22244  22178611.3344   22178614.1544
 -24822013.80144 -19341800.86144  20534540.3874   20534542.6974
 -13264124.94844 -10335679.24544  22767786.8694   22767789.7054
 -25228001.27744 -19658174.96444  20513788.1874   20513790.1134
 96  4  2  0 28  0.0000000  0  7G 6G 4G16G20G24G 9G 5
  -7266149.30944  -5661924.64144  24084229.0104   24084232.0354
 -14567173.33044 -11351022.75844  22405933.4944   22405934.6324
 -10134102.70744  -7896687.78444  23319938.3094   23319941.8014
 -15820089.55244 -12327334.69244  22162485.1884   22162487.8434
 -24795299.75044 -19320984.71244  20539623.9404   20539626.2004
 -13180395.18244 -10270435.30644  22783720.2174   22783722.9454
 -25265028.93044 -19687027.67944  20506742.0674   20506743.9514
 96  4  2  0 28 30.0000000  0  7G 6G 4G16G20G24G 9G 5
  -7335004.48044  -5715577.97744  24071126.2644   24071129.3224
 -14481223.82344 -11284049.13544  22422289.2794   22422290.7484
 -10226047.06644  -7968332.68944  23302441.9114   23302445.2954
 -15904556.49744 -12393153.07644  22146411.8554   22146414.7234
 -24768114.25644 -19299801.20644  20544797.2774   20544799.4004
 -13096404.64444 -10204988.17044  22799703.0574   22799705.8374
 -25301630.04344 -19715548.02344  20499777.1764   20499778.9294
 96  4  2  0 29  0.0000000  0  7G 6G 4G16G20G24G 9G 5
  -7403850.02444  -5769223.80644  24058025.4334   24058028.5374
 -14395097.07144 -11216937.39344  22438678.8314   22438680.0234
 -10317916.15544  -8039918.92344  23284959.8934   23284963.0544
 -15988785.40744 -12458785.98044  22130383.6314   22130385.9804
 -24740499.56044 -19278283.25644  20550052.2264   20550054.2554
 -13012225.95644 -10139394.42044  22815721.8314   22815724.2764
 -25337862.42844 -19743781.04744  20492882.3504   20492884.0104
 96  4  2  0 29 30.0000000  0  7G 6G 4G16G20G24G 9G 5
  -7472671.92244  -5822851.22844  24044929.0744   24044930.7474
 -14308788.76744 -11149684.17944  22455102.7554   22455103.6324
 -10409664.62744  -8111411.19744  23267500.5214   23267504.3064
 -16072757.50444 -12524218.77344  22114404.2254   22114406.6604
 -24712436.19544 -19256415.69444  20555392.4594   20555394.5314
 -12927876.67844 -10073667.74744  22831772.7394   22831775.5954
 -25373691.89344 -19771700.10844  20486064.3144   20486065.9114
 96  4  2  0 30  0.0000000  0  7G 6G 4G16G20G24G 9G 5
  -7541413.10044  -5876415.74044  24031848.0194   24031851.2154
 -14222243.69344 -11082246.47244  22471571.6284   22471572.9014
 -10501221.82844  -8182754.41544  23250077.7764   23250082.0524
 -16156403.12444 -12589397.16344  22098487.1154   22098489.8344
 -24683884.17544 -19234167.36444  20560825.5684   20560827.6994
 -12843305.54444 -10007768.19544  22847866.1504   22847869.2674
 -25409065.37244 -19799263.85644  20479332.8754   20479334.6284
 96  4  2  0 30 30.0000000  0  7G 6G 4G16G20G24G 9G 5
  -7610082.34744  -5929924.21044  24018780.9864   24018783.7964
 -14135466.09344 -11014627.57844  22488084.8384   22488086.2734
 -10592591.59644  -8253951.59544  23232690.7524   23232694.3194
 -16239730.51144 -12654327.58344  22082630.2904   22082632.7624
 -24654865.91044 -19211555.72644  20566347.6984   20566349.7994
 -12758537.37344  -9941715.10544  22863997.1464   22863999.5264
 -25443976.76544 -19826467.53644  20472689.4004   20472691.2314
 96  4  2  0 31  0.0000000  0  7G 6G 4G16G20G24G 9G 5
  -7678696.21044  -5983389.50944  24005723.7044   24005726.9764
 -14048452.81344 -10946825.03844  22504643.0264   22504644.1534
 -10683777.56844  -8325005.53944  23215338.7054   23215342.3544
 -16322766.45844 -12719030.90644  22066829.0374   22066831.6304
 -24625399.05844 -19188594.53844  20571955.0314   20571957.2364
 -12673588.64544  -9875521.32644  22880162.3344   22880165.0124
 -25478437.42044 -19853319.99344  20466131.8874   20466133.6284
 96  4  2  0 31 30.0000000  0  7G 6G 4G16G20G24G 9G 5
  -7747260.45344  -6036816.14544  23992676.4534   23992678.9234
 -13961204.91544 -10878839.67744  22521245.6974   22521246.8794
 -10774784.91744  -8395920.30244  23198020.3134   23198024.1754
 -16405536.93044 -12783527.36444  22051078.4194   22051081.3104
 -24595501.87444 -19165298.03144  20577644.3094   20577646.4474
 -12588457.90944  -9809185.71844  22896362.4004   22896365.3544
 -25512466.66044 -19879836.28444  20459656.3194   20459657.9734
 96  4  2  0 32  0.0000000  0  7G 6G 4G16G20G24G 9G 5
  -7815785.93544  -6090212.56744  23979636.4404   23979638.8174
 -13873733.42944 -10810680.08744  22537891.0164   22537891.9904
 -10865648.47444  -8466723.01444  23180729.6994   23180733.7574
 -16488059.97944 -12847831.02844  22035374.8014   22035377.4774
 -24565184.23244 -19141673.89144  20583413.5624   20583415.7174
 -12503130.12444  -9742696.56644  22912599.6324   22912602.4044
 -25546097.76144 -19906042.33544  20453256.5304   20453258.2614
 96  4  2  0 32 30.0000000  0  7G 6G 4G16G20G24G 9G 5
  -7884298.81744  -6143599.19044  23966598.8554   23966600.3704
 -13786080.24044 -10742378.91644  22554570.8674   22554572.4514
 -10956424.03344  -8537457.16444  23163455.4624   23163459.7574
 -16570385.86944 -12911981.06244  22019708.5934   22019711.4114
 -24534467.26744 -19117738.59344  20589258.7674   20589260.9194
 -12417629.46044  -9676072.71444  22928869.9514   22928872.9164
 -25579356.47444 -19931958.21444  20446927.6974   20446929.3384
 96  4  2  0 33  0.0000000  0  7G 6G 4G16G20G24G 9G 5
  -7952784.17244  -6196964.37544  23953566.4014   23953568.2514
 -13698236.71044 -10673929.42144  22571286.8214   22571288.4204
 -11047105.49644  -8608117.98244  23146199.2464   23146203.3404
 -16652502.63944 -12975968.13644  22004082.2084   22004084.7984
 -24503317.63044 -19093466.14744  20595186.3554   20595188.5834
 -12331928.62444  -9609292.87644  22945178.4114   22945181.1034
 -25612224.64044 -19957569.76944  20440673.0674   20440674.6674
 96  4  2  0 33 30.0000000  0  7G 6G 4G16G20G24G 9G 5
  -8021235.16144  -6250302.75144  23940540.5704   23940543.7104
 -13610216.11544 -10605341.96044  22588036.5634   22588037.5024
 -11137681.83744  -8678696.88544  23128963.2924   23128967.1264
 -16734387.56144 -13039774.55644  21988500.1834   21988503.1804
 -24471732.45744 -19068854.32244  20601196.7854   20601199.0394
 -12246026.03144  -9542355.82644  22961525.2014   22961527.9574
 -25644679.26944 -19982859.08844  20434497.1524   20434498.7934
 96  4  2  0 34  0.0000000  0  7G 6G 4G16G20G24G 9G 5
  -8089655.86844  -6303617.53844  23927520.6064   23927523.8194
 -13522033.49944 -10536628.25144  22604817.3054   22604818.8254
 -11228163.70644  -8749202.17744  23111745.0164   23111748.9924
 -16816036.60744 -13103397.17344  21972962.7584   21972965.4754
 -24439719.15644 -19043908.88944  20607288.6924   20607290.8954
 -12159943.02844  -9475278.19744  22977906.1404   22977909.0224
 -25676708.02544 -20007816.55944  20428402.2174   20428403.8614
 96  4  2  0 34 30.0000000  0  7G 6G 4G16G20G24G 9G 5
  -8158075.70944  -6356931.65544  23914500.4344   23914502.6544
 -13433704.92844 -10467800.79744  22621625.6724   22621626.9574
 -11318549.43144  -8819632.55544  23094545.1624   23094548.2624
 -16897458.63044 -13166842.89144  21957468.6464   21957471.4044
 -24407305.95344 -19018651.84544  20613456.6754   20613458.8074
 -12073719.43044  -9408091.02044  22994313.9024   22994316.3334
 -25708299.27644 -20032433.11844  20422390.6224   20422392.2054
 96  4  2  0 35  0.0000000  0  7G 6G 4G16G20G24G 9G 5
  -8226431.18344  -6410195.63744  23901492.8054   23901496.8604
 -13345154.68944 -10398800.62744  22638476.1034   22638477.6914
 -11408735.85544  -8889907.62644  23077383.3044   23077386.5564
 -16978563.37144 -13230041.37744  21942034.9104   21942037.6114
 -24374431.03144 -18993035.01844  20619712.6384   20619714.7814
 -11987296.03744  -9340748.15944  23010759.6684   23010762.7074
 -25739371.44644 -20056645.20044  20416477.8394   20416479.5664
 96  4  2  0 35 30.0000000  0  7G 6G 4G16G20G24G 9G 5
  -8294678.42744  -6463375.26244  23888505.9724   23888507.5354
 -13256351.00944 -10329602.97244  22655374.8924   22655376.3564
 -11498664.24344  -8959981.63344  23060270.2054   23060274.1804
 -17059303.28544 -13292955.58144  21926670.4884   21926673.1524
 -24341069.30044 -18967038.86044  20626061.1434   20626063.3374
 -11900634.60744  -9273219.81644  23027250.7954   23027253.4924
 -25769881.42044 -20080419.20744  20410671.8854   20410673.6644
 96  4  2  0 36  0.0000000  0  7G 6G 4G16G20G24G 9G 5
  -8362895.74044  -6516531.58544  23875524.5374   23875526.9644
 -13167366.51744 -10260264.41744  22672308.0294   22672309.5704
 -11588399.87244  -9029905.44444  23043194.1264   23043197.2604
 -17139753.85544 -13355644.32144  21911361.2594   21911363.9954
 -24307302.17844 -18940726.81344  20632486.8774   20632489.0534
 -11813800.73044  -9205557.09444  23043774.7514   23043777.5324
 -25799907.44344 -20103816.10944  20404958.1164   20404959.8294
 96  4  2  0 36 30.0000000  0  7G 6G 4G16G20G24G 9G 5
  -8431068.19744  -6569652.94144  23862551.7854   23862554.6214
 -13078196.23644 -10190781.09744  22689276.7404   22689277.9314
 -11677910.58744  -9099653.99544  23026161.0234   23026164.2404
 -17219903.72444 -13418098.75144  21896109.3634   21896111.9684
 -24273116.60344 -18914088.69944  20638992.0364   20638994.2244
 -11726769.72744  -9137740.77344  23060336.1624   23060338.8874
 -25829435.53544 -20126825.01444  20399339.1474   20399340.8404
 96  4  2  0 37  0.0000000  0  7G 6G 4G16G20G24G 9G 5
  -8499144.05644  -6622699.03144  23849597.1874   23849600.0334
 -12988813.67744 -10121132.36144  22706285.6924   22706286.9354
 -11767155.90644  -9169195.75644  23009177.8784   23009181.5324
 -17299719.66144 -13480292.97344  21880921.0714   21880923.6604
 -24238465.57944 -18887087.89644  20645585.9534   20645588.0824
 -11639497.96444  -9069736.83644  23076943.5994   23076946.4964
 -25858441.99744 -20149427.45444  20393819.3074   20393821.0174
 96  4  2  0 37 30.0000000  0  7G 6G 4G16G20G24G 9G 5
  -8567219.02544  -6675744.42544  23836643.0424   23836647.0454
 -12899313.44844 -10051391.93244  22723316.8764   22723318.1074
 -11856238.14344  -9238610.42844  22992226.1254   22992229.8224
 -17379294.05844 -13542298.98544  21865778.4984   21865781.0774
 -24203446.06744 -18859799.96244  20652249.8474   20652252.1624
 -11552068.27544  -9001609.85144  23093580.8844   23093583.9894
 -25887030.78444 -20171704.43444  20388379.0134   20388380.7494
 96  4  2  0 38  0.0000000  0  7G 6G 4G16G20G24G 9G 5
  -8635357.41544  -6728839.23644  23823676.5154   23823679.7164
 -12809743.60644  -9981597.27244  22740361.3834   22740363.2754
 -11945218.53944  -9307945.75644  22975293.6384   22975296.8894
 -17458678.88544 -13604157.28044  21850672.0244   21850674.7474
 -24168117.67944 -18832271.34644  20658972.6324   20658974.9854
 -11464549.41744  -8933413.37944  23110235.2354   23110237.7034
 -25915258.59544 -20193700.13344  20383007.5244   20383009.1344
 96  4  2  0 38 30.0000000  0  7G 6G 4G16G20G24G 9G 5
  -8703473.24744  -6781916.46544  23810714.3924   23810716.7794
 -12720009.82644  -9911674.85944  22757437.2494   22757438.9714
 -12034013.72744  -9377136.76144  22958396.4684   22958399.6304
 -17537784.75844 -13665798.20544  21835618.6694   21835621.5424
 -24132375.04644 -18804419.94344  20665774.1544   20665776.4644
 -11376864.49444  -8865087.50544  23126921.1894   23126924.2754
 -25943034.45344 -20215343.66044  20377721.9424   20377723.6514
 96  4  2  0 39  0.0000000  0  7G 6G 4G16G20G24G 9G 5
  -8771490.86044  -6834917.18744  23797771.1624   23797774.1314
 -12630024.83644  -9841556.70144  22774560.8444   22774562.4414
 -12122550.47344  -9446126.39244  22941548.2114   22941551.7014
 -17616517.25344 -13727148.18844  21820636.3754   21820638.9814
 -24096150.69744 -18776193.17944  20672667.4774   20672669.8344
 -11288946.50744  -8796580.02144  23143651.5054   23143654.6764
 -25970289.65444 -20236581.47744  20372535.4674   20372537.0734
 96  4  2  0 39 30.0000000  0  7G 6G 4G16G20G24G 9G 5
  -8839498.72644  -6887910.27044  23784829.5424   23784833.1964
 -12539882.91244  -9771316.25644  22791714.2594   22791715.3654
 -12210915.32444  -9514982.07144  22924733.2424   22924736.5504
 -17694963.80344 -13788275.35944  21805708.3694   21805711.1224
 -24059549.76344 -18747672.97244  20679632.4384   20679634.7824
 -11200896.73644  -8727969.85244  23160406.8784   23160409.6084
 -25997114.06544 -20257483.61544  20367430.9524   20367432.7204
 96  4  2  0 40  0.0000000  0  7G 6G 4G16G20G24G 9G 5
  -8907267.54644  -6940717.10744  23771933.8764   23771937.0514
 -12449381.90444  -9700796.00044  22808936.1254   22808937.1944
 -12298891.47144  -9583534.86344  22907991.9944   22907995.4014
 -17772912.78144 -13849014.80444  21790875.2784   21790877.2524
 -24022352.19044 -18718687.84244  20686710.9104   20686712.8794
 -11112520.88144  -8659105.57444  23177224.2714   23177226.5054
 -26023292.71444 -20277882.55344  20362449.3864   20362450.7814
 96  4  2  0 40 30.0000000  0  7G20G 6G 4G16G24G 9G 5
 -17850454.58744 -13909436.97144  21776119.5154   21776121.6094
  -8974878.38344  -6993400.84044  23759067.7274   23759070.3994
 -12358618.65944  -9630071.40044  22826207.7614   22826208.4614
 -12386566.76844  -9651853.23244  22891307.7484   22891311.7824
 -23984646.00944 -18689306.40044  20693886.1314   20693888.0464
 -11023899.09044  -8590049.67944  23194088.3754   23194090.9524
 -26048919.83144 -20297851.73644  20357572.6814   20357574.1704
 96  4  2  0 41  0.0000000  0  7G20G 6G 4G16G24G 9G 5
 -17928145.60044 -13969975.41944  21761335.3094   21761338.0684
  -9042880.63144  -7046389.57144  23746127.2804   23746131.0894
 -12268156.54944  -9559581.46344  22843422.1044   22843423.2684
 -12474496.34944  -9720369.75444  22874575.1434   22874578.6604
 -23947006.13244 -18659976.63144  20701048.6874   20701051.0074
 -10935589.91544  -8521237.38044  23210893.0544   23210896.2714
 -26074549.79344 -20317823.14244  20352695.4044   20352697.0784
 96  4  2  0 41 30.0000000  0  7G20G 6G 4G16G24G 9G 5
 -18005908.75644 -14030570.07544  21746537.3894   21746540.0664
  -9111197.00444  -7099623.07744  23733127.2174   23733130.4474
 -12177914.64244  -9489263.11044  22860594.6114   22860595.8444
 -12562596.03744  -9789018.82344  22857810.3744   22857814.3894
 -23909335.56544 -18630622.94244  20708217.2284   20708219.4934
 -10847508.81344  -8452602.80644  23227654.5374   23227657.4314
 -26100080.34944 -20337717.08544  20347837.1174   20347838.9204
 96  4  2  0 42  0.0000000  0  7G20G 6G 4G16G24G 9G 5
 -18083066.28444 -14090692.81444  21731854.7764   21731857.5044
  -9179165.83544  -7152585.76544  23720192.8464   23720195.9224
 -12087215.43344  -9418588.41544  22877854.0464   22877855.6354
 -12650201.88444  -9857283.07944  22841139.6194   22841143.1804
 -23870959.17344 -18600719.25644  20715519.9664   20715522.1054
 -10758978.83644  -8383618.45344  23244501.2564   23244504.3234
 -26124824.63044 -20356998.34744  20343128.3154   20343130.1384
 96  4  2  0 42 30.0000000  0  7G20G 6G 4G16G24G 9G 5
 -18159787.49044 -14150475.56044  21717255.2414   21717257.9844
  -9246980.95844  -7205428.69344  23707288.1504   23707291.3864
 -11996236.13044  -9347695.45744  22895166.8894   22895168.1464
 -12737488.22344  -9925298.36544  22824529.4504   22824532.8154
 -23832060.38044 -18570408.50544  20722922.0804   20722924.1984
 -10670167.38344  -8314414.77044  23261401.3264   23261404.1924
 -26148946.24844 -20375794.42044  20338538.1244   20338539.9484
 96  4  2  0 43  0.0000000  0  7G20G 6G 4G16G24G 9G 5
 -18236156.44644 -14209983.82544  21702722.6324   21702725.1924
  -9314726.81244  -7258217.63544  23694396.6014   23694399.2154
 -11905071.43744  -9276658.04744  22912515.0414   22912516.5314
 -12824530.68144  -9993123.61344  22807965.6514   22807968.9054
 -23792730.83044 -18539762.10044  20730406.2924   20730408.5434
 -10581176.61144  -8245071.35444  23278335.8904   23278338.8014
 -26172524.71944 -20394167.26144  20334051.3624   20334053.1454
 96  4  2  0 43 30.0000000  0  7G20G 6G 4G16G24G 9G 5
 -18312195.25744 -14269234.83844  21688252.9954   21688255.8104
  -9382436.62444  -7310978.49544  23681511.7584   23681514.2534
 -11813757.57644  -9205504.40844  22929891.4564   22929892.9724
 -12911353.50744 -10060777.72744  22791443.8724   22791447.1514
 -23753002.64744 -18508805.07044  20737966.2984   20737968.5344
 -10492035.98244  -8175611.17544  23295298.9604   23295301.5404
 -26195585.69144 -20412136.85344  20329663.0184   20329664.7134
 96  4  2  0 44  0.0000000  0  7G20G 6G 4G16G24G 9G 5
 -18387884.72444 -14328213.63544  21673849.7934   21673852.5534
  -9450085.83144  -7363692.12644  23668638.7074   23668641.8964
 -11722282.67244  -9134225.27444  22947298.5644   22947299.9274
 -12997927.21144 -10128237.71644  22774969.4874   22774972.8224
 -23712877.56444 -18477538.77044  20745601.8844   20745604.0694
 -10402735.72044  -8106026.59944  23312292.2054   23312295.3414
 -26218136.89644 -20429709.22244  20325371.6224   20325373.4284
 96  4  2  0 44 30.0000000  0  7G20G 6G 4G16G24G 9G 5
 -18463245.03244 -14386935.94744  21659509.2194   21659511.7754
  -9517687.43944  -7416368.66744  23655774.5424   23655778.0884
 -11630651.70344  -9062824.53244  22964735.2804   22964736.3784
 -13084245.29644 -10195498.52244  22758543.6124   22758547.1594
 -23672364.07644 -18445969.81844  20753311.3204   20753313.7754
 -10313303.42544  -8036339.14344  23329310.5134   23329313.6654
 -26240206.66944 -20446906.44544  20321171.8564   20321173.7114
 96  4  2  0 45  0.0000000  0  7G20G 6G 4G16G24G 9G 5
 -18538284.63844 -14445408.35644  21645229.7214   21645232.4474
  -9585225.52344  -7468995.71944  23642922.5164   23642924.9774
 -11538842.98644  -8991285.29444  22982205.8664   22982207.3784
 -13170294.90244 -10262550.12344  22742168.8604   22742172.5974
 -23631450.77744 -18414089.32944  20761096.7634   20761099.1814
 -10223740.50944  -7966549.90644  23346353.5274   23346356.6054
 -26261794.57944 -20463728.19044  20317063.8104   20317065.7074
 96  4  2  0 45 30.0000000  0  7G20G 6G 4G16G24G 9G 5
 -18612812.58044 -14503482.06144  21631047.5284   21631049.7544
  -9652512.02944  -7521426.72344  23630118.2024   23630121.4514
 -11446665.67944  -8919458.83744  22999746.6564   22999747.7644
 -13255884.21944 -10329243.04844  22725881.8374   22725884.8874
 -23589942.39644 -18381745.13144  20768995.6704   20768997.6154
 -10133848.38144  -7896504.14444  23363459.6904   23363462.1864
 -26282715.07344 -20480029.87244  20313082.9164   20313084.4484
 96  4  2  0 46  0.0000000  0  7G20G 6G 4G16G24G 9G 5
 -18686976.71244 -14561272.28644  21616934.5304   21616936.7754
  -9719690.87444  -7573773.83744  23617334.2234   23617336.7984
 -11354259.68344  -8847454.17644  23017331.1064   23017332.5984
 -13341147.16444 -10395681.66944  22709656.7814   22709660.0734
 -23547974.83344 -18349043.13344  20776981.8284   20776983.7284
 -10043777.70344  -7826319.25044  23380599.5774   23380602.7264
 -26303116.50144 -20495927.09544  20309200.6574   20309202.0874
 96  4  2  0 46 30.0000000  0  7G20G 6G 4G16G24G 9G 5
 -18761151.94144 -14619071.15744  21602819.3574   21602821.8424
  -9787141.90544  -7626333.05444  23604498.7804   23604501.8704
 -11262012.30144  -8775573.11844  23034885.1924   23034886.6654
 -13426472.91844 -10462169.23244  22693419.7994   22693423.1354
 -23505917.56144 -18316271.23544  20784985.0274   20784987.2194
  -9953903.80744  -7756287.70044  23397702.2394   23397705.1614
 -26323351.24744 -20511694.43844  20305350.0754   20305351.7144
 96  4  2  0 47  0.0000000  0  7G20G 6G 4G16G24G 9G 5
 -18835490.42444 -14676997.24044  21588673.2264   21588675.8314
  -9855036.03244  -7679237.54844  23591579.0164   23591581.4444
 -11170124.94244  -8703972.59844  23052370.6424   23052372.3394
 -13512060.06044 -10528860.47544  22677133.0364   22677136.2584
 -23463967.63044 -18283582.98144  20792967.8754   20792970.2474
  -9864395.88244  -7686541.31544  23414734.9344   23414738.1234
 -26343578.90944 -20527456.26144  20301500.8094   20301502.4854
 96  4  2  0 47 30.0000000  0  7G20G 6G 4G16G24G 9G 5
 -18909255.10944 -14734476.20244  21574636.3504   21574638.7274
  -9922675.89144  -7731943.89144  23578707.5994   23578710.6754
 -11077911.23344  -8632117.76944  23069918.3404   23069920.0824
 -13597201.04044 -10595204.05544  22660931.2564   22660934.6164
 -23421431.99844 -18250438.33344  20801062.0864   20801064.4014
  -9774556.17044  -7616536.39544  23431830.9804   23431833.3614
 -26363084.47244 -20542655.40444  20297789.0424   20297790.7614
 96  4  2  0 48  0.0000000  0  7G20G 6G 4G16G24G 9G 5
 -18982553.12144 -14791591.52144  21560688.0704   21560690.6374
  -9990187.15644  -7784550.04444  23565860.6214   23565863.0014
 -10985475.35644  -8560089.83044  23087508.5524   23087509.6414
 -13682014.69244 -10661292.57944  22644791.7184   22644794.9284
 -23378423.57144 -18216925.27644  20809246.4774   20809248.6884
  -9684506.00244  -7546367.48444  23448967.1324   23448970.0084
 -26381976.63544 -20557376.57444  20294194.1044   20294195.7964
 96  4  2  0 48 30.0000000  0  7G 6G 4G16G20G24G 9G 5
 -10057510.32644  -7837009.62344  23553049.6374   23553052.7584
 -10892753.10144  -8487838.73344  23105153.0454   23105153.4514
 -13766446.43044 -10727083.51244  22628725.0524   22628728.1034
 -19055315.50844 -14848289.46944  21546842.0354   21546844.1374
 -23334889.47244 -18183002.59744  20817530.8164   20817532.6344
  -9594194.66644  -7475995.06544  23466152.9234   23466156.0894
 -26400187.25344 -20571566.66944  20290728.8514   20290730.1444
 96  4  2  0 49  0.0000000  0  7G20G 6G 4G16G24G 9G 5
 -19127563.43344 -14904586.54644  21533093.5244   21533095.8574
 -10124670.16944  -7889341.93144  23540269.3384   23540271.1694
 -10799761.45844  -8415377.73144  23122848.5244   23122849.7924
 -13850498.86444 -10792578.88044  22612730.3864   22612733.1404
 -23290861.44844 -18148695.04744  20825908.9904   20825911.0014
  -9503652.19644  -7405442.54144  23483382.3944   23483385.3574
 -26417757.10844 -20585257.47344  20287385.1854   20287386.8194
 96  4  2  0 49 30.0000000  0  7G20G 6G 4G16G24G 9G 5
 -19199978.42444 -14961013.80444  21519313.4134   21519315.8574
 -10192332.00744  -7942065.40644  23527393.8134   23527396.0884
 -10707156.91144  -8343218.36244  23140470.5464   23140472.3784
 -13934804.38344 -10858271.45944  22596687.4614   22596690.7294
 -23246986.64644 -18114506.88944  20834258.0924   20834260.1984
  -9413549.11644  -7335232.40244  23500528.3664   23500531.7354
 -26435357.01544 -20598971.69244  20284036.1454   20284037.8294
 96  4  2  0 50  0.0000000  0  7G20G 6G 4G16G24G 9G 5
 -19271856.33944 -15017022.56044  21505635.6124   21505637.9194
 -10259770.33944  -7994614.71744  23514560.5094   23514562.7144
 -10614214.92444  -8270796.04844  23158157.0244   23158158.6064
 -14018640.36944 -10923598.16644  22580733.9764   22580737.1114
 -23202541.52544 -18079874.32644  20842715.7294   20842717.7684
  -9323157.27744  -7264797.25244  23517729.3154   23517732.4964
 -26452261.23344 -20612143.81544  20280819.3934   20280820.9384
 96  4  2  0 50 30.0000000  0  7G20G 6G 4G16G24G 9G 5
 -19343301.64744 -15072694.21944  21492040.0384   21492042.5614
 -10327074.32644  -8047059.33744  23501753.0254   23501755.6174
 -10521067.79244  -8198213.88644  23175882.4484   23175884.0854
 -14102089.76444 -10988623.63444  22564854.2564   22564857.3264
 -23157645.29544 -18044890.24944  20851259.2624   20851261.2804
  -9232587.68344  -7194223.60044  23534964.1424   23534967.4044
 -26468572.08744 -20624853.57544  20277715.5504   20277717.1394
 96  4  2  0 51  0.0000000  0  7G20G 6G 4G16G24G 9G 5
 -19414389.84844 -15128087.61044  21478512.3054   21478514.6514
 -10394313.10544  -8099453.16444  23488957.8414   23488960.1084
 -10427819.01244  -8125552.51544  23193626.9554   23193628.4784
 -14185213.06544 -11053394.99544  22549036.0534   22549039.3204
 -23112368.18044 -18009609.37844  20859875.1154   20859877.2814
  -9141907.58644  -7123563.84144  23552220.1914   23552223.7044
 -26484360.68644 -20637156.38544  20274711.0734   20274712.6474
 96  4  2  0 51 30.0000000  0  7G20G 6G 4G16G24G 9G 5
 -19485153.12844 -15183227.81744  21465046.5424   21465048.9114
 -10461515.10644  -8151818.33544  23476169.7724   23476172.7884
 -10334507.68444  -8052842.41244  23211383.4934   23211385.3344
 -14268054.65644 -11117946.84844  22533271.9034   22533274.8034
 -23066733.85544 -17974050.16644  20868559.0344   20868561.1304
  -9051139.97644  -7052835.88344  23569492.9024   23569496.1034
 -26499648.31244 -20649068.82744  20271801.9284   20271803.5234
 96  4  2  0 52  0.0000000  0  7G 6G 4G16G20G24G 9G 5
 -10528643.86444  -8204126.41444  23463395.4884   23463397.8774
 -10241103.52244  -7980059.97044  23229157.6774   23229159.1814
 -14350597.32944 -11182265.77844  22517564.4394   22517567.9524
 -19555551.36444 -15238083.57744  21451650.2814   21451652.8174
 -23020726.57644 -17938200.34144  20877313.7724   20877316.0124
  -8960261.65244  -6982021.66544  23586786.7054   23586789.5964
 -26514424.09944 -20660582.43444  20268990.1704   20268991.7904
 96  4  2  0 52 30.0000000  0  7G20G 6G 4G16G24G 9G 5
 -19625572.86044 -15292645.77444  21438325.4924   21438327.8344
 -10595697.19144  -8256375.72844  23450635.5594   23450637.5664
 -10147618.95344  -7907214.86144  23246947.2664   23246948.5934
 -14432848.40244 -11246357.48444  22501912.5014   22501915.6334
 -22974355.99344 -17902067.41944  20886137.9514   20886139.9954
  -8869290.86244  -6911135.39044  23604097.7854   23604100.5464
 -26528706.69944 -20671711.73844  20266272.3244   20266273.9634
 96  4  2  0 53  0.0000000  0  7G 6G 4G16G20G24G 9G 5
 -10662691.14344  -8308578.77344  23437886.9054   23437889.0164
 -10054037.21144  -7834294.03744  23264755.3584   23264756.0684
 -14514840.91544 -11310247.72244  22486309.8964   22486313.2504
 -19695221.63244 -15346917.53844  21425071.7754   21425074.3764
 -22927625.70844 -17865654.21044  20895030.3564   20895032.5184
  -8778231.71944  -6840180.27544  23621425.7214   23621428.4264
 -26542504.89444 -20682463.58044  20263646.6944   20263648.3074
 96  4  2  0 53 30.0000000  0  7G20G 6G 4G16G24G 9G 5
 -19764477.71044 -15400883.30444  21411892.8384   21411895.2394
 -10729622.68144  -8360733.18344  23425150.3554   23425152.7174
  -9960325.72744  -7761272.12044  23282587.8614   23282589.3794
 -14596579.15344 -11373939.82044  22470755.7374   22470758.8954
 -22880547.17344 -17828969.63744  20903989.1274   20903991.2904
  -8687085.09444  -6769156.98344  23638770.3774   23638773.4554
 -26555826.57744 -20692844.11644  20261111.5924   20261113.2744
 96  4  2  0 54  0.0000000  0  7G20G 6G 4G16G24G 9G 5
 -19833325.98644 -15454531.30644  21398791.3624   21398793.8624
 -10796487.84944  -8412835.87444  23412426.2384   23412428.3904
  -9866473.13244  -7688140.25244  23300447.5424   23300448.6944
 -14678040.46044 -11437416.12944  22455254.1394   22455257.3124
 -22833116.91844 -17792011.00044  20913014.8264   20913016.9574
  -8595866.86544  -6698077.90844  23656128.8404   23656131.1204
 -26568651.03144 -20702837.20244  20258671.2054   20258672.8234
 96  4  2  0 54 30.0000000  0  7G20G 6G 4G16G24G 9G 5
 -19901816.81944 -15507900.77944  21385757.9624   21385760.3934
 -10863341.72744  -8464929.76944  23399704.2764   23399707.4064
  -9772527.79644  -7614936.11044  23318324.9054   23318326.1264
 -14759263.10444 -11500706.46044  22439797.8494   22439801.0284
 -22785364.50744 -17754801.33144  20922101.7264   20922103.9114
  -8504611.71044  -6626970.05144  23673494.0624   23673497.2194
 -26580991.15144 -20712452.88344  20256322.9384   20256324.5614
 96  4  2  0 55  0.0000000  0  7G20G 6G 4G16G24G 9G 5
 -19969957.34244 -15560997.28244  21372791.2814   21372793.6184
 -10930189.41944  -8517018.83544  23386983.7284   23386985.6264
  -9678477.96444  -7541650.54544  23336221.8104   23336223.8344
 -14840226.20444 -11563794.55944  22424390.8044   22424394.0164
 -22737276.04544 -17717329.80244  20931252.7434   20931254.7514
  -8413296.56544  -6555815.44944  23690870.5544   23690873.8954
 -26592827.30244 -20721675.86144  20254070.5214   20254072.2764
 96  4  2  0 55 30.0000000  0  7G16G 6G 4G20G24G 9G 5
 -14920907.68844 -11626663.21444  22409037.6544   22409040.8784
 -10997041.29044  -8569111.15944  23374262.0934   23374264.6874
  -9584341.40844  -7468297.40244  23354135.2704   23354136.4804
 -20037761.57644 -15613831.74844  21359888.6174   21359890.9644
 -22688861.07944 -17679603.85544  20940465.8094   20940468.0094
  -8321939.67744  -6484628.32344  23708255.3814   23708257.8384
 -26604156.03044 -20730503.44544  20251914.6914   20251916.4364
 96  4  2  0 56  0.0000000  0  7G 6G 4G16G20G24G 9G 5
 -11063885.18144  -8621197.26444  23361542.2454   23361544.5924
  -9490116.00444  -7394875.02244  23372065.9314   23372067.8794
 -15001277.75144 -11689289.20544  22393743.7684   22393747.0144
 -20105229.09244 -15666403.83044  21347049.7874   21347052.4174
 -22640087.65644 -17641598.58944  20949747.0434   20949749.1584
  -8230531.67244  -6413401.36044  23725649.7014   23725652.9354
 -26614950.02444 -20738914.35644  20249860.7784   20249862.4364
 96  4  2  0 56 30.0000000  0  7G 6G 4G16G20G24G 9G 5
 -11130742.84944  -8673293.97044  23348819.6364   23348822.1754
  -9395819.35244  -7321397.12844  23390009.9074   23390011.6664
 -15081358.12244 -11751689.45944  22378504.9474   22378508.2244
 -20172369.57644 -15718721.08244  21334273.3354   21334275.9554
 -22590973.14044 -17603327.53744  20959093.2464   20959095.4074
  -8139079.36244  -6342139.87744  23743052.5654   23743055.8854
 -26625235.67244 -20746929.15044  20247903.4224   20247905.1114
 96  4  2  0 57  0.0000000  0  7G 6G 4G16G20G24G 9G 5
 -11197597.34644  -8725388.60044  23336097.4634   23336099.7074
  -9301441.64244  -7247856.06544  23407969.2904   23407970.3794
 -15161131.30944 -11813850.34844  22363324.4934   22363327.6984
 -20239162.17244 -15770767.25544  21321563.1654   21321565.7654
 -22541534.94444 -17564804.26844  20968500.9274   20968503.2094
  -8047594.20444  -6270852.80544  23760461.7684   23760465.2754
 -26635013.85844 -20754548.52044  20246042.6994   20246044.4474
 96  4  2  0 57 30.0000000  0  7G 6G 4G16G20G24G 9G 5
 -11264405.14544  -8777446.53044  23323384.4584   23323387.0494
  -9206956.51544  -7174231.30444  23425949.4994   23425950.9114
 -15240570.77144 -11875751.19644  22348207.7654   22348211.2364
 -20305560.04744 -15822505.85444  21308928.1254   21308930.5544
 -22491748.65344 -17526009.75544  20977975.0424   20977977.2534
  -7956069.17944  -6199534.66744  23777878.3764   23777881.7484
 -26644256.91044 -20761750.90344  20244283.7674   20244285.4784
 96  4  2  0 58  0.0000000  0  7G 6G 4G16G20G24G 9G 5
 -11331151.02244  -8829456.26644  23310682.9374   23310685.6494
  -9112368.45244  -7100526.33544  23443948.9644   23443950.1254
 -15319692.96744 -11937404.82544  22333151.3114   22333154.7964
 -20371535.26344 -15873915.10144  21296373.3624   21296375.8854
 -22441609.12344 -17486939.99144  20987516.1404   20987518.4184
  -7864498.98344  -6128181.33044  23795303.7974   23795307.0044
 -26652965.09244 -20768536.50444  20242626.7004   20242628.3484
 96  4  2  0 58 30.0000000  0  7G 6G 4G16G20G24G 9G 5
 -11397833.25644  -8881416.40144  23297993.7114   23297996.3954
  -9017694.43444  -7026754.38244  23461964.6984   23461966.1724
 -15398522.22544 -11998830.19244  22318150.7994   22318153.8804
 -20437083.20844 -15924991.41644  21283900.0684   21283902.5364
 -22391150.74844 -17447621.77744  20997118.0904   20997120.4814
  -7772882.28044  -6056791.76144  23812737.8494   23812741.2814
 -26661141.46844 -20774907.71144  20241070.8274   20241072.4284
 96  4  2  0 59  0.0000000  0  7G 6G 4G16G20G24G 9G 5
 -11464421.66844  -8933303.44144  23285322.4494   23285325.4944
  -8922928.06044  -6952910.46144  23479998.1884   23479999.6334
 -15477039.40344 -12060012.37144  22303209.2554   22303212.5924
 -20502190.84444 -15975724.63044  21271510.4634   21271512.9774
 -22340363.02044 -17408046.92644  21006782.6654   21006785.0534
  -7681205.49244  -5985355.35444  23830183.2464   23830186.4974
 -26668771.68344 -20780853.34144  20239618.8354   20239620.4904
 96  4  2  0 59 30.0000000  0  7G 6G 4G16G20G24G 9G 5
 -11530934.15444  -8985131.32544  23272665.5894   23272668.1714
  -8828082.29044  -6879004.69144  23498046.8254   23498048.3034
 -15555266.73344 -12120968.69944  22288323.0754   22288326.2264
 -20566863.04144 -16026118.54344  21259203.7884   21259206.4364
 -22289246.25844 -17368215.68544  21016510.0104   21016512.1684
  -7589471.36944  -5913874.30344  23847639.7294   23847643.2314
 -26675869.42944 -20786384.06044  20238268.1674   20238269.8724
 96  4  2  1  0  0.0000000  0  7G 6G 4G16G20G24G 9G 5
 -11597394.43644  -9036918.52744  23260018.5604   23260020.9184
  -8733173.88744  -6805050.09444  23516107.2754   23516109.9864
 -15633212.24444 -12181705.42344  22273490.4974   22273493.5874
 -20631116.11744 -16076185.86644  21246976.7514   21246979.3264
 -22237813.46544 -17328138.18344  21026297.2364   21026299.4194
  -7497675.76244  -5842345.32844  23865107.7784   23865111.0874
 -26682452.03944 -20791513.37944  20237015.5144   20237017.2774
 96  4  2  1  0 30.0000000  0  7G 6G 4G16G20G24G 9G 5
 -11663814.57844  -9088674.46344  23247379.3564   23247381.7284
  -8638198.44944  -6731043.28644  23534180.4794   23534181.6404
 -15710840.15644 -12242194.67144  22258718.4494   22258721.5964
 -20694967.57044 -16125940.23644  21234826.2764   21234829.0604
 -22186060.60544 -17287811.27944  21036145.4454   21036147.7404
  -7405809.83544  -5770761.54444  23882589.2724   23882592.2904
 -26688524.08444 -20796244.85344  20235860.0264   20235861.8014
 96  4  2  1  1  0.0000000  0  7G 6G 4G16G20G24G 9G 5
 -11730210.95344  -9140411.87144  23234744.2484   23234747.3404
  -8543160.55344  -6656987.79444  23552265.4674   23552267.9884
 -15788128.40644 -12302419.24644  22244010.7264   22244014.0754
 -20758428.27944 -16175390.12844  21222750.0624   21222752.7994
 -22133978.92144 -17247228.14944  21046056.2884   21046058.6244
  -7313899.92644  -5699143.50544  23900079.3424   23900082.5374
 -26694109.06944 -20800596.79844  20234797.2654   20234799.1124
 96  4  2  1  1 30.0000000  0  7G 6G 4G16G20G24G 9G 5
 -11796600.03144  -9192143.60044  23222110.9204   23222114.0884
  -8448066.05144  -6582888.19644  23570361.4684   23570362.7774
 -15865070.86044 -12362374.37644  22229369.1234   22229372.1734
 -20821512.34444 -16224546.53444  21210745.5774   21210748.2944
 -22081585.74544 -17206402.29944  21056026.3094   21056028.5994
  -7221959.14044  -5627501.40544  23917575.2264   23917578.5224
 -26699213.45044 -20804574.24944  20233825.9544   20233827.7024
 96  4  2  1  2  0.0000000  0  7G 6G 4G16G20G24G 9G 5
 -11862966.73644  -9243857.88444  23209481.6484   23209484.2424
  -8352921.67444  -6508749.73344  23588467.0704   23588469.0724
 -15941631.69144 -12422032.13844  22214799.9874   22214803.1144
 -20884215.53844 -16273406.16044  21198813.5204   21198815.9554
 -22028874.40744 -17165328.53244  21066057.0614   21066059.3104
  -7129978.50644  -5555828.25844  23935078.4604   23935081.6894
 -26703820.41444 -20808164.10444  20232949.3094   20232951.1244
 96  4  2  1  2 30.0000000  0  7G 6G 4G16G20G24G 9G 5
 -11929308.33044  -9295552.60544  23196857.2254   23196859.6794
  -8257739.13844  -6434581.54144  23606579.6534   23606580.7324
 -16017812.06844 -12481393.43844  22200303.4694   22200306.5594
 -20946546.75544 -16321975.93544  21186952.3664   21186954.6864
 -21975862.62944 -17124020.65444  21076144.8194   21076147.1074
  -7037989.75344  -5484148.78744  23952583.6214   23952587.9084
 -26707929.37344 -20811365.90044  20232167.4354   20232169.2194
 96  4  2  1  3  0.0000000  0  7G 6G 4G16G20G24G 9G 5
 -11995599.00844  -9347207.65444  23184242.4704   23184245.4714
  -8162493.36144  -6360364.06644  23624704.1624   23624705.8464
 -16093615.91244 -12540461.34544  22185878.3374   22185881.5704
 -21008474.57744 -16370231.37144  21175167.9634   21175170.4004
 -21922551.18144 -17082479.26744  21086289.6344   21086291.8704
  -6945998.62244  -5412467.44644  23970088.6704   23970092.8254
 -26711516.48644 -20814161.06044  20231484.8354   20231486.6014
 96  4  2  1  3 30.0000000  0  7G 6G 4G16G20G24G 9G 5
 -12061847.44644  -9398829.78944  23171635.7244   23171638.3004
  -8067191.46244  -6286102.87344  23642839.5534   23642841.2824
 -16169075.24644 -12599260.79544  22171518.9274   22171522.3514
 -21070011.51544 -16418182.22744  21163457.7384   21163460.2024
 -21868959.14044 -17040719.23944  21096487.8464   21096490.0544
  -6854014.95544  -5340791.93944  23987592.7224   23987595.7824
 -26714565.52744 -20816536.94544  20230904.6254   20230906.3804
 96  4  2  1  4  0.0000000  0  7G 6G 4G16G20G24G 9G 5
 -12128071.25744  -9450432.72544  23159033.7054   23159036.4774
  -7971839.81744  -6211802.91444  23660984.3084   23660986.7024
 -16244222.68744 -12657817.21544  22157218.7784   22157221.9524
 -21131162.19244 -16465832.10344  21151821.0694   21151823.4204
 -21815090.23844 -16998743.47244  21106738.8004   21106741.0464
  -6762061.27344  -5269139.77844  24005090.9714   24005094.6744
 -26717081.38444 -20818497.36044  20230425.8874   20230427.7264
 96  4  2  1  4 30.0000000  0  7G 6G 4G16G20G24G 9G 5
 -12194264.18244  -9502011.60244  23146437.7244   23146440.7064
  -7876408.99044  -6137441.24044  23679144.3834   23679145.9604
 -16319070.54644 -12716140.19744  22142975.8404   22142979.0174
 -21191923.09144 -16513178.25244  21140258.7004   21140261.1354
 -21760946.46044 -16956553.51644  21117041.9844   21117044.1354
  -6670151.27344  -5197521.67044  24022581.0344   24022586.4324
 -26719062.70244 -20820041.24844  20230048.8654   20230050.7324
 96  4  2  1  5  0.0000000  0  7G 6G 4G16G20G24G 9G 5
 -12260443.57244  -9553579.93744  23133844.1884   23133846.6534
  -7780906.10044  -6063023.40944  23697317.9824   23697320.1244
 -16393634.05544 -12774241.60344  22128786.8184   22128790.0324
 -21252297.63444 -16560223.34644  21128769.8904   21128772.4324
 -21706533.27744 -16914153.63144  21127396.4964   21127398.7744
  -6578276.23144  -5125930.79744  24040064.4184   24040068.1874
 -26720513.21544 -20821171.52244  20229772.8294   20229774.6044
 96  4  2  1  5 30.0000000  0  7G 6G 4G16G20G24G 9G 5
 -12326579.80544  -9605114.63944  23121258.7434   23121261.0134
  -7685321.91744  -5988542.22844  23715506.8234   23715509.0454
 -16467869.78944 -12832087.60244  22114660.3024   22114663.4474
 -21312245.37844 -16606935.87144  21117362.1704   21117364.5344
 -21651796.41544 -16871501.53144  21137812.6124   21137814.7744
  -6486381.55944  -5054324.61844  24057551.4364   24057554.3894
 -26721397.76244 -20821860.78444  20229604.5014   20229606.3314
 96  4  2  1  6  0.0000000  0  7G 6G 4G16G20G24G 9G 5
 -12392677.63144  -9656619.41444  23108681.0094   23108683.4364
  -7589675.57444  -5914012.65144  23733707.8014   23733708.7434
 -16541764.78144 -12889668.08544  22100598.3414   22100601.5744
 -21371749.24944 -16653302.52244  21106038.9184   21106041.6894
 -21596734.60044 -16828596.22244  21148290.3364   21148292.7124
  -6394466.37544  -4982702.47244  24075042.1204   24075046.3614
 -26721738.30644 -20822126.14944  20229539.7264   20229541.5264
 96  4  2  1  6 30.0000000  0  7G 6G 4G16G20G24G 9G 5
 -12458755.78144  -9708108.85644  23096106.5444   23096108.7754
  -7494014.80044  -5839471.81044  23751911.6824   23751913.3374
 -16615324.95644 -12946987.66944  22086600.3584   22086603.4934
 -21430828.88644 -16699338.59844  21094796.4014   21094798.9594
 -21541381.55444 -16785463.97844  21158823.8794   21158826.1304
  -6302551.81444  -4911080.80944  24092532.9824   24092537.1314
 -26721569.02044 -20821994.24544  20229571.8724   20229573.6344
 96  4  2  1  7  0.0000000  0  7G 6G 4G16G20G24G 9G 5
 -12524807.11744  -9759577.40044  23083537.3984   23083539.6994
  -7398356.55344  -5764932.93244  23770114.8004   23770116.4644
 -16688528.30044 -13004029.20744  22072670.1264   22072673.2684
 -21489453.47644 -16745020.09444  21083640.5054   21083643.1634
 -21485721.98644 -16742092.88744  21169415.3464   21169417.7774
  -6210618.53944  -4839444.57244  24110027.4824   24110031.6644
 -26720880.13844 -20821457.46244  20229702.9654   20229704.7644
 96  4  2  1  7 30.0000000  0  7G 6G 4G16G20G24G 9G 5
 -12590812.56444  -9811010.18244  23070977.0434   23070979.7464
  -7302671.74044  -5690373.35044  23788322.8834   23788325.2284
 -16761342.57744 -13060767.57244  22058813.9774   22058817.1794
 -21547599.34944 -16790328.56344  21072575.8734   21072578.4304
 -21429739.64444 -16698470.28644  21180068.5184   21180070.8494
  -6118670.20844  -4767796.59444  24127524.7574   24127526.9614
 -26719652.72844 -20820501.04744  20229936.5444   20229938.2824
 96  4  2  1  8  0.0000000  0  7G 6G 4G16G20G24G 9G 5
 -12656745.20044  -9862386.23244  23058430.4694   23058433.3224
  -7206918.44744  -5615760.41244  23806544.2034   23806545.8504
 -16833737.79244 -13117179.39844  22045037.4414   22045040.6124
 -21605252.34044 -16835252.96444  21061604.7294   21061607.3484
 -21373437.66344 -16654598.61344  21190782.4374   21190784.7604
  -6026709.67844  -4696139.11044  24145024.2034   24145027.4284
 -26717865.21244 -20819108.18744  20230276.7104   20230278.4564
 96  4  2  1  8 30.0000000  0  7G 6G 4G16G20G24G 9G 5
 -12722631.32244  -9913726.04144  23045892.5824   23045895.5614
  -7111118.85544  -5541111.39544  23824774.3704   23824776.7174
 -16905746.64744 -13173290.16444  22031334.6814   22031337.7944
 -21662453.58444 -16879825.35544  21050719.7694   21050722.3384
 -21316862.90144 -16610514.38344  21201548.2674   21201550.5814
  -5934780.05144  -4624505.71044  24162517.7684   24162521.2914
 -26715551.13844 -20817305.01944  20230717.0414   20230718.7984
 96  4  2  1  9  0.0000000  0  7G 6G 4G16G20G24G 9G 5
 -12788456.64344  -9965018.47244  23033366.4134   23033369.0704
  -7015235.57744  -5466397.17344  23843020.3764   23843022.6304
 -16977346.62544 -13229082.33044  22017709.6904   22017712.8574
 -21719185.75544 -16924032.23444  21039924.0314   21039926.4164
 -21259995.11144 -16566201.81844  21212369.8324   21212372.0944
  -5842868.22444  -4552886.17744  24180008.2814   24180011.3784
 -26712680.83844 -20815068.42844  20231263.3794   20231265.2374
 96  4  2  1  9 30.0000000  0  7G 6G 4G16G20G24G 9G 5
 -12854213.51344 -10016257.56744  23020853.1814   23020856.0124
  -6919257.86144  -5391609.36444  23861284.1954   23861286.1844
 -17048536.08544 -13284554.60644  22004162.8464   22004165.9244
 -21775471.02144 -16967890.87844  21029213.1554   21029215.5634
 -21202833.48144 -16521660.29344  21223247.3994   21223249.7044
  -5750969.61844  -4481276.95044  24197495.8314   24197499.0304
 -26709251.64544 -20812396.33844  20231915.8404   20231917.6124
 96  4  2  1 10  0.0000000  0  7G 6G 4G16G20G24G 9G 5
 -12919929.46144 -10067464.78044  23008347.8914   23008350.8134
  -6823246.64744  -5316795.44744  23879554.5254   23879555.3954
 -17119361.49844 -13339743.21444  21990684.9694   21990688.1514
 -21831348.61544 -17011431.85344  21018579.9934   21018582.5934
 -21145417.31844 -16476920.42844  21234173.1704   21234175.4074
  -5659110.36344  -4409698.40044  24214976.2034   24214979.5094
 -26705309.78944 -20809324.77144  20232665.9844   20232667.8014
 96  4  2  1 10 30.0000000  0  7G 6G 4G16G20G24G 9G 5
 -12985620.12744 -10118652.29644  22995847.6064   22995850.1664
  -6727218.58644  -5241968.40444  23897828.3284   23897829.8294
 -17189835.20444 -13394657.76044  21977274.5714   21977277.7584
 -21886830.68644 -17054664.63344  21008022.2214   21008024.6254
 -21087744.42944 -16431980.51944  21245147.9694   21245150.1274
  -5567280.79044  -4338142.95244  24232451.0324   24232453.2224
 -26700864.72644 -20805861.09744  20233511.8154   20233513.6474
 96  4  2  1 11  0.0000000  0  7G 6G 4G16G20G24G 9G 5
 -13051256.26144 -10169797.31344  22983357.2714   22983360.2444
  -6631141.11844  -5167102.85144  23916111.0814   23916112.6824
 -17259915.81244 -13449265.99944  21963938.4124   21963941.6204
 -21941881.42344 -17097561.30644  20997546.3304   20997548.7274
 -21029770.55744 -16386806.07944  21256180.1854   21256182.3284
  -5475436.65244  -4266576.18044  24249928.4844   24249932.9614
 -26695867.36944 -20801967.06344  20234462.8634   20234464.6794
 96  4  2  1 11 30.0000000  0  7G 6G 4G16G20G24G 9G 5
 -13116808.58044 -10220877.02144  22970883.0224   22970885.2724
  -6535000.55544  -5092188.15144  23934406.0394   23934407.7594
 -17329569.29244 -13503541.40844  21950683.9224   21950687.0324
 -21996466.64844 -17140095.24544  20987159.0724   20987161.3824
 -20971470.44944 -16341377.42644  21267274.4104   21267276.6214
  -5383545.21744  -4194972.55144  24267414.7644   24267418.5344
 -26690292.65244 -20797623.13944  20235523.7134   20235525.5914
 96  4  2  1 12  0.0000000  0  7G 6G 4G16G20G24G 9G 5
 -13182358.74444 -10271955.05344  22958409.2224   22958412.0664
  -6438861.28244  -5017274.44644  23952700.8334   23952702.2984
 -17398858.31544 -13557532.82344  21937498.6084   21937501.7794
 -22050633.42544 -17182303.12044  20976851.6114   20976854.1104
 -20912920.67044 -16295754.22144  21278415.8334   21278417.9804
  -5291676.16944  -4123386.36744  24284896.8724   24284901.1114
 -26684195.39444 -20792872.03844  20236683.9204   20236685.7724
 96  4  2  1 12 30.0000000  0  7G 6G 4G16G20G24G 9G 5
 -13247914.95544 -10323037.78744  22945934.3814   22945936.7234
  -6342710.65544  -4942351.89344  23970997.7894   23971000.1624
 -17467763.82444 -13611225.39944  21924386.2454   21924389.3824
 -22104371.78044 -17224177.16044  20966625.5124   20966627.9604
 -20854122.09744 -16249937.15344  21289605.0454   21289607.2694
  -5199836.70144  -4051823.21044  24302373.4934   24302378.1544
 -26677563.90344 -20787704.65144  20237945.8894   20237947.6234
 96  4  2  1 13  0.0000000  0  7G 6G 4G16G20G24G 9G 5
 -13313489.82344 -10374135.06144  22933455.9004   22933458.0994
  -6246582.03644  -4867446.48744  23989290.3354   23989292.1924
 -17536304.98944 -13664634.07044  21911343.4034   21911346.5684
 -22157693.44944 -17265726.51144  20956478.6174   20956481.2704
 -20795102.70744 -16203948.01844  21300835.9124   21300838.2574
  -5108070.18744  -3980316.92244  24319836.1174   24319839.3184
 -26670416.24544 -20782135.05744  20239306.1074   20239307.8694
 96  4  2  1 13 30.0000000  0  7G 6G 4G16G20G24G 9G 5
 -13379026.69944 -10425202.73444  22920984.5104   22920986.2554
  -6150431.27644  -4792523.84744  24007587.2454   24007589.3724
 -17604435.33544 -13717722.62244  21898378.6064   21898381.6894
 -22210552.12044 -17306915.08144  20946419.9264   20946422.3894
 -20735818.93844 -16157752.87644  21312117.2454   21312119.4174
  -5016341.73044  -3908840.29144  24337291.5134   24337295.7114
 -26662711.34144 -20776131.24944  20240772.1964   20240773.9814
 96  4  2  1 14  0.0000000  0  7G 6G 4G16G20G24G 9G 5
 -13444488.07344 -10476211.57844  22908527.6684   22908530.3064
  -6054227.40244  -4717559.81244  24025894.2014   24025894.8034
 -17672129.38044 -13770471.20044  21885496.7894   21885499.9444
 -22262913.12944 -17347715.86444  20936456.0954   20936458.6854
 -20676248.33844 -16111334.22344  21323453.1534   21323455.2864
  -4924636.17244  -3837381.50544  24354742.6724   24354746.3354
 -26654426.60344 -20769675.62244  20242348.8464   20242350.6544
 96  4  2  1 14 30.0000000  0  7G 6G 4G16G20G24G 9G 5
 -13509881.99244 -10527167.86644  22896083.6184   22896086.2794
  -5958007.53244  -4642583.30144  24044204.1124   24044206.5504
 -17739405.29244 -13822893.95844  21872694.7564   21872697.7314
 -22314795.98444 -17388144.05644  20926583.0124   20926585.5324
 -20616407.38244 -16064704.90444  21334840.5394   21334842.8794
  -4832999.51844  -3765976.40644  24372180.4944   24372184.7484
 -26645601.53844 -20762798.96144  20244028.1794   20244029.9334
 96  4  2  1 15  0.0000000  0  7G 6G 4G16G20G24G 9G 5
 -13575209.55044 -10578072.43044  22883651.9604   22883654.4954
  -5861788.84144  -4567607.71344  24062513.9874   24062515.7824
 -17806271.11244 -13874997.16844  21859970.4364   21859973.5484
 -22366207.03844 -17428204.61144  20916799.8534   20916802.4854
 -20556298.17944 -16017866.56644  21346278.9144   21346281.1954
  -4741443.15844  -3694633.86644  24389603.4464   24389609.6034
 -26636250.56044 -20755512.49444  20245807.7044   20245809.4674
 96  4  2  1 15 30.0000000  0  7G 6G 4G16G20G24G 9G 5
 -13640468.73244 -10628923.70644  22871233.7004   22871236.2324
  -5765552.10044  -4492618.08344  24080827.2554   24080829.0564
 -17872709.87244 -13926767.60144  21847327.5124   21847330.5914
 -22417124.33444 -17467880.42244  20907110.5694   20907113.0424
 -20495914.20244 -15970814.11644  21357769.6284   21357771.7804
  -4649950.75444  -3623341.18144  24407013.7504   24407019.3844
 -26626358.44944 -20747804.35944  20247689.9484   20247691.8004
 96  4  2  1 16  0.0000000  0  7G 6G 4G16G20G24G 9G 5
 -13705670.96844 -10679730.61744  22858826.0184   22858828.3574
  -5669291.15844  -4417609.56144  24099145.1464   24099147.8554
 -17938712.86844 -13978198.47744  21834767.5424   21834770.7124
 -22467539.39444 -17507164.88444  20897516.8934   20897519.3094
 -20435259.67344 -15923550.84844  21369311.8714   21369314.2074
  -4558529.41444  -3552103.88844  24424410.6674   24424414.0284
 -26615924.25344 -20739673.82144  20249675.5934   20249677.4494
 96  4  2  1 16 30.0000000  0  7G 6G 4G16G20G24G 9G 5
 -13770826.16044 -10730500.85144  22846427.4354   22846429.7134
  -5573016.40244  -4342590.30944  24117465.5654   24117467.3504
 -18004290.34444 -14029297.78244  21822288.5594   21822291.6954
 -22517473.03044 -17546074.20944  20888014.8204   20888017.3374
 -20374340.66644 -15876081.49444  21380904.2994   21380906.6654
  -4467183.40344  -3480925.25744  24441793.2554   24441797.4294
 -26604946.43344 -20731119.68044  20251764.5714   20251766.4334
 96  4  2  1 17  0.0000000  0  7G 6G 4G16G20G24G 9G 5
 -13835937.03444 -10781236.65244  22834037.2174   22834039.7494
  -5476711.04144  -4267547.17644  24135791.7724   24135793.1024
 -18069443.35144 -14080066.31944  21809890.4424   21809893.3864
 -22566927.38544 -17584610.06944  20878604.1124   20878606.6234
 -20313166.42044 -15828413.25244  21392545.3684   21392547.6674
  -4375886.09744  -3409784.57044  24459166.5144   24459170.9064
 -26593417.82744 -20722136.35544  20253958.4664   20253960.2384
 96  4  2  1 17 30.0000000  0  7G 6G 4G16G20G24G 9G 5
 -13900992.03744 -10831928.79244  22821657.5944   22821660.2974
  -5380353.50744  -4192463.38044  24154127.9364   24154129.4374
 -18134165.11944 -14130498.84544  21797574.1534   21797577.2134
 -22615891.97444 -17622764.29044  20869286.4814   20869288.8244
 -20251740.38144 -15780548.80744  21404234.3254   21404236.7654
  -4284624.52244  -3338671.77944  24476532.9024   24476539.7554
 -26581322.51744 -20712711.44444  20256260.1834   20256261.9774
 96  4  2  1 18  0.0000000  0  7G 6G 4G16G20G24G 9G 5
 -13965995.76944 -10882581.01544  22809287.9904   22809290.6524
  -5283972.02244  -4117360.94244  24172468.9264   24172469.8014
 -18198483.94544 -14180617.37944  21785334.8584   21785337.5114
 -22664400.57044 -17660563.19044  20860055.6544   20860058.0004
 -20190081.05244 -15732502.57644  21415967.7604   21415969.9024
  -4193411.88044  -3267597.07944  24493890.6204   24493895.5644
 -26568685.34444 -20702864.30144  20258664.9734   20258666.5604
 96  4  2  1 18 30.0000000  0  7G 6G 4G16G20G24G 9G 5
 -14030626.94544 -10932942.93644  22796989.1334   22796990.6344
  -5187264.54744  -4042004.47444  24190871.8634   24190873.3514
 -18262091.07044 -14230181.33344  21773230.7434   21773233.2024
 -22712132.46444 -17697756.86844  20850972.5634   20850974.6124
 -20127872.47944 -15684028.36344  21427805.5684   21427807.5274
  -4101911.61044  -3196298.28944  24511302.5434   24511306.0294
 -26555191.11044 -20692349.32244  20261232.9284   20261234.2124
 96  4  2  1 19  0.0000000  0  7G 6G 4G16G20G24G 9G 5
 -14095209.72144 -10983267.15144  22784699.4924   22784701.8984
  -5090545.20044  -3966638.77444  24209276.8684   24209277.9524
 -18325298.68844 -14279433.98744  21761202.6194   21761205.6164
 -22759387.26344 -17734578.78944  20841980.1934   20841981.9884
 -20065430.95044 -15635372.63144  21439687.9624   21439689.8894
  -4010442.72044  -3125023.92544  24528708.6304   24528714.4764
 -26541156.08044 -20681412.94644  20263903.6714   20263905.0294
 96  4  2  1 19 30.0000000  0  7G 6G 4G16G20G24G 9G 5
 -14160142.70744 -11033864.26744  22772342.8634   22772344.7294
  -4994221.58644  -3891581.42144  24227606.5114   24227608.3064
 -18388487.79144 -14328672.22344  21749178.0994   21749181.1514
 -22806563.90744 -17771339.81444  20833002.6804   20833005.2394
 -20003150.16844 -15586842.16044  21451539.5624   21451541.7704
  -3919412.76244  -3054091.61244  24546030.9764   24546033.4114
 -26526962.68244 -20670353.17444  20266604.4954   20266606.2254
 96  4  2  1 20  0.0000000  0  7G 6G 4G16G20G24G 9G 5
 -14225407.91644 -11084720.25244  22759923.3174   22759925.6774
  -4898269.35444  -3816813.46444  24245865.6524   24245867.8094
 -18451613.46244 -14377861.02544  21737165.4974   21737168.6544
 -22853627.71344 -17808012.91044  20824046.7444   20824049.3894
 -19940981.21644 -15538398.82444  21463369.7014   21463371.9004
  -3828791.20844  -2983477.51544  24563275.8384   24563279.3424
 -26512582.10644 -20659147.54644  20269340.9494   20269342.7724
 96  4  2  1 20 30.0000000  0  7G 6G 4G16G20G24G 9G 5
 -14290408.18844 -11135369.79844  22747554.2614   22747556.5674
  -4802062.60844  -3741847.17744  24264173.3554   24264176.1784
 -18514044.84044 -14426508.81944  21725285.1374   21725288.3014
 -22899946.77144 -17844105.68144  20815232.5864   20815235.1144
 -19878308.81544 -15489563.18944  21475295.9474   21475298.1464
  -3737976.99044  -2912713.27844  24580557.1134   24580561.8354
 -26497395.05344 -20647313.49144  20272231.0084   20272232.9424
 96  4  2  1 21  0.0000000  0  7G 6G 4G16G20G24G 9G 5
 -14355300.86244 -11185935.49844  22735205.6134   22735207.6614
  -4705762.29944  -3666807.97244  24282498.7424   24282499.2444
 -18575922.13344 -14474724.86244  21713510.2144   21713513.3884
 -22945682.28744 -17879743.74644  20806529.3014   20806531.9204
 -19815303.18544 -15440467.89544  21487285.6024   21487287.8784
  -3647160.09644  -2841946.96244  24597839.0934   24597843.7134
 -26481561.78044 -20634975.89244  20275243.9134   20275245.8424
 96  4  2  1 21 30.0000000  0  7G 6G 4G16G20G24G 9G 5
 -14420125.08044 -11236447.85644  22722869.9334   22722872.6074
  -4609426.71044  -3591741.29744  24300830.6574   24300832.8214
 -18637282.09244 -14522537.78644  21701833.8414   21701837.0194
 -22990883.84444 -17914965.73644  20797927.8044   20797930.2084
 -19752014.93144 -15391152.37644  21499328.9804   21499331.2464
  -3556389.02944  -2771216.39244  24615112.4834   24615119.0604
 -26465142.84244 -20622181.93044  20278368.3984   20278370.2554
 96  4  2  1 22  0.0000000  0  7G 6G 4G16G20G24G 9G 5
 -14484900.29144 -11286922.02044  22710543.5194   22710545.7114
  -4513087.33144  -3516671.65744  24319163.4494   24319164.8414
 -18698174.78944 -14569986.61444  21690246.2904   21690249.4764
 -23035565.23244 -17949782.40444  20789425.1294   20789427.6654
 -19688477.98844 -15341643.07344  21511419.6024   21511421.8304
  -3465702.74944  -2700551.91444  24632369.5634   24632373.6804
 -26448187.82444 -20608970.24344  20281594.8444   20281596.6564
 96  4  2  1 22 30.0000000  0  8G 6G 4G16G20G24G 9G 5G17
 -14549586.57944 -11337326.90544  22698234.1024   22698236.4864
  -4416739.73744  -3441595.61544  24337497.9104   24337499.2424
 -18758584.52044 -14617059.10244  21678750.6944   21678753.7334
 -23079704.45044 -17984176.59744  20781025.6944   20781028.2744
 -19624702.64544 -15291948.00044  21523555.5934   21523557.7904
  -3375099.46344  -2629952.01944  24649611.0674   24649617.5574
 -26430684.49044 -20595331.29444  20284925.6344   20284927.3874
        -0.69454                  25561820.7544
 96  4  2  1 23  0.0000000  0  8G 6G 4G16G20G24G 9G 5G17
 -14614193.22344 -11387669.72644  22685939.9414   22685942.3934
  -4320420.10344  -3366541.36444  24355826.9094   24355829.7584
 -18818529.31944 -14663769.30444  21667343.5604   21667346.6144
 -23123328.77544 -18018169.57444  20772724.3864   20772726.8124
 -19560708.82644 -15242082.69044  21535733.3334   21535735.4564
  -3284594.15744  -2559428.54744  24666833.4694   24666836.3284
 -26412663.11444 -20581288.67644  20288354.9694   20288356.7134
    -98640.11144                  25543049.7584
 96  4  2  1 23 30.0000000  0  8G 6G 4G16G20G24G 9G 5G17
 -14678733.81544 -11437961.07844  22673658.2984   22673660.7034
  -4224131.31144  -3291511.14244  24374149.9704   24374152.7944
 -18878042.25444 -14710142.98644  21656018.5824   21656021.7574
 -23166458.30244 -18051776.99444  20764517.0534   20764519.4114
 -19496510.18944 -15192057.78544  21547949.7494   21547952.0654
  -3194191.00744  -2488984.62344  24684036.7234   24684042.0034
 -26394130.09744 -20566847.37544  20291881.7354   20291883.4724
   -197207.57844                  25524292.8784
 96  4  2  1 24  0.0000000  0  8G 6G 4G16G20G24G 9G 5G17
 -14743188.05044 -11488185.13544  22661393.0174   22661395.4424
  -4127844.53344  -3216482.48244  24392472.8414   24392474.4644
 -18937111.67544 -14756171.07444  21644777.8664   21644781.1504
 -23209076.51144 -18084985.98744  20756407.1274   20756409.5314
 -19432100.82944 -15141868.67644  21560206.4594   21560208.7854
  -3103888.29044  -2418619.01044  24701220.7794   24701223.9094
 -26375049.20344 -20551979.16044  20295512.7064   20295514.4884
   -295671.53244                  25505555.7504
 96  4  2  1 24 30.0000000  0  8G 6G 4G16G20G24G 9G 5G17
 -14807567.85244 -11538351.20044  22649141.9474   22649144.1974
  -4031559.97644  -3141455.55844  24410795.3184   24410797.4944
 -18995723.24644 -14801842.39544  21633624.5294   21633627.6344
 -23251201.91544 -18117810.97444  20748390.8564   20748393.3814
 -19367490.57244 -15091523.02344  21572501.5864   21572503.5154
  -3013688.63944  -2348333.68044  24718385.0164   24718389.3764
 -26355416.88044 -20536681.26244  20299248.6154   20299250.4384
   -394021.17444                  25486840.0534
 96  4  2  1 25  0.0000000  0  8G 6G 4G16G20G24G 9G 5G17
 -14871919.34244 -11588495.19544  22636896.1444   22636898.7424
  -3935301.95844  -3066449.33544  24429112.4754   24429115.3564
 -19053932.20244 -14847199.98744  21622547.9624   21622551.1074
 -23292876.27244 -18150284.49944  20740460.4844   20740462.9954
 -19302704.54844 -15041040.40744  21584829.8334   21584832.2254
  -2923620.61544  -2278150.93644  24735524.4344   24735530.2324
 -26335261.54844 -20520975.82344  20303084.0204   20303085.8364
   -492293.52544                  25468139.4374
 96  4  2  1 25 30.0000000  0  8G 6G 4G16G20G24G 9G 5G17
 -14936214.28744 -11638595.14244  22624661.2564   22624663.5574
  -3839024.32144  -2991427.79744  24447433.5554   24447434.9044
 -19111719.49644 -14892229.01244  21611551.2494   21611554.3434
 -23334058.58944 -18182374.61544  20732623.7454   20732626.2034
 -19237711.23444 -14990396.26744  21597197.7014   21597199.8714
  -2833659.89044  -2208051.79244  24752643.7894   24752646.8114
 -26314536.57744 -20504826.50444  20307027.7654   20307029.6864
   -590452.03644                  25449453.6924
 96  4  2  1 26  0.0000000  0  7G 6G 4G16G20G24G 9G 5
 -15000469.66544 -11688664.24844  22612433.8144   22612436.3474
  -3742751.63744  -2916410.13344  24465753.7454   24465755.2354
 -19169083.25744 -14936928.01344  21600635.2614   21600638.4024
 -23374749.24444 -18214081.61644  20724880.5054   20724882.9844
 -19172506.65244 -14939587.50244  21609605.6714   21609607.9284
  -2743811.78444  -2138040.41844  24769741.1424   24769747.9554
 -26293260.98244 -20488248.12544  20311076.4554   20311078.4164
 96  4  2  1 26 30.0000000  0  7G 6G 4G16G20G24G 9G 5
 -15064681.70444 -11738699.58644  22600214.7314   22600217.2864
  -3646492.56144  -2841403.08144  24484071.1504   24484072.9964
 -19226010.82544 -14981287.12344  21589802.3274   21589805.4494
 -23414931.90644 -18245392.77944  20717234.1234   20717236.5524
 -19107066.35244 -14888595.06244  21622058.5764   21622060.8924
  -2654053.48844  -2068099.00644  24786821.6494   24786826.0554
 -26271430.39744 -20471237.28644  20315230.6164   20315232.6654
 96  4  2  1 27  0.0000000  0  8G 6G 4G16G20G24G 9G 5G17
 -15128871.76844 -11788717.80044  22587999.6604   22588002.4894
  -3550265.56844  -2766421.02444  24502382.5464   24502383.6474
 -19282508.79744 -15025311.48444  21579051.0384   21579054.1544
 -23454604.88544 -18276306.78744  20709684.5294   20709687.2304
 -19041394.72644 -14837422.37344  21634555.4194   21634557.6304
  -2564403.07644  -1998241.65844  24803882.0854   24803885.7864
 -26249052.09544 -20453799.65444  20319489.0204   20319490.9734
        -1.12254        -0.03354  25393554.2134
 96  4  2  1 27 30.0000000  0  8G 6G 4G16G20G24G 9G 5G17
 -15192987.14344 -11838677.80944  22575798.9374   22575801.3054
  -3454023.30544  -2691427.07144  24520697.0364   24520699.4594
 -19338484.44844 -15068928.83844  21568399.2624   21568402.0674
 -23493708.72844 -18306777.30844  20702243.4754   20702245.7224
 -18975439.74944 -14786028.88644  21647106.2694   21647108.2574
  -2474808.93444  -1928428.17544  24820931.2054
 -26226071.79844 -20435892.93644  20323862.1474   20323863.7504
    -97640.31144                  25374973.9364
 96  4  2  1 28  0.0000000  0  8G 6G 4G16G20G24G 9G 5G17
 -15256719.21844 -11888339.14844  22563671.1564   22563673.1574
  -3357481.29844  -2616199.54544  24539068.3314   24539068.3674
 -19393613.75544 -15111886.70544  21557908.4094   21557911.3204
 -23531940.83644 -18336568.56144  20694968.2034   20694970.4734
 -18908916.54444 -14734192.63244  21659765.2394   21659767.2614
  -2384979.19744  -1858431.08344  24838025.0944   24838029.6264
 -26202197.84244 -20417289.87044  20328405.2154   20328406.8834
   -194807.90944   -151797.10644  25356483.3254
 96  4  2  1 28 30.0000000  0  8G 6G 4G16G20G24G 9G 5G17
 -15321021.50344 -11938444.81144  22551434.7024   22551436.6514
  -3261584.56444  -2541474.82844  24557316.8614   24557318.6064
 -19448850.13844 -15154928.01444  21547397.2384   21547400.2874
 -23570255.53344 -18366424.16944  20687676.9684   20687679.6114
 -18842802.94144 -14682675.54644  21672346.1314   21672348.4194
  -2295887.49844                  24854978.9914
 -26178388.17744 -20398736.90444  20332936.1004   20332938.0754
   -292477.71044                  25337896.7644
 96  4  2  1 29  0.0000000  0  8G 6G 4G16G20G24G 9G 5G17
 -15385619.43944 -11988780.84444  22539142.1874   22539144.4004
  -3166042.68444  -2467026.61844  24575497.7964   24575500.5474
 -19503907.51644 -15197829.83544  21536920.3004   21536923.3004
 -23608372.13044 -18396125.41744  20680423.6054   20680425.9944
 -18776839.33744 -14631275.34044  21684898.8004   21684901.0744
  -2207262.10944  -1719950.48944  24871843.9414   24871847.1214
 -26154369.85044 -20380021.33944  20337506.6354   20337508.4544
   -390360.05544                  25319270.2054
 96  4  2  1 29 30.0000000  0  8G 6G 4G16G20G24G 9G 5G17
 -15450068.41944 -12039000.80944  22526877.8034   22526879.8254
  -3070428.21944  -2392521.85244  24593692.6514   24593694.3974
 -19558362.76744 -15240262.46744  21526557.6834   21526560.7284
 -23645860.66244 -18425337.26044  20673289.8174   20673292.3594
 -18710598.76944 -14579659.31844  21697503.7784   21697506.1034
  -2118673.66544  -1650920.62544  24888701.9194   24888709.2514
 -26129707.13444 -20360803.65544  20342199.7934   20342201.6464
   -488035.19044   -380285.29944  25300683.5164
 96  4  2  1 30  0.0000000  0  8G 6G 4G16G20G24G 9G 5G17
 -15513866.31544 -12088713.44644  22514737.5824   22514739.9304
  -2974246.38244  -2317574.96044  24611995.5464   24611997.3264
 -19611736.69344 -15281852.50744  21516400.8934   21516403.8874
 -23682228.12544 -18453675.54744  20666369.1764   20666371.6794
 -18643581.18544 -14527437.83044  21710256.9604   21710259.1404
  -2029637.48644  -1581541.92044  24905645.1954
 -26103902.71144 -20340696.33144  20347110.1954   20347112.1014
   -585026.34044   -455862.61244  25282226.8404   25282235.2804
 96  4  2  1 30 30.0000000  0  8G 6G 4G16G20G24G 9G 5G17
 -15577587.69044 -12138366.44344  22502611.8834   22502614.2294
  -2878062.80544  -2242626.72544  24630298.6054   24630300.1444
 -19664600.22344 -15323044.83744  21506341.1354   21506344.3044
 -23718047.11844 -18481586.45144  20659553.1804   20659555.7664
 -18576339.06944 -14475041.37944  21723052.5804   21723054.9904
  -1940713.36044  -1512250.53144  24922567.1004   24922569.2184
 -26077527.34544 -20320144.11744  20352129.3154   20352131.3174
   -681896.76544   -531345.79544  25263792.9244
 96  4  2  1 31  0.0000000  0  8G 6G16G 4G20G24G 9G 5G17
 -15641329.21344 -12188035.14344  22490482.1884   22490484.2654
 -19717047.33744 -15363912.68744  21496360.7654   21496363.7124
  -2782002.71544  -2167774.71744  24648578.1184   24648580.0094
 -23753425.11344 -18509153.72144  20652820.9544   20652823.4334
 -18508969.13244 -14422545.32944  21735872.7524   21735875.2794
  -1851996.12244  -1443120.30444  24939449.6114   24939455.4164
 -26050677.50144 -20299222.17544  20357238.6924   20357240.7554
   -778742.46044   -606809.77844  25245363.2714   25245369.2854
 96  4  2  1 31 30.0000000  0  8G 6G 4G16G20G24G 9G 5G17
 -15704852.27844 -12237533.61244  22478394.3884   22478395.9524
  -2685844.39244  -2092846.15944  24666876.3364   24666879.7314
 -19768850.77944 -15404278.96644  21486503.1134   21486505.4634
 -23788145.48244 -18536208.54844  20646213.9254   20646216.0374
 -18441242.24044 -14369771.12344  21748760.7564   21748762.9164
  -1763268.70144  -1373982.20044  24956334.0114
 -26023132.90144 -20277758.85644  20362480.3674   20362481.9974
   -875348.85444   -682087.21744  25226979.1984
 96  4  2  1 32  0.0000000  0  8G 6G16G 4G20G24G 9G 5G17
 -15767949.87844 -12286700.55844  22466387.0494   22466389.3434
 -19819780.16144 -15443964.16944  21476811.6174   21476814.0534
  -2589361.69544  -2017664.85544  24685236.5384   24685240.4664
 -23821993.86944 -18562583.91844  20639772.8194   20639774.8624
 -18372960.57844 -14316564.63544  21761754.2364   21761756.4684
  -1674256.72244                  24973248.9424
 -25994701.79044 -20255604.75244  20367890.6374   20367892.1534
   -971494.66144                  25208683.2644
 96  4  2  1 32 30.0000000  0  8G 6G16G24G 4G20G 9G 5G17
 -15831709.36444 -12336383.26444  22454253.8204   22454255.9524
 -19870918.83444 -15483812.45944  21467080.1014   21467082.9324
 -18305225.96144 -14263784.43044  21774643.5624   21774645.9574
  -2493632.09144  -1943070.37844  24703453.3654   24703455.3134
 -23856046.60844 -18589118.52644  20633292.6354   20633295.2394
  -1585378.60244                  24990034.0484
 -25966472.05744 -20233607.57344  20373262.5404   20373264.5184
  -1068240.34844   -832391.85744  25190273.1104
 96  4  2  1 33  0.0000000  0  8G 6G16G24G 4G20G 9G 5G17
 -15895848.02444 -12386361.43244  22442048.6924   22442050.7374
 -19922004.40844 -15523619.37144  21457358.7094   21457361.7004
 -18237782.40444 -14211231.01444  21787477.8024   21787480.4294
  -2398369.70344  -1868839.93344  24721581.2774   24721583.2234
 -23890022.67944 -18615593.38944  20626827.2734   20626829.9644
  -1497384.12544                  25006703.9254
 -25938155.94044 -20211543.08344  20378650.7634   20378652.8574
  -1165296.22844   -908019.55444  25171803.7864
 96  4  2  1 33 30.0000000  0  8G 6G16G 4G20G24G 9G 5G17
 -15959747.84944 -12436153.49244  22429888.8754   22429890.9734
 -19972435.38944 -15562916.20744  21447762.1654   21447765.0024
  -2302943.15444  -1794481.56744  24739740.0924   24739741.4724
 -23923299.96044 -18641523.73844  20620494.8134   20620497.3594
 -18170018.23744 -14158427.77344  21800372.7964   21800375.3454
  -1409726.28044  -1098494.31644  25023370.7554   25023375.8744
 -25909147.25244 -20188938.92744  20384171.0024   20384173.0304
  -1262031.30144   -983397.34544  25153395.4694   25153400.6414
 96  4  2  1 34  0.0000000  0  7G 6G16G24G 4G20G 5G17
 -16022993.68544 -12485435.94244  22417853.7564   22417856.0694
 -20021802.54944 -15601384.09144  21438367.8954   21438370.7994
 -18101506.74444 -14105042.19644  21813410.2374   21813412.6644
  -2206940.11044  -1719674.00844  24758008.9394   24758008.5794
 -23955449.36744 -18666575.22344  20614377.0044   20614379.5734
 -25879021.24744 -20165464.12744  20389903.7804   20389905.7214
  -1358019.33744  -1058193.05344  25135129.4364   25135139.6134
 96  4  2  1 34 30.0000000  0  7G 6G 4G16G20G24G 5G17
 -16086188.93844 -12534678.97744  22405828.0484   22405830.2324
  -2110985.45244  -1644904.14344  24776268.6294   24776270.4024
 -20070728.18644 -15639507.93344  21429057.6834   21429060.5484
 -23987066.33544 -18691211.81944  20608360.4764   20608363.0154
 -18032841.07044 -14051536.47544  21826476.8224   21826479.1914
 -25848363.62744 -20141575.08144  20395737.8304   20395739.7434
  -1453862.28344  -1132875.67544  25116891.3884   25116899.1564
 96  4  2  1 35  0.0000000  0  7G 6G 4G16G20G24G 5G17
 -16149418.45044 -12583948.71544  22393795.8894   22393798.0924
  -2015170.73144  -1570243.35244  24794501.4804   24794504.5084
 -20119283.43644 -15677343.16044  21419817.8474   21419820.6784
 -24018227.93444 -18715493.58244  20602430.5864   20602433.1184
 -17964091.58444 -13997965.44944  21839559.3864   21839561.7604
 -25817262.52244 -20117340.47044  20401656.2084   20401658.1014
  -1549660.36444  -1207523.34444  25098661.2074   25098665.3784
 96  4  2  1 35 30.0000000  0  7G 6G 4G16G20G24G 5G17
 -16212660.06144 -12633227.87344  22381761.3554   22381763.3424
  -1919468.54944  -1495670.20644  24812713.1204   24812714.6104
 -20167408.01444 -15714842.80444  21410660.0124   21410663.0274
 -24048894.52544 -18739389.62344  20596594.9524   20596597.6634
 -17895203.06944 -13944286.08644  21852668.4814   21852670.7994
 -25785688.74144 -20092737.54144  20407664.4904   20407666.3254
  -1645395.23144  -1282121.75944  25080443.4834   25080450.4814
 96  4  2  1 36  0.0000000  0  7G 6G16G24G 4G20G 5G17
 -16275918.31544 -12682520.00344  22369723.7384   22369725.8934
 -20215076.33744 -15751986.92544  21401588.9414   21401592.0234
 -17826154.49944 -13890482.01244  21865807.8144   21865810.2814
  -1823878.82444  -1421184.68744  24830903.1014   24830904.0244
 -24079047.89244 -18762885.75144  20590856.9384   20590859.4794
 -25753622.18844 -20067750.63444  20413766.6104   20413768.5094
  -1741071.76544  -1356674.76744  25062236.7404   25062242.7854
 96  4  2  1 36 30.0000000  0  8G 6G16G24G 4G20G25G 5G17
 -16338964.42644 -12731646.82144  22357726.5584   22357728.4224
 -20262037.10944 -15788579.70444  21392652.5734   21392655.1394
 -17756724.18944 -13836380.47144  21879020.2044   21879022.1874
  -1728167.80844  -1346604.67944  24849116.6434   24849118.1674
 -24108462.85944 -18785806.49544  20585259.6284   20585261.7174
        -0.66054        -0.92754  25187532.3104   25187538.2094
 -25720839.08644 -20042205.37244  20420004.9334   20420006.5264
  -1836451.28944  -1430996.30444  25044086.7554   25044089.4294
 96  4  2  1 37  0.0000000  0  8G 6G16G24G 4G20G25G 5G17
 -16401997.68244 -12780763.63744  22345731.5804   22345733.9024
 -20308486.16444 -15824773.75344  21383813.5444   21383816.5164
 -17687130.24044 -13782151.43744  21892263.2984   21892265.7494
  -1632538.87344  -1272088.62044  24867313.8284   24867317.1644
 -24137369.36444 -18808331.05044  20579758.8254   20579761.3524
    -32672.09544    -25459.17944  25181315.1354   25181318.1624
 -25687564.67344 -20016277.28544  20426336.7914   20426338.8004
  -1931748.91544  -1505254.06244  25025951.8484   25025955.9794
 96  4  2  1 37 30.0000000  0  8G 6G16G24G 4G20G25G 5G17
 -16465528.81844 -12830268.39944  22333641.9814   22333644.5024
 -20354941.97344 -15860973.05744  21374973.3934   21374976.1514
 -17617894.46044 -13728201.48444  21905438.6294   21905440.8314
  -1537510.61244  -1198040.62244  24885397.2524   24885398.9854
 -24166283.39444 -18830861.46144  20574256.7584   20574259.1874
    -65395.62544    -50958.02144  25175088.2934   25175088.4584
 -25654308.52144 -19990363.41344  20432665.3254   20432667.1504
  -2027468.72644  -1579840.78844  25007736.9894   25007739.6954
 96  4  2  1 38  0.0000000  0  8G 6G16G24G 4G20G25G 5G17
 -16528357.75444 -12879225.99644  22321686.1234   22321688.4004
 -20400239.67844 -15896269.94444  21366353.6074   21366356.2094
 -17547872.78744 -13673639.14744  21918763.2284   21918765.4424
  -1441904.61744  -1123542.41844  24903590.4974   24903592.3564
 -24194036.08944 -18852486.93844  20568975.5504   20568977.9314
    -96998.14544    -75583.31044  25169074.5084   25169079.9094
 -25619889.79844 -19963543.64544  20439214.9714   20439216.7784
  -2122418.52544  -1653827.49144  24989668.2424   24989672.8824
 96  4  2  1 38 30.0000000  0  8G 6G16G24G 4G20G25G 5G17
 -16591376.48544 -12928331.48644  22309694.1224   22309695.7484
 -20445297.13344 -15931379.61944  21357779.5424   21357781.8294
 -17478003.56044 -13619195.59444  21932058.9314   21932060.8034
  -1346630.92844  -1049303.19744  24921720.6834   24921721.4034
 -24221546.68544 -18873923.76544  20563740.4904   20563742.5854
   -128409.05544   -100059.23244  25163097.4114   25163099.0014
 -25585224.37944 -19936531.64644  20445811.6884   20445813.1894
  -2217508.30444  -1727923.30144  24971573.2394   24971573.5534
 96  4  2  1 39  0.0000000  0  8G 6G16G24G 4G20G25G 5G17
 -16654468.85844 -12977494.36244  22297687.9484   22297690.1454
 -20490001.82344 -15966214.42444  21349272.4524   21349275.0064
 -17408177.02744 -13564785.31944  21945346.4474   21945348.8814
  -1251576.53144   -975234.80744  24939808.6684   24939810.7764
 -24248679.53344 -18895066.25044  20558577.1064   20558579.4894
   -159537.11444   -124316.55944  25157173.3714   25157176.4614
 -25550178.93944 -19909223.53444  20452480.5604   20452482.4134
  -2312624.25544  -1802039.54444  24953473.1744   24953481.8624
 96  4  2  1 39 30.0000000  0  8G 6G16G24G 4G20G25G 5G17
 -16717397.38044 -13026529.55544  22285713.0784   22285714.5264
 -20534102.27244 -16000578.37944  21340880.3904   21340882.7314
 -17338143.62744 -13510213.84044  21958673.4004   21958675.1874
  -1156497.24444   -901147.04044  24957901.6344   24957904.8784
 -24275160.25844 -18915700.58444  20553538.1974   20553540.3134
   -190131.62444                  25151351.8984
 -25514490.68244 -19881414.52044  20459271.9014   20459273.4634
  -2407511.17544  -1875977.28644  24935416.8864
 96  4  2  1 40  0.0000000  0  8G 6G16G24G 4G20G25G 5G17
 -16779864.47444 -13075205.19244  22273826.0424   22273827.8994
 -20577303.48144 -16034241.62944  21332659.4454   21332661.6724
 -17267601.03744 -13455245.59844  21972097.3264   21972099.2324
  -1061098.43144   -826810.33644  24976055.5114
 -24300692.51244 -18935595.85044  20548679.5354   20548681.6454
   -219894.45344                  25145688.0934
 -25477865.50044 -19852875.43444  20466241.4964   20466243.0534
  -2501877.84044  -1949509.61044  24917459.4304   24917461.6344
 96  4  2  1 40 30.0000000  0  8G 6G16G24G 4G20G25G 5G17
 -16842437.19244 -13123963.14444  22261918.7884   22261920.3734
 -20620143.79544 -16067623.66144  21324507.1504   21324509.3234
 -17197066.91844 -13400283.94744  21985519.4894   21985521.5254
   -965938.92144                  24994170.4674
 -24325805.77744 -18955164.63444  20543900.5804   20543902.4894
   -249369.02444                  25140079.3134
 -25440869.71744 -19824047.56744  20473281.5654   20473283.0164
  -2596283.07144  -2023072.02344  24899494.4044   24899499.2914
 96  4  2  1 41  0.0000000  0  8G 6G16G24G 4G20G25G 5G17
 -16904981.88444 -13172699.25344  22250017.0054   22250019.1354
 -20662488.39544 -16100619.42344  21316449.2004   21316451.6274
 -17126387.65244 -13345209.20044  21998969.3394   21998971.4944
   -871495.44444                  25012249.3374
 -24350359.04444 -18974297.05744  20539228.2324   20539230.3444
   -278389.38444                  25134556.9324
 -25403365.23044 -19794823.30944  20480418.3764   20480419.9764
  -2690587.94244  -2096556.22344  24881548.5724   24881552.9144
 96  4  2  1 41 30.0000000  0  7G 6G16G24G20G25G 5G17
 -16967588.38544 -13221483.52744  22238103.2214   22238104.8464
 -20704440.41244 -16133309.27644  21308465.9434   21308468.1854
 -17055646.99644 -13290086.61344  22012430.9384   22012432.3574
 -24374469.70644 -18993084.58744  20534640.2804   20534642.3574
   -307013.96744                  25129109.9244
 -25365463.65444 -19765289.63144  20487630.9054   20487632.4944
  -2784895.26744  -2170042.31844  24863602.3854   24863606.8674
 96  4  2  1 42  0.0000000  0  8G 6G16G24G 4G20G25G 5G17
 -17030262.56244 -13270320.54344  22226176.5984   22226178.6144
 -20746014.70844 -16165704.81244  21300554.3794   21300557.2794
 -16984850.34444 -13234920.40144  22025902.8244   22025905.1554
         0.13954         0.53454  25048316.8184   25048317.2884
 -24398164.09244 -19011547.76044  20530131.2024   20530133.8004
   -335252.40644                  25123736.4264
 -25327183.01244 -19735460.58844  20494915.3924   20494917.4304
  -2879213.92344  -2243537.24244  24845654.0024   24845657.7864
 96  4  2  1 42 30.0000000  0  8G 6G16G24G 4G20G25G 5G17
 -17092981.38544 -13319192.33744  22214241.4724   22214243.7024
 -20787183.29944 -16197784.20444  21292720.2734   21292723.1114
 -16913993.92044 -13179707.60844  22039386.3284   22039388.6694
     94480.85444     73621.94344  25066295.7394   25066297.7104
 -24421426.26444 -19029674.13544  20525704.5634   20525707.2384
   -363093.96944   -282932.74444  25118438.3514
 -25288498.78244 -19705317.05544  20502276.6034   20502278.6464
  -2973525.10344  -2317026.35944  24827707.3294   24827712.3694
 96  4  2  1 43  0.0000000  0  8G 6G16G24G 4G20G25G 5G17
 -17155297.29444 -13367750.17444  22202383.2134   22202385.5364
 -20827505.73044 -16229204.25344  21285047.2284   21285049.8934
 -16842649.76944 -13124114.76744  22052962.8564   22052965.2044
    189234.97844    147456.31844  25084326.9554   25084328.7084
 -24443830.14544 -19047131.71044  20521441.3144   20521443.9874
   -390099.06644                  25113299.4364
 -25248947.58244 -19674497.95944  20509802.9924   20509805.0894
  -3067369.03344  -2390151.35944  24809849.1554   24809852.4314
 96  4  2  1 43 30.0000000  0  8G 6G16G24G 4G20G25G 5G17
 -17217430.96144 -13416166.00444  22190559.5894   22190561.8454
 -20867169.74944 -16260111.24744  21277499.5224   21277502.0654
 -16771028.12844 -13068305.69744  22066591.9124   22066594.3604
    284064.67344    221349.58044  25102372.2304   25102373.7514
 -24465573.26144 -19064074.40344  20517303.8124   20517306.0794
   -416492.27044                  25108276.7254
 -25208732.12844 -19643161.26144  20517455.7014   20517457.6804
  -3160932.11444  -2463057.53344  24792044.7834   24792048.0094
 96  4  2  1 44  0.0000000  0  8G 6G16G24G 4G20G25G 5G17
 -17279067.98144 -13464194.83944  22178830.4244   22178832.6934
 -20905842.32044 -16290245.68744  21270140.3114   21270142.8524
 -16698813.69944 -13012034.71744  22080333.9944   22080336.1954
    379301.16444    295559.82844  25120495.1754
 -24486313.56444 -19080235.68444  20513357.0344   20513359.2344
   -441973.23644                  25103428.0374
 -25167521.60744 -19611049.18844  20525298.0214   20525299.9644
  -3253883.55144  -2535487.13144  24774356.5014   24774359.7224
 96  4  2  1 44 30.0000000  0  8G 6G16G24G 4G20G25G 5G17
 -17341177.64944 -13512591.97444  22167011.3814   22167013.8054
 -20944486.49444 -16320358.00444  21262786.4314   21262789.2924
 -16626991.44944 -12956069.33944  22094001.1994   22094003.3194
    473980.68144                  25138511.9434
 -24507008.05744 -19096361.27044  20509418.9504   20509421.4644
   -467502.31644   -364289.88544  25098569.7264
 -25126286.58644 -19578918.02444  20533144.7484   20533146.8504
  -3347189.94944  -2608193.28844  24756600.9384   24756605.2514
 96  4  2  1 45  0.0000000  0  8G 6G16G24G 4G20G25G 5G17
 -17403530.75644 -13561178.79744  22155145.9924   22155148.3304
 -20982866.44944 -16350264.43544  21255482.9344   21255485.6264
 -16555325.82544 -12900226.00344  22107638.8734   22107640.7994
    568333.10644                  25156466.6284
 -24527416.25544 -19112263.76644  20505535.3764   20505537.8984
   -492831.02944   -384026.52344  25093750.1484   25093751.6474
 -25084799.82144 -19546590.69044  20541039.4004   20541041.4704
  -3440610.74644  -2680988.58744  24738823.1154   24738827.8254
 96  4  2  1 45 30.0000000  0  8G 6G16G24G 4G20G25G 5G17
 -17465614.38044 -13609555.63344  22143331.7954   22143333.8864
 -21020484.56244 -16379577.22444  21248324.5184   21248327.0184
 -16483307.02944 -12844107.46744  22121343.3604   22121345.6854
    662858.74144                  25174454.2414
 -24547023.70944 -19127542.30544  20501804.1514   20501806.6244
   -517452.54644   -403212.13144  25089064.7694
 -25042574.28044 -19513687.68644  20549074.6034   20549076.6954
  -3533655.73044  -2753491.04844  24721117.2974   24721121.7844
 96  4  2  1 46  0.0000000  0  8G 6G16G24G 4G20G25G 5G17
 -17527523.88244 -13657796.79044  22131550.9314   22131553.1894
 -21057466.39744 -16408394.21344  21241287.1254   21241289.5914
 -16411070.32244 -12787819.12644  22135089.4444   22135091.7124
    757419.58144                  25192448.6704
 -24565957.96544 -19142296.27244  20498201.2284   20498203.6484
   -541490.15244   -421942.72944  25084490.5974
 -24999745.00344 -19480314.24244  20557224.9254   20557226.9994
  -3626465.11744  -2825809.93044  24703456.1964   24703462.0724
 96  4  2  1 46 30.0000000  0  8G 6G16G24G 4G20G25G 5G17
 -17589330.35044 -13705957.66444  22119789.4314   22119791.8114
 -21093877.17244 -16436766.22044  21234358.4114   21234360.9974
 -16338705.48444 -12731430.94844  22148860.2784   22148862.5744
    851915.19344                  25210430.5644
 -24584302.45344 -19156590.68144  20494710.3924   20494712.7894
   -565023.49844   -440280.40744  25080012.3244   25080015.4914
 -24956390.53844 -19446531.55844  20565475.0314   20565476.9964
  -3719121.21844  -2898009.38144  24685824.1984   24685827.3924
 96  4  2  1 47  0.0000000  0  8G 6G16G24G 4G20G25G 5G17
 -17651052.37444 -13754052.73944  22108044.0784   22108046.4794
 -21129739.05744 -16464710.52144  21227534.1174   21227536.7094
 -16266206.29044 -12674938.07444  22162656.4374   22162658.6494
    946319.94944                  25228394.9714
 -24602074.93744 -19170439.37544  20491328.4844   20491330.9574
   -588085.89244   -458251.09444  25075623.6324   25075627.0034
 -24912525.76144 -19412351.22744  20573822.1924   20573824.1584
  -3811642.22444  -2970103.56344  24668218.0224   24668222.1474
 96  4  2  1 47 30.0000000  0  8G 6G16G24G 4G20G25G 5G17
 -17712687.39344 -13802080.01644  22096315.3804   22096317.5644
 -21165055.47644 -16492229.78444  21220813.4354   21220816.1224
 -16193573.22544 -12618340.88344  22176477.9434   22176480.1274
   1040624.41144                  25246340.9264
 -24619276.15644 -19183842.92344  20488055.0264   20488057.5544
   -610696.41444   -475869.70344  25071320.9104   25071326.3074
 -24868157.56844 -19377778.62444  20582265.1644   20582267.1834
  -3904026.29044  -3042091.02544  24650637.9604   24650642.8244
 96  4  2  1 48  0.0000000  0  8G 6G16G24G 4G20G25G 5G17
 -17774226.89744 -13850032.86944  22084604.7764   22084607.1324
 -21199794.54544 -16519299.16744  21214202.7614   21214205.6084
 -16120808.19444 -12561640.86244  22190324.6844   22190326.8804
   1134844.92444                  25264270.4584
 -24635889.26744 -19196788.20744  20484893.7954   20484896.3364
   -632836.35044   -493121.56844  25067107.8994   25067108.2724
 -24823254.94944 -19342789.58944  20590809.8194   20590811.9414
  -3996249.50544  -3113953.15344  24633088.3644   24633092.8754
 96  4  2  1 48 30.0000000  0  7G 6G16G20G24G25G 5G17
 -17835767.58744 -13897986.64144  22072893.9964   22072896.4744
 -21234043.46344 -16545986.61144  21207685.4584   21207688.0984
 -24651990.20444 -19209334.39444  20481829.8244   20481832.5464
 -16047968.07544 -12504882.33544  22204185.7244   22204188.0094
   -654571.73544   -510058.27344  25062971.8554   25062973.6694
 -24777888.64744 -19307439.23544  20599442.7424   20599444.8274
  -4088376.13444  -3185740.04044  24615557.1074   24615563.0134
 96  4  2  1 49  0.0000000  0  7G 6G16G24G20G25G 5G17
 -17897266.46544 -13945907.83644  22061191.2584   22061193.5014
 -21267778.41744 -16572273.56544  21201265.8664   21201268.4554
 -15975014.14544 -12448035.12744  22218068.3254   22218070.7644
 -24667530.93844 -19221444.06044  20478872.5144   20478874.9454
   -675852.28544   -526640.46844  25058922.4004   25058924.9944
 -24732034.20644 -19271708.51944  20608168.5844   20608170.6284
  -4180350.18244  -3257407.99444  24598054.8874   24598061.2024
 96  4  2  1 49 30.0000000  0  7G 6G16G24G25G20G 5G17
 -17958710.43044 -13993786.23544  22049498.7724   22049500.9894
 -21300974.87644 -16598140.91044  21194948.8114   21194951.2464
 -15901965.99144 -12391114.49244  22231969.0564   22231971.2034
   -696649.32044   -542845.99444  25054964.6094   25054967.7164
 -24682495.90244 -19233105.07244  20476024.7174   20476027.3954
 -24685679.78044 -19235588.20444  20616989.7084   20616991.8574
  -4272154.27744  -3328943.55744  24580585.1414   24580590.8564
 96  4  2  1 50  0.0000000  0  7G 6G16G24G20G25G 5G17
 -18020069.40344 -14041598.40844  22037822.5614   22037824.7264
 -21333586.95444 -16623552.89644  21188742.8844   21188745.3814
 -15828793.91844 -12334097.29944  22245893.2934   22245895.2874
 -24696850.35044 -19244290.35844  20473293.1884   20473295.7924
   -716911.67944   -558634.80144  25051108.9574   25051112.1464
 -24638775.19944 -19199039.19444  20625915.3684   20625917.5124
  -4363747.41044  -3400314.72044  24563155.2514   24563160.6864
 96  4  2  1 50 30.0000000  0  7G 6G16G24G25G20G 5G17
 -18081344.78644 -14089345.44644  22026162.1934   22026164.2514
 -21365638.49244 -16648528.09844  21182643.6274   21182646.2054
 -15755508.98244 -12276992.16244  22259838.9414   22259841.1934
   -736658.82044   -574022.18944  25047351.2654   25047352.9974
 -24710617.16044 -19255017.74244  20470673.3804   20470675.9634
 -24591347.72444 -19162082.73744  20634940.4104   20634942.4174
  -4455149.59144  -3471537.11644  24545762.0554   24545765.2664
 96  4  2  1 51  0.0000000  0  7G 6G16G24G20G25G 5G17
 -18142516.38944 -14137011.61644  22014521.6704   22014523.7124
 -21397120.53544 -16673059.53544  21176652.7144   21176655.3244
 -15682126.92944 -12219811.34844  22273802.9394   22273805.1324
 -24723797.66444 -19265288.26644  20468165.2684   20468167.8344
   -755894.59844   -589011.14844  25043690.7824   25043693.6454
 -24543398.78344 -19124719.94644  20644064.7714   20644066.8614
  -4546376.84444  -3542623.19944  24528401.8784   24528404.9934
 96  4  2  1 51 30.0000000  0  7G 6G16G24G20G25G 5G17
 -18203611.09744 -14184617.86944  22002895.6624   22002897.7104
 -21428051.90944 -16697161.88244  21170766.6644   21170769.4954
 -15608664.98044 -12162568.27344  22287782.4834   22287784.8914
 -24736436.95744 -19275137.06544  20465759.9774   20465762.5744
   -774650.14244   -603625.83444  25040121.6314   25040124.9424
 -24494939.98644 -19086959.85944  20653286.1794   20653288.2064
  -4637479.59844  -3613612.25944  24511065.6964   24511069.8614
 96  4  2  1 52  0.0000000  0  7G 6G16G24G20G25G 5G17
 -18264580.04544 -14232126.12344  21991293.5334   21991295.5284
 -21458408.92544 -16720816.67544  21164989.9554   21164992.4904
 -15535063.26744 -12105216.29644  22301788.3334   22301790.6984
 -24748499.94544 -19284536.80044  20463464.4744   20463467.0384
   -792898.35544   -617845.24244  25036649.3474   25036653.8924
 -24445940.69944 -19048778.61344  20662610.3464   20662612.5264
  -4728441.08144  -3684491.26344  24493756.3104   24493758.5784
 96  4  2  1 52 30.0000000  0  7G 6G16G24G25G20G 5G17
 -18325447.41844 -14279555.22544  21979710.9354   21979713.0124
 -21488220.14444 -16744046.17244  21159317.0324   21159319.7514
 -15461341.04144 -12047770.41044  22315817.2854   22315819.5114
   -810680.68344   -631701.60144  25033265.2314
 -24760004.71044 -19293501.55744  20461275.1664   20461277.9334
 -24396448.24144 -19010213.08144  20672028.6454   20672030.8564
  -4819305.22844  -3755294.39144  24476465.3184   24476469.7804
 96  4  2  1 53  0.0000000  0  7G 6G16G24G20G25G 5G17
 -18386195.84644 -14326891.64744  21968150.9504   21968153.0984
 -21517436.23944 -16766811.93644  21153757.3644   21153760.0784
 -15387456.21644 -11990197.82544  22329877.0224   22329879.4014
 -24770899.30544 -19301990.85744  20459202.0354   20459204.6574
   -827959.56844   -645165.63044  25029977.1594   25029978.4234
 -24346425.90944 -18971234.65444  20681547.5754   20681549.7744
  -4910021.98844  -3825982.69944  24459202.4664   24459206.7904
 96  4  2  1 53 30.0000000  0  7G 6G16G24G25G20G 5G17
 -18446873.37944 -14374172.82744  21956604.3214   21956606.3634
 -21546081.73344 -16789133.07644  21148306.2314   21148308.8474
 -15313435.59044 -11932519.42144  22343962.7904   22343965.0404
   -844773.56544   -658267.46744  25026777.6184
 -24781212.07444 -19310026.78544  20457239.6224   20457242.0234
 -24295915.30544 -18931875.75644  20691159.3314   20691161.5784
  -5000605.60244  -3896567.26744  24441964.9694   24441969.3844
 96  4  2  1 54  0.0000000  0  7G 6G16G24G25G20G 5G17
 -18507543.18144 -14421447.98444  21945059.1864   21945061.3974
 -21574218.29344 -16811057.64844  21142952.1414   21142954.6124
 -15239348.43244 -11874789.17344  22358060.9774   22358063.0014
   -861190.02044   -671059.46644  25023653.5734
 -24791004.53044 -19317657.27544  20455376.2284   20455378.7534
 -24245001.19344 -18892202.44444  20700847.8924   20700850.1764
  -5091102.08144  -3967083.91244  24424743.8464   24424749.2834
 96  4  2  1 54 30.0000000  0  7G 6G16G24G25G20G 5G17
 -18568042.54344 -14468590.32644  21933546.5354   21933548.4744
 -21601671.44844 -16832449.69644  21137728.0604   21137730.3984
 -15165039.19144 -11816885.87144  22372201.5574   22372203.9944
   -877032.68144   -683402.92844  25020638.6084   25020641.0834
 -24800116.30144 -19324757.36344  20453642.3244   20453644.7994
 -24193518.71444 -18852086.25244  20710644.7454   20710647.0094
  -5181311.93644  -4037377.26844  24407577.3614   24407581.0744
 96  4  2  1 55  0.0000000  0  7G 6G16G24G25G20G 5G17
 -18628441.23444 -14515654.22944  21922052.9234   21922055.1014
 -21628525.35444 -16853374.79544  21132617.9144   21132620.3314
 -15090594.43644 -11758876.97544  22386368.0904   22386370.5514
   -892368.98444   -695354.07644  25017720.2914
 -24808638.15244 -19331397.77244  20452020.6384   20452023.2014
 -24141538.82544 -18811582.46544  20720536.2544   20720538.4064
  -5271293.80544  -4107492.91844  24390454.1454   24390459.1514
 96  4  2  1 55 30.0000000  0  7G 6G16G24G20G25G 5G17
 -18688746.94844 -14562645.67744  21910577.3044   21910579.3354
 -21654814.13844 -16873859.54144  21127615.2454   21127617.5384
 -15016052.83944 -11700792.62244  22400552.6234   22400554.9604
 -24816604.08244 -19337604.99844  20450504.8144   20450507.5024
   -907211.24544   -706919.35044  25014895.9904   25014896.9124
 -24089076.38844 -18770702.67344  20730519.4584   20730521.7494
  -5361085.46344  -4177460.37444  24373367.4534   24373373.2754
 96  4  2  1 56  0.0000000  0  7G 6G16G24G20G25G 5G17
 -18748939.95344 -14609549.30644  21899122.9254   21899124.8484
 -21680535.83844 -16893902.40144  21122720.6004   21122722.8614
 -14941408.65144 -11642628.32644  22414757.0634   22414759.4144
 -24823998.01344 -19343366.50944  20449097.8874   20449100.5384
   -921530.00444   -718076.78944  25012171.2714   25012174.8094
 -24036101.21044 -18729423.34544  20740600.3514   20740602.5354
  -5450672.66444  -4247268.52244  24356319.6884   24356325.8214
 96  4  2  1 56 30.0000000  0  7G 6G16G24G25G20G 5G17
 -18809113.43044 -14656437.71644  21887672.2574   21887674.2374
 -21705774.22044 -16913568.64744  21117917.8414   21117920.2664
 -14866754.69744 -11584456.42044  22428963.2364   22428965.3964
   -935413.71244   -728895.25144  25009529.3714   25009530.7984
 -24830873.67144 -19348724.16844  20447789.5354   20447792.0364
 -23982668.02544 -18687787.12544  20750768.3954   20750770.6724
  -5540134.79644  -4316979.21344  24339295.4724   24339299.4144
 96  4  2  1 57  0.0000000  0  7G 6G16G24G25G20G 5G17
 -18869278.14744 -14703319.30044  21876223.2084   21876225.3914
 -21730532.87344 -16932861.08044  21113206.2474   21113208.8424
 -14792102.69344 -11526286.03844  22443169.0154   22443171.6214
   -948885.28544   -739392.57844  25006965.5944   25006968.7904
 -24837226.63944 -19353674.53844  20446580.5414   20446583.0974
 -23928771.07944 -18645789.52644  20761024.6694   20761026.9414
  -5629505.44744  -4386618.59344  24322288.7544   24322292.5134
 96  4  2  1 57 30.0000000  0  7G 6G16G24G25G20G 5G17
 -18929338.78044 -14750119.78044  21864794.0514   21864796.3944
 -21754713.79344 -16951703.33444  21108604.7454   21108607.3604
 -14717352.06644 -11468038.80144  22457393.6024   22457396.0704
   -961859.67744   -749502.52744  25004496.9264   25004500.4844
 -24842950.19744 -19358134.45744  20445491.3394   20445493.9194
 -23874303.67444 -18603347.41544  20771389.5104   20771391.6774
  -5718698.34444  -4456119.48444  24305315.7204   24305321.7244
 96  4  2  1 58  0.0000000  0  7G 6G16G24G25G20G 5G17
 -18989309.00044 -14796849.81044  21853382.1304   21853384.2814
 -21778312.67144 -16970092.04944  21104114.0654   21104116.7984
 -14642486.36644 -11409701.90044  22471640.0304   22471642.6224
   -974365.52044   -759247.31444  25002116.7774   25002120.6954
 -24848033.01244 -19362095.09744  20444524.1204   20444526.7364
 -23819274.79544 -18560467.79044  20781861.1244   20781863.3354
  -5807709.56444  -4525478.80744  24288377.4004   24288382.2324
 96  4  2  1 58 30.0000000  0  7G 6G16G24G25G20G 5G17
 -19049249.94844 -14843557.03144  21841975.8364   21841978.0064
 -21801376.73444 -16988064.02144  21099725.1034   21099727.6384
 -14567569.67944 -11351325.26244  22485896.1574   22485898.4734
   -986478.17944   -768685.79544  24999812.2174   24999812.1894
 -24852538.00744 -19365605.48844  20443666.9644   20443669.4784
 -23763751.57444 -18517202.96344  20792426.8194   20792429.0204
  -5896615.71144  -4594756.23544  24271459.2944   24271464.2424
 96  4  2  1 59  0.0000000  0  7G 6G16G24G25G20G 5G17
 -19109089.28644 -14890185.07344  21830588.7894   21830591.0204
 -21823853.48144 -17005578.34744  21095447.9254   21095450.4094
 -14492548.74044 -11292867.39344  22500172.1454   22500174.5484
   -998125.20144   -777761.38744  24997595.7734   24997598.9544
 -24856447.81244 -19368652.09544  20442922.8164   20442925.3184
 -23707708.53144 -18473533.08744  20803091.5674   20803093.6804
  -5985384.54344  -4663926.69144  24254567.1374   24254570.3394
 96  4  2  1 59 30.0000000  0  7G 6G16G24G25G20G 5G17
 -19168792.66844 -14936707.17644  21819227.5564   21819229.6094
 -21845708.91344 -17022608.52944  21091288.9674   21091291.4554
 -14417389.82444 -11234302.00944  22514474.5994   22514476.8504
  -1009251.81844   -786431.49944  24995478.8824   24995481.4814
 -24859739.81444 -19371217.29644  20442296.3974   20442298.8994
 -23651134.30344 -18429449.29544  20813857.3314   20813859.4934
  -6073965.26344  -4732950.56944  24237710.5614   24237715.5644
 96  4  2  2  0  0.0000000  0  7G 6G16G24G25G20G 5G17
 -19228367.38244 -14983129.02244  21807890.8624   21807892.8634
 -21866949.90544 -17039159.93144  21087246.9054   21087249.5904
 -14342098.27044 -11175633.26944  22528802.1454   22528804.6424
  -1019848.53244   -794688.68844  24993461.8344   24993463.3494
 -24862421.32744 -19373306.78944  20441786.0884   20441788.5714
 -23594056.46244 -18384973.08144  20824718.8944   20824721.0674
  -6162357.31644  -4801827.41644  24220890.1914   24220893.3744
 96  4  2  2  0 30.0000000  0  7G 6G16G24G25G20G 5G17
 -19287800.97644 -15029440.89944  21796580.9714   21796583.0104
 -21887574.98444 -17055231.40144  21083322.0314   21083324.4734
 -14266701.09944 -11116882.22844  22543149.7574   22543152.3424
  -1029905.35344   -802525.20144  24991548.3064   24991548.9044
 -24864503.92144 -19374929.59544  20441389.7404   20441392.3374
 -23536502.01644 -18340125.48244  20835671.1624   20835673.3114
  -6250561.62644  -4870557.99344  24204105.5244   24204109.1694
 96  4  2  2  1  0.0000000  0  7G 6G16G24G25G17G20G 5
 -19347134.92344 -15075675.13044  21785290.1344   21785292.1884
 -21907623.35544 -17070853.48544  21079506.8594   21079509.3614
 -14191225.37344 -11058069.98444  22557512.1564   22557514.4804
  -1039460.49044   -809970.75444  24989729.7904   24989732.4294
  -6338593.90944  -4939154.52044  24187353.2334   24187359.2164
 -24866024.44644 -19376114.42644  20441100.5104   20441102.9944
 -23478528.67744 -18294951.47644  20846703.1324   20846705.4124
 96  4  2  2  1 30.0000000  0  7G 6G16G24G25G20G 5G17
 -19406373.50644 -15121835.05144  21774017.4194   21774019.4884
 -21927072.62244 -17086008.73644  21075805.8034   21075808.3154
 -14115651.85044 -10999181.52844  22571893.4234   22571895.4724
  -1048525.23144   -817034.20644  24988004.8404   24988005.4344
 -24866948.62044 -19376834.56944  20440924.5274   20440927.1424
 -23420120.60844 -18249438.72244  20857817.7414   20857820.0364
  -6426409.86244  -5007582.46444  24170642.1434   24170646.3664
 96  4  2  2  2  0.0000000  0  7G 6G16G24G25G20G 5G17
 -19465475.35044 -15167888.42344  21762770.7394   21762772.8504
 -21945892.01944 -17100673.18044  21072224.5184   21072227.0954
 -14039962.78644 -10940203.04244  22586296.4684   22586298.9584
  -1057094.85844   -823711.84344  24986374.2934   24986377.6214
 -24867240.68744 -19377062.15744  20440869.0924   20440871.6134
 -23361245.86444 -18203562.32144  20869021.3794   20869023.6354
  -6513985.26244  -5075822.98844  24153977.2904   24153981.6394
 96  4  2  2  2 30.0000000  0  7G 6G16G24G25G20G 5G17
 -19524449.81844 -15213842.53844  21751548.2034   21751550.0704
 -21964083.43444 -17114848.28744  21068762.7694   21068765.4694
 -13964183.49144 -10881154.24844  22600716.7324   22600719.1454
  -1065190.23344   -830019.95744  24984833.6784   24984836.8594
 -24866912.04744 -19376806.07844  20440931.6134   20440934.2544
 -23301902.45844 -18157320.71544  20880313.9534   20880316.2774
  -6601333.98344  -5143886.88344  24137355.2704   24137358.4204
 96  4  2  2  3  0.0000000  0  7G 6G16G24G25G20G 5G17
 -19583345.40244 -15259735.19144  21740340.7214   21740342.7474
 -21981690.13044 -17128567.77144  21065412.3724   21065415.0684
 -13888341.18144 -10822056.35544  22615149.1414   22615151.7284
  -1072841.75444   -835982.21244  24983377.6144   24983381.9644
 -24866005.82444 -19376099.93244  20441104.1434   20441106.6764
 -23242109.30544 -18110728.66044  20891692.3034   20891694.6484
  -6688500.32644  -5211808.63144  24120767.9134   24120773.0544
 96  4  2  2  3 30.0000000  0  7G 6G16G24G25G20G 5G17
 -19642140.64644 -15305549.65644  21729152.3644   21729154.4244
 -21998707.23644 -17141827.83444  21062174.0994   21062176.5794
 -13812444.86344 -10762916.36744  22629591.9174   22629594.2364
  -1080042.89044   -841593.47544  24982007.2184   24982010.2434
 -24864510.44444 -19374934.70544  20441388.6984   20441391.2134
 -23181844.12744 -18063768.79844  20903160.3974   20903162.5474
  -6775489.30544  -5279592.20544  24104214.3694   24104218.9144
 96  4  2  2  4  0.0000000  0  7G 6G16G24G25G20G 5G17
 -19700867.72944 -15351311.00844  21717976.9404   21717978.9874
 -22015185.24144 -17154667.81444  21059038.5444   21059041.1914
 -13736542.55644 -10703771.71244  22644035.4744   22644037.6954
  -1086817.58244   -846872.47344  24980718.1904   24980720.0774
 -24862465.48444 -19373341.23344  20441777.8314   20441780.3764
 -23121137.79344 -18016465.17644  20914712.4994   20914714.7994
  -6862360.12644  -5347283.69444  24087683.6034   24087687.5044
 96  4  2  2  4 30.0000000  0  7G 6G16G24G25G20G 5G17
 -19759517.96144 -15397012.47344  21706816.0764   21706817.9584
 -22031105.83644 -17167073.45244  21056009.0024   21056011.7284
 -13660596.08044 -10644592.64644  22658487.6894   22658490.0644
  -1093128.93644   -851790.43344  24979517.2254   24979521.2934
 -24859851.93844 -19371304.70844  20442275.1614   20442277.7454
 -23059964.95044 -17968798.03544  20926353.3124   20926355.5334
  -6949094.18944  -5414868.61544  24071178.8814   24071182.4104
 96  4  2  2  5  0.0000000  0  7G 6G16G24G25G20G 5G17
 -19818035.67144 -15442610.67344  21695680.5794   21695682.6054
 -22046422.81544 -17179008.74144  21053094.2414   21053096.8734
 -13584539.30144 -10585327.62644  22672960.8334   22672962.9034
  -1098925.49844   -856307.24844  24978414.0094   24978417.0524
 -24856619.04244 -19368785.57444  20442890.3694   20442892.8904
 -22998272.15744 -17920725.74644  20938093.0224   20938095.1684
  -7035625.93444  -5482295.87544  24054712.1664   24054717.2004
 96  4  2  2  5 30.0000000  0  7G 6G16G24G25G17G20G 5
 -19876426.42944 -15488109.95544  21684569.0714   21684571.1144
 -22061168.09844 -17190498.55144  21050288.4714   21050290.8454
 -13508386.48744 -10525987.77444  22687452.2274   22687454.5984
  -1104228.06644   -860439.13144  24977405.1034   24977409.7564
  -7121959.76244  -5549568.91644  24038283.3864   24038288.1254
 -24852777.97844 -19365792.54444  20443621.1734   20443623.7174
 -22936066.12544 -17872253.52944  20949930.3244   20949932.5954
 96  4  2  2  6  0.0000000  0  7G 6G16G24G25G17G20G 5
 -19934712.57444 -15533527.71844  21673477.7344   21673479.7614
 -22075352.62844 -17201551.41244  21047589.2834   21047591.5384
 -13432135.77944 -10466571.65144  22701962.2264   22701964.5504
  -1109036.00244   -864185.56944  24976490.3384   24976491.0174
  -7208110.83344  -5616699.56144  24021889.3064   24021892.5304
 -24848337.36844 -19362332.33344  20444466.1824   20444468.8364
 -22873355.33844 -17823387.99444  20961863.7514   20961866.1734
 96  4  2  2  6 30.0000000  0  7G 6G16G24G25G20G 5G17
 -19992898.57444 -15578867.44944  21662405.3694   21662407.2234
 -22088969.30144 -17212161.79044  21044998.0814   21045000.2874
 -13355788.00644 -10407079.88644  22716490.8154   22716493.2914
  -1113355.92444   -867551.75844  24975667.9834   24975672.1784
 -24843298.46944 -19358405.92544  20445425.1204   20445427.6704
 -22810147.99144 -17774135.53144  20973891.9114   20973894.1584
  -7294078.46744  -5683687.24444  24005530.0494   24005533.2344
 96  4  2  2  7  0.0000000  0  7G 6G16G20G24G25G 5G17
 -20050988.58544 -15624132.38344  21651351.1534   21651353.0474
 -22102019.32544 -17222330.62244  21042514.6694   21042516.8674
 -24837671.01844 -19354020.90344  20446496.0874   20446498.6564
 -13279368.71444 -10347532.38844  22731032.9734   22731034.9454
  -1117199.61344   -870546.86544  24974936.7884   24974942.7434
 -22746457.88244 -17724506.90244  20986011.7024   20986014.0944
  -7379865.42744  -5750534.16744  23989205.4344   23989208.6254
 96  4  2  2  7 30.0000000  0  7G 6G16G20G24G25G 5G17
 -20108969.62444 -15669312.40344  21640317.5714   21640319.6664
 -22114473.26944 -17232034.97944  21040144.5564   21040147.0634
 -24831439.05844 -19349164.83944  20447682.0374   20447684.6514
 -13202879.07644 -10287930.08144  22745588.2724   22745590.9374
  -1120555.50244   -873161.84044  24974298.1264   24974302.2204
 -22682281.47144 -17674499.33744  20998224.1014   20998226.4674
  -7465474.90444  -5817242.76844  23972914.3314   23972917.9284
 96  4  2  2  8  0.0000000  0  7G 6G16G20G24G25G 5G17
 -20166863.45144 -15714424.46644  21629300.6974   21629302.8304
 -22126315.09844 -17241262.36144  21037890.9554   21037893.5934
 -24824615.85144 -19343848.06444  20448980.3504   20448982.8494
 -13126343.68144 -10228292.12544  22760152.6674   22760155.0924
  -1123444.87344   -875413.33644  24973748.1784   24973748.5184
 -22617654.07644 -17624140.36744  21010522.4374   21010524.6834
  -7550926.82744  -5883828.60944  23956653.3634   23956657.3804
 96  4  2  2  8 30.0000000  0  7G 6G16G20G24G25G 5G17
 -20224363.29544 -15759229.52644  21618358.9494   21618360.6204
 -22137256.10244 -17249787.79244  21035808.9734   21035811.2524
 -24816922.36144 -19337853.14144  20450444.5234   20450446.6674
 -13049483.08444 -10168400.74744  22774778.7784   22774780.4384
  -1125592.18744   -877086.53844  24973339.7644
 -22552297.43544 -17573213.15544  21022959.4634   21022961.2124
  -7635921.32244  -5950058.00744  23940479.5404   23940481.1134
 96  4  2  2  9  0.0000000  0  7G 6G16G20G24G25G 5G17
 -20281625.01744 -15803849.04144  21607462.3944   21607464.0074
 -22147466.20644 -17257743.70244  21033866.0704   21033868.4094
 -24808532.24844 -19331315.40544  20452041.1684   20452043.2424
 -12972463.32444 -10108385.35244  22789435.2154   22789436.9894
  -1127161.99744   -878309.77244  24973041.1694   24973043.1984
 -22486386.17844 -17521853.78044  21035501.9914   21035503.8114
  -7720619.03844  -6016056.15444  23924362.1724   23924365.7214
 96  4  2  2  9 30.0000000  0  7G 6G16G20G24G25G 5G17
 -20339129.37444 -15848657.61644  21596519.6754   21596521.4724
 -22157425.67844 -17265504.30944  21031971.0164   21031972.9334
 -24799911.54644 -19324597.98344  20453681.6364   20453683.7104
 -12895756.37044 -10048613.70144  22804031.8564   22804034.2174
  -1128633.15044   -879456.18444  24972761.1594   24972765.1724
 -22420395.02344 -17470432.13544  21048059.6524   21048061.4344
  -7805497.03144  -6082194.79244  23908210.1424   23908213.6554
 96  4  2  2 10  0.0000000  0  7G 6G16G20G24G25G 5G17
 -20396553.65244 -15893403.80144  21585592.1944   21585594.0334
 -22166829.41744 -17272831.88744  21030181.5924   21030183.8094
 -24790727.82844 -19317441.85744  20455429.1924   20455431.5604
 -12819023.92244  -9988822.19644  22818633.6134   22818635.8484
  -1129673.63744   -880266.97644  24972562.9074   24972564.9914
 -22354006.16644 -17418700.59144  21060692.8764   21060695.1024
  -7890226.41944  -6148217.63144  23892086.6824   23892091.0124
 96  4  2  2 10 30.0000000  0  7G 6G16G20G24G25G 5G17
 -20454539.35144 -15938587.45044  21574557.9244   21574559.9864
 -22176341.90544 -17280244.19744  21028371.4254   21028373.5724
 -24781636.61844 -19310357.80944  20457159.1644   20457161.6874
 -12742906.33344  -9929509.79244  22833118.2964   22833120.6474
  -1130932.56544   -881247.98844  24972323.5404   24972327.9494
 -22287870.91944 -17367166.65444  21073278.0704   21073280.3714
  -7975450.31544  -6214625.82944  23875868.6454   23875872.3774
 96  4  2  2 11  0.0000000  0  7G 6G16G20G24G25G 5G17
 -20511970.11844 -15983338.68144  21563629.1484   21563631.1634
 -22184821.13744 -17286851.36844  21026757.7754   21026759.8314
 -24771496.87544 -19302456.72244  20459088.5854   20459091.1834
 -12666259.32544  -9869784.87444  22847703.5954   22847706.3604
  -1131273.25444   -881513.44344  24972258.5774   24972261.6914
 -22220852.28044 -17314944.36444  21086031.4504   21086033.6184
  -8060034.48244  -6280535.49944  23859772.8834   23859776.6644
 96  4  2  2 11 30.0000000  0  7G 6G16G20G24G25G 5G17
 -20569100.23844 -16027855.64844  21552757.6034   21552759.5584
 -22192528.86044 -17292857.36544  21025290.9524   21025293.1474
 -24760563.26244 -19293937.03744  20461169.2234   20461171.8194
 -12589331.05244  -9809840.77444  22862342.7694   22862344.7564
  -1130957.07444   -881267.09444  24972318.9514   24972321.4204
 -22153192.70144 -17262222.63544  21098906.6454   21098908.8794
  -8144237.20844  -6346147.96744  23843749.6294   23843753.2834
 96  4  2  2 12  0.0000000  0  7G 6G16G20G24G25G 5G17
 -20626062.07344 -16072241.47944  21541917.9894   21541919.8324
 -22199612.75344 -17298377.26244  21023942.8954   21023945.4374
 -24748993.73944 -19284921.83544  20463370.8434   20463373.3744
 -12512273.33644  -9749795.79944  22877006.2324   22877008.4334
  -1130126.40744   -880619.87744  24972476.8444   24972481.5264
 -22085041.81644 -17209118.06044  21111875.2044   21111877.3894
  -8228197.67144  -6411571.65444  23827772.4534   23827776.7464
 96  4  2  2 12 30.0000000  0  7G 6G16G20G24G25G 5G17
 -20682875.79344 -16116511.89544  21531106.7454   21531108.7344
 -22206082.85144 -17303418.87944  21022711.7154   21022714.4124
 -24736819.52044 -19275435.44244  20465687.6444   20465690.1344
 -12435127.43944  -9689682.11444  22891686.7394   22891689.1704
  -1128806.79044   -879591.58544  24972728.0234   24972732.4864
 -22016404.14844 -17155634.17344  21124936.5464   21124939.0324
  -8311928.66944  -6476816.54744  23811838.9254   23811842.4634
 96  4  2  2 13  0.0000000  0  7G 6G16G20G24G25G 5G17
 -20739549.00644 -16160672.82644  21520322.2864   21520324.3754
 -22211945.58744 -17307987.22644  21021596.0394   21021598.3494
 -24724030.62544 -19265470.07944  20468121.2634   20468123.7454
 -12357911.69044  -9629514.00244  22906380.3074   22906382.8024
  -1126999.30744   -878183.18444  24973071.7144   24973075.1334
 -21947273.42844 -17101766.09544  21138091.7014   21138093.9574
  -8395442.29544  -6541892.05244  23795946.9304   23795950.0934
 96  4  2  2 13 30.0000000  0  7G 6G16G20G24G25G 5G17
 -20796076.37544 -16204720.11244  21509565.4174   21509567.2644
 -22217211.74844 -17312090.70744  21020593.8294   21020596.2634
 -24710630.94244 -19255028.77844  20470671.0844   20470673.5034
 -12280656.03344  -9569314.79944  22921081.6274   22921084.1424
  -1124703.45844   -876394.24044  24973508.8744   24973511.5804
 -21877663.64144 -17047524.71844  21151337.9604   21151340.3284
  -8478747.23144  -6606804.94044  23780094.3454   23780097.9684
 96  4  2  2 14  0.0000000  0  7G 6G16G20G24G25G 5G17
 -20852478.08844 -16248669.48744  21498832.6294   21498834.5684
 -22221892.25744 -17315737.84144  21019703.0844   21019705.4174
 -24696641.88144 -19244128.21944  20473333.1034   20473335.7554
 -12203394.59544  -9509111.08244  22935784.0354   22935786.3564
  -1121943.70244   -874243.81044  24974034.0524   24974035.2144
 -21807612.50644 -16992939.43544  21164668.2284   21164670.6724
  -8561863.69544  -6671570.96944  23764277.9884   23764281.3004
 96  4  2  2 14 30.0000000  0  7G 6G16G20G24G25G 5G17
 -20908645.94144 -16292436.62644  21488144.2044   21488146.1334
 -22225872.06444 -17318838.97244  21018945.8294   21018948.0394
 -24681949.35244 -19232679.50244  20476129.0174   20476131.6224
 -12126006.84244  -9448808.94844  22950510.3574   22950513.1914
  -1118630.29644   -871661.93344  24974664.5044   24974664.2704
 -21737016.26844 -16937929.39844  21178102.1884   21178104.6574
  -8644698.79344  -6736117.75344  23748514.9744   23748519.0074
 96  4  2  2 15  0.0000000  0  7G 6G16G20G24G25G 5G17
 -20964507.76344 -16335965.30744  21477514.0074   21477516.0004
 -22229086.23744 -17321343.50744  21018334.3034   21018336.5664
 -24666487.12144 -19220631.01744  20479071.4094   20479074.0434
 -12048411.73544  -9388345.23144  22965276.3234   22965278.6824
  -1114700.31144   -868599.61444  24975412.8124   24975416.0314
 -21665829.45444 -16882459.17144  21191648.7084   21191651.0544
  -8727192.16644  -6800398.23444  23732816.8994   23732820.6804
 96  4  2  2 15 30.0000000  0  7G 6G16G20G24G25G 5G17
 -21020288.88844 -16379431.10344  21466899.1464   21466900.9604
 -22231753.28544 -17323421.71244  21017826.8544   21017828.7764
 -24650494.66744 -19208169.37144  20482114.6854   20482117.3084
 -11970836.22744  -9327896.78844  22980038.4364   22980040.7914
  -1110389.28744   -865240.26444  24976232.9314   24976234.7354
 -21594293.94144 -16826717.23144  21205261.5854   21205263.9824
  -8809569.06944  -6864587.97244  23717140.9064   23717145.3804
 96  4  2  2 16  0.0000000  0  7G 6G16G20G24G25G 5G17
 -21076274.06844 -16423055.90444  21456245.5284   21456247.4284
 -22234150.11944 -17325289.36044  21017370.8084   21017372.8604
 -24634254.57744 -19195514.76144  20485205.0414   20485207.6644
 -11893548.31144  -9267672.43844  22994745.8864   22994748.3074
  -1105987.66744   -861811.31544  24977070.2824   24977071.2844
 -21522688.12344 -16770920.50944  21218887.7734   21218890.0424
  -8892103.81744  -6928900.69144  23701434.9624   23701438.7894
 96  4  2  2 16 30.0000000  0  7G 6G16G20G24G25G 5G17
 -21132137.31644 -16466585.69544  21445615.0994   21445616.9514
 -22235954.87044 -17326695.64544  21017027.3004   21017029.6874
 -24617431.52544 -19182405.89344  20488406.3524   20488408.9464
 -11816224.12244  -9207419.83144  23009460.0294   23009463.0094
  -1101153.82944   -858045.01444  24977990.4464
 -21450672.05444 -16714804.11444  21232591.7864   21232594.1604
  -8974465.03644  -6993078.20744  23685762.1844   23685765.6334
 96  4  2  2 17  0.0000000  0  7G 6G16G20G24G25G 5G17
 -21187823.88244 -16509977.81444  21435018.2154   21435020.0714
 -22237105.52844 -17327592.24744  21016808.2354   21016810.7064
 -24599970.09344 -19168799.59144  20491729.2304   20491731.7924
 -11738815.46544  -9147101.40444  23024190.4664   23024193.0634
  -1095797.80044   -853871.44944  24979009.5314
 -21378171.05444 -16658309.84444  21246388.2894   21246390.7054
  -9056571.89144  -7057057.50644  23670137.7774   23670142.3874
 96  4  2  2 17 30.0000000  0  7G 6G16G20G24G25G 5G17
 -21243363.43444 -16553255.37744  21424449.3824   21424451.0934
 -22237617.52544 -17327991.19144  21016710.6674   21016713.3504
 -24581904.78344 -19154722.73944  20495166.8954   20495169.2954
 -11661351.13844  -9086739.59144  23038931.3574   23038934.2924
  -1089942.75944   -849309.07644  24980123.6064   24980125.5814
 -21305202.92544 -16601451.58244  21260273.6184   21260276.1424
  -9138441.35444  -7120851.83944  23654558.3664   23654562.4604
 96  4  2  2 18  0.0000000  0  7G 6G16G20G24G25G 5G17
 -21298762.33544 -16596423.34244  21413907.4154   21413909.2734
 -22237504.59844 -17327903.17844  21016732.1334   21016734.8174
 -24563242.80944 -19140180.95644  20498718.2524   20498720.6994
 -11583832.08344  -9026335.13844  23053682.8554   23053685.6444
  -1083582.92744   -844353.34744  24981333.9864   24981334.9904
 -21231763.93744 -16544226.41844  21274248.6074   21274251.2234
  -9220074.59344  -7184462.09644  23639024.1654   23639027.7304
 96  4  2  2 18 30.0000000  0  7G 6G16G20G24G25G 5G17
 -21354038.92344 -16639495.99544  21403388.6884   21403390.5824
 -22236793.86344 -17327349.34144  21016867.3554   21016869.9194
 -24544005.11944 -19125190.56644  20502379.0294   20502381.5264
 -11506273.94744  -8965900.24044  23068441.6604   23068444.0854
  -1076738.39644   -839019.96844  24982636.7354   24982642.1004
 -21157883.36944 -16486657.16044  21288307.6474   21288310.1994
  -9301494.53144  -7247906.13644  23623530.4564   23623533.8064
 96  4  2  2 19  0.0000000  0  7G 6G16G20G24G25G 5G17
 -21409207.54544 -16682484.52244  21392890.3804   21392892.2974
 -22235493.07444 -17326335.72344  21017114.8974   21017117.1874
 -24524203.18044 -19109760.49744  20506147.2604   20506149.7884
 -11428674.14544  -8905432.86744  23083208.4744   23083210.7304
  -1069437.24144   -833330.79844  24984025.7924
 -21083591.10344 -16428767.10244  21302444.8964   21302447.4884
  -9382713.11944  -7311193.28444  23608074.8234   23608078.2044
 96  4  2  2 19 30.0000000  0  7G 6G16G20G24G25G 5G17
 -21464241.48544 -16725368.10344  21382417.7774   21382419.7124
 -22233597.58744 -17324858.70344  21017475.7424   21017477.9174
 -24503809.71344 -19093869.49644  20510027.9494   20510030.6674
 -11351010.63544  -8844915.85644  23097987.3164   23097989.1944
  -1061677.97644   -827284.60744  24985502.3834
 -21008895.17944 -16370562.50144  21316659.1174   21316661.7764
  -9463725.77744  -7374319.99144  23592658.5844   23592662.1714
 96  4  2  2 20  0.0000000  0  7G 6G16G20G24G25G 5G17
 -21519142.89144 -16768148.40844  21371970.3004   21371972.2884
 -22231130.40344 -17322936.20444  21017945.0824   21017947.4154
 -24482808.95544 -19077505.28144  20514024.2154   20514026.9614
 -11273290.30544  -8784354.56744  23112776.9694   23112779.3164
  -1053464.39144   -820884.43844  24987065.5124
 -20933808.82544 -16312053.66944  21330947.6774   21330950.5074
  -9544542.68244  -7437294.15144  23577279.6964   23577282.5394
 96  4  2  2 20 30.0000000  0  7G 6G16G20G24G25G 5G17
 -21573939.87244 -16810847.34644  21361542.7904   21361544.8074
 -22228111.01944 -17320583.41744  21018519.5714   21018522.0734
 -24461227.77044 -19060688.78444  20518131.0194   20518133.7694
 -11195547.12544  -8723775.46744  23127570.9804   23127573.2024
  -1044838.83744   -814163.20544  24988706.6794
 -20858367.30844 -16253268.08344  21345303.7894   21345306.2514
  -9625197.36344  -7500141.91444  23561931.3234   23561934.4154
 96  4  2  2 21  0.0000000  0  7G 6G16G20G24G25G 5G17
 -21628614.09844 -16853450.63044  21351138.6654   21351140.5974
 -22224515.22244 -17317781.47944  21019203.6774   21019206.3694
 -24439065.36744 -19043419.38944  20522348.3304   20522351.1014
 -11117788.15144  -8663184.06844  23142368.0804   23142370.1564
  -1035787.67044   -807110.35144  24990429.2854
 -20782555.16744 -16194193.70044  21359730.3454   21359732.9434
  -9705681.32944  -7562856.64844  23546615.8804   23546619.1434
 96  4  2  2 21 30.0000000  0  7G 6G16G20G24G25G 5G17
 -21683130.58744 -16895931.00644  21340764.5094   21340766.3944
 -22220320.76544 -17314513.04844  21020001.9774   21020004.4484
 -24416307.50644 -19025686.00244  20526679.1244   20526681.7144
 -11040012.49844  -8602579.66644  23157168.1964   23157170.9814
  -1026297.85044                  24992235.1324
 -20706352.71244 -16134815.17944  21374231.2044   21374233.5014
  -9785970.72744  -7625419.77744  23531337.2694   23531339.5554
 96  4  2  2 22  0.0000000  0  7G 6G16G20G24G25G 5G17
 -21737456.86744 -16938263.16344  21330426.5994   21330428.5634
 -22215488.47044 -17310747.60044  21020921.5494   21020923.8704
 -24392927.67444 -19007467.96544  20531128.1164   20531130.7774
 -10962206.80744  -8541951.86244  23171974.1834   23171976.7904
  -1016349.99344   -791963.79444  24994128.2524   24994130.8384
 -20629714.59444 -16075097.19244  21388814.9784   21388817.2964
  -9866029.21444  -7687802.96444  23516102.6194   23516105.7814
 96  4  2  2 22 30.0000000  0  7G 6G16G20G24G25G 5G17
 -21791572.64944 -16980431.29844  21320128.6894   21320130.5234
 -22210000.59944 -17306471.31944  21021965.9824   21021968.3124
 -24368934.73144 -18988772.18344  20535693.8034   20535696.5464
 -10884370.13544  -8481299.90544  23186786.0744   23186788.4484
  -1005950.13544   -783860.39444  24996107.2374   24996106.7824
 -20552630.18144 -16015031.43744  21403483.6514   21403486.0174
  -9945850.21944  -7750001.11444  23500913.2384   23500916.8284
 96  4  2  2 23  0.0000000  0  7G 6G16G20G24G25G 5G17
 -21845498.03844 -17022451.07044  21309867.0064   21309868.8914
 -22203900.83144 -17301718.23444  21023126.6574   21023128.9834
 -24344351.30044 -18969616.28244  20540372.0004   20540374.5254
 -10806526.06044  -8420642.06344  23201599.2134   23201601.5814
   -995132.46844   -775431.06644  24998165.4064
 -20475134.32944 -15954645.08344  21418230.7094   21418233.2174
 -10025459.22144  -7812034.07044  23485764.2804   23485767.7224
 96  4  2  2 23 30.0000000  0  7G 6G16G20G24G25G 5G17
 -21899281.85344 -17064360.52544  21299632.2974   21299634.1434
 -22197248.88244 -17296534.87944  21024392.2664   21024394.6824
 -24319206.04044 -18950022.58944  20545156.9874   20545159.5814
 -10728707.68244  -8360004.57344  23216407.7474   23216410.0534
   -983940.35744                  25000295.4954
 -20397265.71944 -15893968.26144  21433048.6214   21433050.9984
 -10104895.74844  -7873932.61144  23470648.0734   23470651.5594
 96  4  2  2 24  0.0000000  0  7G 6G16G20G24G25G 5G17
 -21952850.67544 -17106102.45544  21289438.4654   21289440.3114
 -22189966.51244 -17290860.29244  21025778.0224   21025780.4794
 -24293422.31044 -18929931.38544  20550063.4154   20550066.0244
 -10650819.96244  -8299312.79944  23231229.1814   23231231.9984
   -972273.35544   -757618.76244  25002515.7904
 -20318928.62044 -15832926.38144  21447955.7424   21447957.9944
 -10184082.68244  -7935636.67344  23455579.0954   23455583.0034
 96  4  2  2 24 30.0000000  0  7G 6G16G20G24G25G 5G17
 -22006266.70544 -17147725.32544  21279273.8284   21279275.6714
 -22182097.78844 -17284728.80644  21027275.4294   21027277.6614
 -24267059.94144 -18909389.29444  20555079.8914   20555082.5824
 -10572902.19344  -8238597.66044  23246056.3004   23246058.5354
   -960169.88744   -748187.50744  25004819.1734   25004821.3964
 -20240186.13244 -15771568.61244  21462939.8934   21462942.2504
 -10263076.79144  -7997190.48344  23440546.9114   23440550.0684
 96  4  2  2 25  0.0000000  0  7G 6G16G20G24G25G 5G17
 -22059562.07844 -17189254.17644  21269132.0074   21269133.9584
 -22173659.26044 -17278153.31244  21028881.4004   21028883.6244
 -24240136.95844 -18888410.35744  20560203.2634   20560206.1334
 -10494975.11444  -8177875.26044  23260885.4424   23260887.9324
   -947630.19844   -738416.30044  25007205.3364   25007206.5354
 -20161060.33244 -15709912.15644  21477997.1094   21477999.5004
 -10341893.03144  -8058605.69244  23425548.7844   23425551.9844
 96  4  2  2 25 30.0000000  0  7G 6G16G20G24G25G 5G17
 -22112688.34844 -17230651.25844  21259022.3664   21259024.1934
 -22164590.96744 -17271087.09244  21030607.0944   21030609.2174
 -24212616.06544 -18866965.51744  20565440.3304   20565443.0604
 -10416996.08344  -8117112.38444  23275724.3064   23275726.9864
   -934593.48444   -728257.81144  25009685.9694   25009687.7694
 -20081501.62144 -15647918.36744  21493136.5114   21493138.9824
 -10420483.55544  -8119845.02344  23410593.1754   23410596.5454
 96  4  2  2 26  0.0000000  0  7G 6G16G20G24G25G 5G17
 -22165647.54144 -17271918.15344  21248944.5914   21248946.4744
 -22154879.06544 -17263519.35444  21032455.2374   21032457.3304
 -24184503.59944 -18845059.70844  20570789.9734   20570792.6784
 -10338966.02844  -8056309.75844  23290573.1104   23290575.3094
   -921064.01444   -717715.34544  25012260.5564   25012261.7374
 -20001521.10444 -15585595.90744  21508356.3204   21508358.6524
 -10498856.33244  -8180914.66944  23395679.4414   23395682.7584
 96  4  2  2 26 30.0000000  0  7G 6G16G20G24G25G 5G17
 -22218454.21544 -17313066.20044  21238895.7784   21238897.6554
 -22144533.64844 -17255457.97244  21034423.7774   21034426.1414
 -24155804.65044 -18822696.90144  20576251.1144   20576253.8154
 -10260898.49344  -7995477.93144  23305428.6924   23305431.7164
   -907068.76344   -706810.02644  25014923.8474   25014926.9034
 -19921149.24644 -15522968.50144  21523650.6254   21523653.1384
 -10577018.39644  -8241820.12944  23380805.8434   23380809.3154
 96  4  2  2 27  0.0000000  0  7G 6G16G20G24G25G 5G17
 -22270826.10244 -17353875.44144  21228929.8514   21228931.1154
 -22133310.34544 -17246712.51444  21036559.5774   21036561.4514
 -24126245.54444 -18799663.83444  20581876.3274   20581878.3664
 -10182515.21244  -7934400.04644  23320344.6514   23320347.0614
   -892350.01944   -695340.85844  25017725.0644   25017727.2064
 -19840118.42644 -15459827.60244  21539070.4004   21539072.3234
 -10654695.63044  -8302347.79044  23366024.1934   23366026.7094
 96  4  2  2 27 30.0000000  0  7G 6G16G20G24G25G 5G17
 -22322730.94044 -17394320.75744  21219052.7384   21219054.1384
 -22121189.48444 -17237267.67144  21038866.1664   21038867.8194
 -24095790.02744 -18775932.27644  20587671.7494   20587673.8004
 -10103781.76244  -7873049.31844  23335327.2394   23335329.1694
   -876888.12444   -683292.72244  25020667.2464   25020667.1014
 -19758399.78344 -15396150.74744  21554620.8594   21554622.8444
 -10731855.46544  -8362472.30344  23351341.2344   23351343.7604
 96  4  2  2 28  0.0000000  0  7G 6G16G20G24G25G 5G17
 -22375194.60644 -17435201.53644  21209068.9124   21209070.7704
 -22109203.59244 -17227928.01244  21041146.8424   21041148.8994
 -24065461.82744 -18752299.94044  20593442.9624   20593445.6834
 -10025722.51544  -7812223.95444  23350181.1934   23350184.7164
   -861712.81244   -671467.87044  25023554.5704   25023557.9384
 -19677015.81844 -15332734.68544  21570107.6164   21570109.9494
 -10809509.14344  -8422981.62944  23336564.2254   23336568.1724
 96  4  2  2 28 30.0000000  0  7G 6G16G20G24G25G 5G17
 -22428058.03644 -17476393.81044  21199009.4604   21199011.1974
 -22097223.30544 -17218592.70344  21043426.6194   21043428.5934
 -24035121.16444 -18728657.87544  20599216.6064   20599219.0174
  -9948197.09344  -7751814.54844  23364933.9924   23364936.9564
   -846686.03744   -659758.74944  25026414.2834   25026415.9814
 -19595830.31144 -15269473.25344  21585556.7204   21585558.9774
 -10887497.89644  -8483752.04944  23321723.3034   23321726.2784
 96  4  2  2 29  0.0000000  0  7G 6G16G20G24G25G 5G17
 -22479778.35844 -17516695.34044  21189167.4894   21189168.4864
 -22083723.70944 -17208073.51244  21045995.4854   21045996.9794
 -24003244.60144 -18703818.99944  20605282.6144   20605284.4854
  -9869690.86944  -7690640.85544  23379873.3154   23379875.2794
   -830280.62144   -646975.36744  25029536.4014   25029537.5594
 -19513312.40344 -15205173.58444  21601259.5154   21601261.5304
 -10964296.51644  -8543595.07344  23307109.1484   23307111.6124
 96  4  2  2 29 30.0000000  0  7G 6G16G20G24G25G 5G17
 -22531209.48544 -17556771.53244  21179380.5194   21179381.7984
 -22069530.96844 -17197014.21944  21048696.1964   21048697.8634
 -23970686.77344 -18678449.27244  20611478.2344   20611480.1064
  -9791076.22244  -7629382.70044  23394833.2324   23394835.3794
   -813346.82744   -633780.28744  25032758.8994   25032758.6594
 -19430309.10244 -15140495.70444  21617054.5084   21617056.0924
 -11040755.51244  -8603173.48544  23292559.3664   23292560.9024
 96  4  2  2 30  0.0000000  0  7G 6G16G20G24G25G 5G17
 -22582889.84644 -17597041.92844  21169546.0324   21169547.0654
 -22055170.27144 -17185824.05244  21051429.1084   21051430.5664
 -23937993.23744 -18652973.79944  20617699.4914   20617701.4694
  -9712898.12644  -7568464.73444  23409710.0484   23409711.7974
   -796444.74344   -620609.90044  25035975.0094
 -19347379.51044 -15075875.26144  21632835.6274   21632837.5764
 -11117426.66644  -8662917.18944  23277969.3994   23277972.2034
 96  4  2  2 30 30.0000000  0  7G 6G16G20G24G25G 5G17
 -22634447.97744 -17637217.08244  21159734.8544   21159735.8274
 -22040264.18944 -17174208.90844  21054265.7164   21054267.2094
 -23904782.96344 -18627095.67544  20624019.2024   20624021.2994
  -9634780.74344  -7507594.03644  23424575.3864   23424576.4954
   -779198.38944   -607172.35144  25039257.0764
 -19264159.24344 -15011028.32244  21648671.9414   21648673.6554
 -11193953.07044  -8722548.12844  23263406.8784   23263409.9554
 96  4  2  2 31  0.0000000  0  7G 6G16G20G24G25G 5G17
 -22686051.80344 -17677427.84544  21149914.9374   21149916.4294
 -22024961.14444 -17162284.44644  21057177.7574   21057179.4564
 -23871215.63844 -18600939.32944  20630406.9004   20630409.0244
  -9556883.21644  -7446894.69344  23439398.6094   23439400.9024
   -761757.09744   -593583.35644  25042575.6944
 -19180798.89344 -14946072.23044  21664534.8364   21664536.6994
 -11270496.94444  -8782192.66844  23248841.1524   23248842.8714
 96  4  2  2 31 30.0000000  0  7G 6G16G20G24G25G 5G17
 -22737451.31044 -17717479.40044  21140133.9264   21140134.9974
 -22008989.26944 -17149838.81444  21060217.0324   21060218.4874
 -23837027.78844 -18574299.45444  20636912.6214   20636914.4654
  -9478930.56744  -7386152.38844  23454232.4854   23454234.6324
   -743852.09144   -579633.25044  25045982.9864   25045984.8724
 -19097037.26444 -14880803.45144  21680474.2324   21680475.9544
 -11346790.56244  -8841642.21444  23234322.8604   23234324.9584
 96  4  2  2 32  0.0000000  0  7G 6G16G20G24G25G 5G17
 -22788545.21844 -17757292.82944  21130410.9254   21130412.3784
 -21992265.17944 -17136807.04044  21063399.3374   21063401.0344
 -23802117.03544 -18547096.28044  20643556.0184   20643558.0494
  -9400813.49244  -7325281.93044  23469097.6184   23469098.1824
   -725372.25944   -565234.95444  25049499.6164
 -19012771.86644 -14815142.12344  21696509.3744   21696511.3764
 -11422737.05344  -8900821.25844  23219870.6474   23219873.8474
 96  4  2  2 32 30.0000000  0  7G 6G16G20G24G25G 5G17
 -22839636.06944 -17797103.87044  21120688.7254   21120690.0374
 -21975116.07244 -17123444.08944  21066662.6674   21066664.3904
 -23766796.57944 -18519573.86144  20650277.1764   20650279.3564
  -9322838.24644  -7264522.02544  23483935.9194   23483937.6174
   -706605.27944   -550612.43144  25053070.8844   25053072.3644
 -18928289.71044 -14749311.88944  21712585.8574   21712587.7994
 -11498641.39944  -8959967.46244  23205426.4564   23205429.6334
 96  4  2  2 33  0.0000000  0  7G 6G16G20G24G25G 5G17
 -22890438.49144 -17836690.16344  21111021.4044   21111022.4664
 -21957255.39544 -17109526.66544  21070061.4674   21070063.0364
 -23730794.79844 -18491520.53144  20657128.0714   20657129.9714
  -9244729.91244  -7203658.38244  23498799.4524   23498800.7444
   -687278.85644   -535553.98144  25056748.6154   25056750.1604
 -18843296.19244 -14683083.18344  21728759.5914   21728761.4024
 -11574217.26644  -9018857.71044  23191044.8124   23191047.7154
 96  4  2  2 33 30.0000000  0  7G 6G16G20G24G25G 5G17
 -22940738.66544 -17875885.09344  21101449.6774   21101450.9154
 -21938486.08744 -17094901.21944  21073633.1174   21073634.8144
 -23693899.31644 -18462770.81444  20664149.0644   20664150.9924
  -9166281.61944  -7142529.85044  23513727.7084   23513729.1794
   -667200.09144   -519907.36144  25060569.2994   25060573.6134
 -18757587.90244 -14616297.51844  21745069.3524   21745071.2434
 -11649262.19544  -9077334.23844  23176764.2314   23176767.0664
 96  4  2  2 34  0.0000000  0  7G 6G16G20G24G25G 5G17
 -22990872.43344 -17914950.36144  21091909.5454   21091910.9404
 -21919173.21844 -17079852.22644  21077308.2194   21077309.8194
 -23656457.42044 -18433595.32244  20671274.0284   20671276.1034
  -9087845.14744  -7081410.53144  23528653.7554   23528654.4994
   -646728.38344   -503955.21444  25064464.6284   25064465.2564
 -18671512.12544 -14549225.50444  21761448.9284   21761451.0434
 -11724133.70044  -9135675.63844  23162516.4434   23162519.6674
 96  4  2  2 34 30.0000000  0  8G 6G26G16G20G24G25G 5G17
 -23040936.55844 -17953961.36044  21082382.6864   21082383.7054
         0.12954                  25105528.5284
 -21899416.45944 -17064457.33644  21081067.7544   21081069.3744
 -23618580.85044 -18404081.11644  20678481.8304   20678483.8604
  -9009517.73744  -7020376.18044  23543559.0174   23543559.5074
   -625978.22044   -487786.16744  25068413.9654   25068416.1924
 -18585189.41244 -14481961.06244  21777875.6174   21777877.5464
 -11798927.30144  -9193956.33644  23148283.7064   23148286.7044
 96  4  2  2 35  0.0000000  0  8G 6G26G16G20G24G25G 5G17
 -23090770.76744 -17992793.20844  21072899.4444   21072900.7744
    -77275.69644                  25090823.1014
 -21879046.75844 -17048584.83044  21084943.9464   21084945.8304
 -23580110.65944 -18374104.35544  20685802.4684   20685804.4134
  -8931146.14944  -6959307.41944  23558472.5854   23558474.6924
   -604813.01844   -471291.74944  25072441.2484   25072443.4584
 -18498485.56344 -14414399.63744  21794374.6724   21794376.6144
 -11873474.77944  -9252045.24244  23134097.8184   23134100.2604
 96  4  2  2 35 30.0000000  0  8G 6G26G16G20G24G25G 5G17
 -23140496.94844 -18031540.87544  21063436.8134   21063437.9364
   -154766.03444                  25076076.9864
 -21858192.69644 -17032334.89744  21088912.3494   21088914.3014
 -23541161.95744 -18343754.72444  20693214.1454   20693216.1034
  -8852845.76044  -6898294.13344  23573372.6264   23573375.6694
   -583349.99644   -454561.90444  25076525.5724   25076527.1274
 -18411544.76644 -14346653.57844  21810918.9354   21810920.9194
 -11947902.43544  -9310040.78844  23119934.5074   23119937.5994
 96  4  2  2 36  0.0000000  0  8G 6G26G16G20G24G25G 5G17
 -23190280.73044 -18070333.42444  21053963.3804   21053964.5114
   -232643.62944                  25061257.4854
 -21837013.00544 -17015831.22844  21092942.7844   21092944.7414
 -23501906.64944 -18313166.18744  20700684.2254   20700686.2934
  -8774775.14444  -6837459.88944  23588228.8984   23588231.0064
   -561726.87344   -437702.59944  25080640.7844   25080642.3604
 -18324537.17744 -14278855.48144  21827475.9184   21827478.2454
 -12022367.33744  -9368065.35244  23105764.4894   23105767.1954
 96  4  2  2 36 30.0000000  0  7G 6G16G20G24G25G 5G17
 -23239955.34944 -18109040.90944  21044510.5444   21044511.5624
 -21815327.48244 -16998933.39844  21097069.5004   21097071.2524
 -23462171.36444 -18282203.63944  20708245.6504   20708247.7184
  -8696775.75344  -6776681.16344  23603071.7244   23603072.1574
   -539780.81944   -420577.65644  25084816.6914   25084818.6644
 -18237302.00044 -14210880.03344  21844076.4064   21844078.4274
 -12096680.71944  -9425971.84844  23091623.0844   23091625.4624
 96  4  2  2 37  0.0000000  0  6G 6G16G20G24G 5G17
 -23289333.09644 -18147517.07144  21035114.1354   21035115.6514
 -21792946.97744 -16981494.03144  21101328.2594   21101330.0754
 -23421759.41044 -18250713.82244  20715935.7084   20715937.8044
  -8618672.14844  -6715821.22644  23617934.4214   23617936.4564
 -18149641.92944 -14142573.49944  21860757.6224   21860759.8704
 -12170655.95044  -9483614.85544  23077545.9434   23077547.6124
 96  4  2  2 37 30.0000000  0  6G 6G16G24G 5G17G20
 -23338432.68944 -18185776.48644  21025770.8284   21025772.1894
 -21769920.58144 -16963551.36744  21105709.9324   21105711.7484
  -8540500.37044  -6654908.16044  23632809.9994   23632811.7254
 -18061571.87344 -14073947.49344  21877516.8804   21877518.8664
 -12244327.01744  -9541020.85144  23063527.1184   23063530.2934
 -23380699.02044 -18218718.72044  20723749.2744   20723751.3604
 96  4  2  2 38  0.0000000  0  6G 6G16G24G 5G17G20
 -23387126.94744 -18223720.05744  21016504.7034   21016506.0244
 -21746132.92244 -16945015.51544  21110236.4984   21110238.3344
  -8462154.08544  -6593859.11244  23647718.8084   23647720.6414
 -17972965.09444 -14004903.26644  21894378.2774   21894380.1274
 -12317559.82444  -9598085.33944  23049591.0804   23049593.5694
 -23338875.94844 -18186129.32244  20731707.8784   20731710.0014
 96  4  2  2 38 30.0000000  0  6G 6G16G24G 5G17G20
 -23435630.45444 -18261514.99844  21007274.8264   21007275.9864
 -21721791.64844 -16926048.27744  21114868.4924   21114870.3514
  -8383854.90544  -6532846.78144  23662618.5694   23662620.6354
 -17884034.91944 -13935607.04444  21911301.0004   21911302.9004
 -12390586.82844  -9654989.46144  23035694.4064   23035697.4394
 -23296510.28344 -18153117.12944  20739769.7384   20739772.1164
 96  4  2  2 39  0.0000000  0  6G 6G16G20G24G 5G17
 -23484007.05744 -18299211.04544  20998069.0174   20998070.2404
 -21696953.82744 -16906694.11744  21119595.0564   21119596.6754
 -23253674.21944 -18119738.39344  20747921.2014   20747923.2884
  -8305651.81244  -6471909.31944  23677500.2384   23677503.3914
 -17794839.92144 -13866104.46344  21928274.2784   21928276.3134
 -12463496.75044  -9711802.35544  23021820.1414   23021823.3024
 96  4  2  2 39 30.0000000  0  7G16G 6G20G24G23G 5G17
 -21671563.15544 -16886909.16944  21124426.8494   21124428.4454
 -23532216.01944 -18336776.46444  20988895.2414   20988896.2794
 -23210326.55744 -18085961.01644  20756169.9764   20756172.2574
  -8227488.72244  -6411003.01744  23692374.0474   23692376.6634
        -0.95054                  25193043.8274
 -17705341.64944 -13796365.56044  21945305.1994   21945307.1084
 -12536245.27844  -9768489.48944  23007976.7704   23007978.9784
 96  4  2  2 40  0.0000000  0  7G16G24G23G 5G17G 6G20
 -21645481.31744 -16866585.64744  21129390.0444   21129391.4834
  -8149244.31744  -6350033.38144  23707263.6094   23707265.3574
   -107256.32844                  25172632.1864
 -17615440.04244 -13726312.37144  21962412.9454   21962414.8494
 -12608731.56044  -9824972.27044  22994182.8424   22994186.0004
 -23580166.70644 -18374140.63244  20979770.6034   20979771.6744
 -23166369.65544 -18051708.91044  20764534.8394   20764537.1014
 96  4  2  2 40 30.0000000  0  6G16G24G 5G17G 6G20
 -21618742.36644 -16845750.08944  21134478.2744   21134480.0764
  -8070946.42344  -6289022.03344  23722163.2794   23722165.7554
 -17525179.78844 -13655979.71444  21979588.7924   21979590.9294
 -12681002.56444  -9881287.30244  22980430.2474   22980432.5034
 -23627902.18044 -18411337.09744  20970686.7594   20970687.9734
 -23121842.82944 -18017012.71144  20773008.0354   20773010.3804
 96  4  2  2 41  0.0000000  0  7G16G 6G26G20G24G 5G17
 -21591517.83444 -16824536.15344  21139658.9764   21139660.4814
 -23675574.81844 -18448484.59844  20961614.7594   20961616.0624
         0.22954                  24912261.7914
 -23076891.73144 -17981985.90144  20781561.8964   20781564.0244
  -7992756.07044  -6228094.49944  23737042.3094   23737044.5244
 -17434724.54744 -13585495.11944  21996801.9304   21996804.0194
 -12753181.87344  -9937530.88944  22966694.7984   22966698.0084
 96  4  2  2 41 30.0000000  0  8G26G 6G16G20G24G23G 5G17
    -78688.11744                  24897287.8024
 -23723041.23944 -18485471.41944  20952582.1724   20952583.8684
 -21563689.71744 -16802851.89944  21144954.4174   21144956.4584
 -23031380.85244 -17946522.89744  20790222.3424   20790224.7784
  -7914550.05244  -6167154.75444  23751924.3704   23751926.2874
        -0.52354                  25111375.4334
 -17343942.29544 -13514755.71644  22014077.2294   22014079.4774
 -12825110.56244  -9993579.18944  22953007.2244   22953010.2644
 96  4  2  2 42  0.0000000  0  8G26G 6G16G20G24G23G 5G17
   -157296.42744                  24882329.3984
 -23770144.61944 -18522175.34044  20943618.8524   20943620.1074
 -21535132.44644 -16780599.46744  21150388.5274   21150390.3394
 -22985162.54344 -17910508.63844  20799017.4534   20799019.6334
  -7836183.15344  -6106089.64744  23766837.0964   23766838.7114
   -107159.18444                  25090983.7204
 -17252680.20844 -13443642.41144  22031443.8734   22031445.9414
 -12896639.64344 -10049316.09944  22939395.7594   22939398.3674
 96  4  2  2 42 30.0000000  0  7G16G26G24G 5G17G 6G20
 -21505983.97044 -16757886.36444  21155935.1414   21155937.4934
   -235940.65244   -183848.81744  24867363.6284
  -7757771.92244  -6044989.99644  23781758.2404   23781760.5834
 -17161056.63544 -13372247.42944  22048879.1744   22048881.7824
 -12967862.07144 -10104814.06044  22925842.3094   22925844.5384
 -23816982.19544 -18558672.14944  20934705.8354   20934707.6014
 -22938340.07244 -17874023.61944  20807927.3744   20807930.0874
 96  4  2  2 43  0.0000000  0  7G26G 6G16G20G24G 5G17
   -315114.48044                  24852296.9604
 -23864022.29844 -18595326.76244  20925754.3214   20925756.0464
 -21476732.38344 -16735092.90844  21161501.6114   21161503.9574
 -22891399.04444 -17837446.21344  20816860.0774   20816862.8464
  -7679808.39544  -5984239.20644  23796594.1304   23796596.6784
 -17069556.22244 -13300948.41544  22066291.1034   22066293.8894
 -13039254.41744 -10160444.42744  22912256.8514   22912260.0874
 96  4  2  2 43 30.0000000  0  8G26G 6G16G20G24G23G 5G17
   -394167.05744   -307141.98444  24837253.9044
 -23910596.85544 -18631618.61244  20916891.5594   20916893.2644
 -21446709.66844 -16711698.57544  21167214.9104   21167217.1084
 -22843686.77044 -17800267.82944  20825939.3574   20825942.1134
  -7601618.46644  -5923312.01844  23811473.3704   23811476.3184
        -0.77054         0.24054  25029717.6104
 -16977520.20644 -13229232.04944  22083804.8834   22083807.8224
 -13110174.95244 -10215707.15444  22898761.0104   22898763.8404
 96  4  2  2 44  0.0000000  0  8G26G 6G16G20G24G23G 5G17
   -473266.31944   -368777.71844  24822201.8384
 -23956897.13644 -18667696.74444  20908080.8734   20908082.6214
 -21416087.23644 -16687836.93144  21173042.1784   21173044.1724
 -22795382.01044 -17762627.75744  20835131.4114   20835134.2474
  -7523375.67144  -5862343.60544  23826362.3484   23826365.1664
   -107246.44144    -83567.73144  25009309.1174
 -16885131.65544 -13157240.97944  22101385.9994   22101389.0364
 -13180817.15944 -10270752.99244  22885318.2324   22885321.4404
 96  4  2  2 44 30.0000000  0  8G26G 6G16G20G24G23G 5G17
   -552460.49144   -430487.34644  24807131.7424   24807134.4104
 -24002997.74344 -18703619.29144  20899308.1614   20899309.9004
 -21384922.52544 -16663552.73244  21178972.5584   21178974.6564
 -22746570.24144 -17724592.61644  20844419.9714   20844422.7804
  -7445171.31844  -5801405.15844  23841244.3034   23841247.3814
   -214493.13444   -167136.46144  24988900.6824
 -16792494.13544 -13085055.90744  22119014.3154   22119017.2254
 -13251266.77044 -10325648.75944  22871912.1624   22871915.2144
 96  4  2  2 45  0.0000000  0  8G26G 6G16G20G24G23G 5G17
   -631736.77544   -492261.06444  24792045.8304   24792045.8024
 -24048905.61044 -18739391.64344  20890572.1514   20890573.8024
 -21353203.48144 -16638836.58344  21185008.3964   21185010.6844
 -22697250.42044 -17686161.59444  20853805.2914   20853808.1054
  -7367005.60744  -5740496.80644  23856118.6644   23856120.5514
   -321721.98544   -250691.31644  24968495.4594
 -16699605.53144 -13012675.17944  22136690.4174   22136693.1834
 -13321540.12744 -10380407.19244  22858539.6024   22858542.8164
 96  4  2  2 45 30.0000000  0  8G26G16G 6G20G24G23G 5G17
   -711053.24244   -554066.04144  24776952.3644
 -21320906.44744 -16613670.05444  21191154.2074   21191156.3994
 -24094625.57744 -18775017.58244  20881871.9504   20881873.6024
 -22647409.27444 -17647324.35444  20863289.7254   20863292.5764
  -7288852.26844  -5679598.10244  23870990.7124   23870992.4504
   -428913.65544   -334217.21544  24948097.4254
 -16606443.75544 -12940081.60044  22154418.4614   22154421.4664
 -13391632.72144 -10435024.77544  22845201.3434   22845204.4524
 96  4  2  2 46  0.0000000  0  8G26G 6G16G20G24G23G 5G17
   -790364.72044   -615867.07444  24761859.9444   24761863.0454
 -24140129.44244 -18810475.13544  20873213.0134   20873214.4494
 -21288008.54244 -16588035.30744  21197414.5484   21197416.5194
 -22597021.36644 -17608061.06044  20872878.3084   20872880.8274
  -7210693.88444  -5618695.46744  23885863.8564   23885864.9654
   -536054.28844   -417703.32144  24927709.4994
 -16512981.39444 -12867253.79044  22172203.8714   22172206.1814
 -13461515.36244 -10489478.74744  22831903.2594   22831906.3764
 96  4  2  2 46 30.0000000  0  8G26G 6G16G20G24G23G 5G17
   -869416.45344   -677465.85944  24746816.9104   24746817.8754
 -24185121.87644 -18845534.16944  20864651.1844   20864652.7414
 -21254246.02444 -16561726.84344  21203839.2434   21203841.5424
 -22545808.48544 -17568154.93344  20882623.7634   20882626.2774
  -7132244.97144  -5557566.45644  23900792.3194   23900794.2204
   -642875.11544                  24907382.2174
 -16418938.86944 -12793973.91244  22190099.5534   22190101.8424
 -13530898.10744 -10543543.19644  22818700.0554   22818703.1104
 96  4  2  2 47  0.0000000  0  8G 6G26G16G20G24G23G 5G17
 -24230497.30944 -18880891.64144  20856016.4164   20856018.1514
   -949131.18744   -739581.17744  24731647.2404   24731650.4514
 -21220527.62244 -16535452.75744  21210255.5754   21210257.9744
 -22494663.44444 -17528301.66044  20892356.2514   20892359.0774
  -7054386.96244  -5496897.88544  23915607.9004   23915609.7544
   -750277.00444   -584629.90244  24886943.7964
 -16325176.11944 -12720912.03444  22207942.0004   22207944.7114
 -13600660.56944 -10597903.53444  22805424.5584   22805427.6284
 96  4  2  2 47 30.0000000  0  8G 6G26G16G20G24G23G 5G17
 -24275523.30744 -18915976.82644  20847448.2634   20847450.0354
  -1028790.37744   -801653.24944  24716488.7204   24716491.4264
 -21186146.34344 -16508662.13944  21216798.1204   21216800.4774
 -22442883.84244 -17487953.92044  20902209.5354   20902212.2684
  -6976417.55144  -5436142.51944  23930445.0414   23930447.5754
   -857557.23244   -668224.78744  24866529.1074   24866533.1224
 -16230984.93044 -12647516.30944  22225865.9414   22225868.2454
 -13670085.54744 -10652000.88744  22792213.3634   22792216.4394
 96  4  2  2 48  0.0000000  0  8G 6G26G16G20G24G23G 5G17
 -24320180.46644 -18950774.60444  20838950.3194   20838951.9924
  -1108409.93744   -863694.39244  24701337.7204   24701339.2444
 -21151113.20644 -16481363.57944  21223464.8174   21223467.0984
 -22390472.34744 -17447113.80244  20912183.2504   20912185.9714
  -6898351.68544  -5375311.98644  23945300.6154   23945303.6524
   -964706.02344   -751717.24044  24846139.2434   24846143.2154
 -16136387.81244 -12573804.26944  22243867.2284   22243869.9274
 -13739166.23944 -10705829.97344  22779067.8224   22779071.1524
 96  4  2  2 48 30.0000000  0  8G26G 6G16G20G24G23G 5G17
  -1188045.86644   -925748.33344  24686183.4624   24686185.7184
 -24364529.99444 -18985332.67544  20830510.9084   20830512.5594
 -21115479.03044 -16453596.67944  21230245.7404   21230247.7404
 -22337492.52344 -17405830.83844  20922264.9784   20922267.7634
  -6820255.43544  -5314457.77344  23960161.8304   23960164.5144
  -1071764.26344   -835139.15344  24825766.7804   24825771.0284
 -16041446.95344 -12499824.38644  22261933.8384   22261936.3494
 -13807960.67744 -10759436.00144  22765976.7314   22765980.0574
 96  4  2  2 49  0.0000000  0  8G26G 6G16G20G24G23G 5G17
  -1267704.42344   -987819.88044  24671024.8534   24671026.4134
 -24408616.89744 -19019686.10144  20822121.4174   20822123.1084
 -21079272.40744 -16425383.71544  21237135.6274   21237137.9184
 -22283986.37144 -17364137.75244  20932446.9204   20932449.5194
  -6742182.38644  -5253621.64144  23975018.7494   23975021.2914
  -1178756.80344   -918509.86344  24805406.7414   24805409.7734
 -15946212.74144 -12425615.91844  22280056.3394   22280058.8074
 -13876519.97244 -10812858.81044  22752930.3994   22752933.5614
 96  4  2  2 49 30.0000000  0  8G16G 6G26G20G24G23G 5G17
 -21042514.19844 -16396740.94244  21244130.5534   21244132.6094
 -24452456.81044 -19053847.06144  20813778.9104   20813780.6324
  -1347379.48644  -1049904.28944  24655862.9794   24655864.1464
 -22229960.50944 -17322039.70244  20942727.5414   20942730.2774
  -6664149.19144  -5192816.56544  23989867.8004   23989870.0344
  -1285686.23144  -1001831.36944  24785058.8594   24785062.0674
 -15850732.97844 -12351216.10444  22298225.6224   22298228.1884
 -13944867.51844 -10866116.60944  22739924.0674   22739927.1044
 96  4  2  2 50  0.0000000  0  8G16G 6G26G20G24G23G 5G17
 -21005194.18444 -16367660.39944  21251232.2504   21251234.4494
 -24496043.68344 -19087810.85144  20805484.6584   20805486.4614
  -1427060.19144  -1111993.10544  24640700.5534   24640701.3444
 -22175383.06344 -17279511.83944  20953113.2864   20953116.1104
  -6586118.78744  -5132013.67544  24004716.4614   24004718.7394
  -1392522.48244  -1085080.31644  24764728.5774   24764732.9394
 -15754983.60144 -12276606.20144  22316446.0514   22316448.7164
 -14012975.94044 -10919188.07944  22726963.7134   22726967.0864
 96  4  2  2 50 30.0000000  0  8G16G 6G26G20G24G23G 5G17
 -20967344.93644 -16338167.46544  21258434.8044   21258436.9594
 -24539414.89244 -19121606.59444  20797231.3884   20797233.0264
  -1506766.14944  -1174101.64744  24625532.8714   24625537.0444
 -22120281.48944 -17236575.55744  20963598.8514   20963601.6344
  -6508106.92144  -5071225.22244  24019561.8534   24019564.6044
  -1499297.62944  -1168281.61744  24744409.6984   24744412.9824
 -15658975.36744 -12201794.59944  22334715.7664   22334718.5704
 -14080869.62244 -10972092.21944  22714043.8884   22714046.9854
 96  4  2  2 51  0.0000000  0  8G16G 6G26G20G24G23G 5G17
 -20928996.43744 -16308285.50444  21265732.2494   21265734.4854
 -24582588.26044 -19155248.16944  20789015.8104   20789017.4424
  -1586524.46244  -1236250.92844  24610355.5314   24610358.7234
 -22064662.58244 -17193236.15244  20974182.9304   20974185.6154
  -6430123.28244  -5010458.75844  24034401.5544   24034402.9274
  -1606037.67044  -1251455.56044  24724097.4964   24724104.9384
 -15562729.99744 -12126798.20744  22353030.6194   22353033.1584
 -14148560.41544 -11024838.26744  22701162.7964   22701165.9784
 96  4  2  2 51 30.0000000  0  8G 6G26G16G20G24G23G 5G17
 -24625550.51544 -19188725.24244  20780840.2754   20780841.8974
  -1666328.97844  -1298436.22244  24595168.9504   24595170.6534
 -20890138.41444 -16278006.51144  21273126.6404   21273128.6954
 -22008527.80944 -17149494.77744  20984864.8814   20984867.6754
  -6352151.24344  -4949701.34244  24049239.1094   24049242.5404
  -1712741.71244  -1334601.47844  24703792.2464   24703798.3214
 -15466224.30944 -12051598.97644  22371395.0194   22371397.9494
 -14216023.47044 -11077406.85544  22688325.0044   22688327.9594
 96  4  2  2 52  0.0000000  0  8G 6G26G16G20G24G23G 5G17
 -24668328.07344 -19222058.39944  20772700.0584   20772701.5864
  -1746202.40144  -1360675.22544  24579969.7414   24579972.4144
 -20850776.05944 -16247334.53244  21280617.0504   21280619.3334
 -21951921.83044 -17105386.23344  20995636.6974   20995639.5304
  -6274215.93544  -4888972.55544  24064069.6914   24064072.1614
  -1819435.06044  -1417739.08444  24683489.1914   24683492.8244
 -15369468.27344 -11976204.66344  22389807.0914   22389809.8744
 -14283287.03344 -11129819.99544  22675525.2274   22675528.2514
 96  4  2  2 52 30.0000000  0  8G 6G26G16G20G24G23G 5G17
 -24710887.63044 -19255221.68644  20764601.2414   20764602.8284
  -1826099.79144  -1422932.88544  24564765.6244   24564768.7514
 -20810868.06844 -16216237.38644  21288211.2964   21288213.5684
 -21894840.02244 -17060906.91944  21006499.0044   21006501.8144
  -6196307.56844  -4828264.72544  24078895.1934   24078898.3314
  -1926084.53944  -1500842.42144  24663194.2834   24663197.5564
 -15272443.03144 -11900600.57344  22408270.4014   22408272.7994
 -14350335.29444 -11182065.36544  22662766.3254   22662769.1824
 96  4  2  2 53  0.0000000  0  8G 6G26G16G20G24G23G 5G17
 -24753219.53344 -19288207.57444  20756545.7174   20756547.3434
  -1906017.24344  -1485206.16844  24549557.7354   24549563.3464
 -20770416.81344 -16184716.91744  21295908.9464   21295910.9884
 -21837283.82044 -17016057.95044  21017451.5034   21017454.3444
  -6118433.43044  -4767583.60344  24093713.9844   24093716.8024
  -2032686.71544  -1583908.97344  24642908.4784   24642912.3714
 -15175168.65044 -11824802.36144  22426781.1394   22426783.8744
 -14417184.22744 -11234155.42344  22650045.4064   22650048.3314
 96  4  2  2 53 30.0000000  0  8G 6G26G16G20G24G23G 5G17
 -24795318.50644 -19321011.95744  20748534.5604   20748536.1814
  -1985957.71444  -1547497.39844  24534345.2674   24534348.1474
 -20729425.42944 -16152775.56644  21303709.3294   21303711.3484
 -21779273.46844 -16970855.09244  21028490.5824   21028493.4924
  -6040606.09344  -4706938.92644  24108524.2464   24108526.4374
  -2139240.17644  -1666937.49544  24622632.2844   24622638.1234
 -15077649.53044 -11748813.44844  22445338.4694   22445341.1924
 -14483850.33944 -11286103.01344  22637359.1024   22637362.1804
 96  4  2  2 54  0.0000000  0  8G 6G26G16G20G24G23G 5G17
 -24837176.25944 -19353628.37544  20740569.1564   20740570.7724
  -2065922.36144  -1609807.45244  24519128.7304   24519130.4054
 -20687895.22344 -16120414.35744  21311612.2554   21311614.3904
 -21720792.37844 -16925285.42544  21039619.1424   21039621.9654
  -5962833.12344  -4646336.62144  24123323.7144   24123326.6714
  -2245734.14144  -1749919.71644  24602366.9394   24602371.2304
 -14979902.65244 -11672647.06244  22463939.0044   22463941.8284
 -14550335.75244 -11337909.80844  22624707.5194   22624710.3264
 96  4  2  2 54 30.0000000  0  8G 6G26G16G20G24G23G 5G17
 -24878648.26344 -19385944.20644  20732677.4624   20732678.7524
  -2145785.47144  -1672038.40944  24503931.3134   24503933.5274
 -20645716.62044 -16087547.89944  21319638.6484   21319640.4514
 -21661692.54044 -16879233.60544  21050865.6544   21050867.9624
  -5884976.55644  -4585669.16844  24138139.5744   24138141.0714
  -2352044.23044  -1832758.58844  24582136.6354   24582141.3104
 -14881812.04744 -11596212.83644  22482605.1004   22482608.1134
 -14616496.38044 -11389463.51744  22612117.5434   22612119.4344
 96  4  2  2 55  0.0000000  0  8G 6G26G16G20G24G23G 5G17
 -24919656.58744 -19417898.73844  20724873.7904   20724875.3834
  -2225477.57344  -1734136.12444  24488766.3394   24488768.1574
 -20602814.42644 -16054117.61444  21327802.5204   21327804.5364
 -21601884.88144 -16832630.24144  21062246.5264   21062249.1294
  -5806957.38544  -4524875.03644  24152986.0064   24152987.5064
  -2458106.70144  -1915404.58044  24561953.5314   24561957.9454
 -14783302.03844 -11519451.81344  22501350.8204   22501353.8724
 -14682243.66844 -11440695.13944  22599606.0834   22599608.9634
 96  4  2  2 55 30.0000000  0  8G 6G26G16G20G24G23G 5G17
 -24961032.97844 -19450140.07544  20717000.0394   20717001.7284
  -2305816.85144  -1796738.11044  24473478.0314   24473481.1644
 -20560001.60544 -16020756.96744  21335949.4484   21335951.6184
 -21542207.09444 -16786128.07844  21073602.8224   21073605.6394
  -5729602.31244  -4464598.36144  24167706.3784   24167708.8684
  -2564742.45144  -1998497.22744  24541661.2714   24541666.5334
 -14685187.16644 -11442998.68244  22520021.5744   22520024.3264
 -14748388.78444 -11492236.76844  22587018.9344   22587022.0144
 96  4  2  2 56  0.0000000  0  8G 6G26G16G20G24G23G 5G17
 -25001809.06644 -19481913.64144  20709240.6804   20709242.0874
  -2385807.37644  -1859068.32244  24458256.6894   24458257.2614
 -20516306.97344 -15986709.18244  21344264.2584   21344265.9984
 -21481676.40544 -16738961.31444  21085121.5084   21085123.9624
  -5651919.21644  -4404066.07644  24182489.0164   24182491.1484
  -2670967.65544  -2081269.99144  24521447.2734   24521448.3064
 -14586495.75144 -11366096.28944  22538802.1404   22538804.0224
 -14813941.57344 -11543316.82644  22574544.8784   22574547.1404
 96  4  2  2 56 30.0000000  0  8G 6G26G16G20G24G23G 5G17
 -25042052.82644 -19513272.40444  20701582.6104   20701583.9074
  -2465510.93444  -1921174.93744  24443089.6084   24443092.0024
 -20471805.55544 -15952032.74644  21352732.6374   21352734.2984
 -21420376.05044 -16691194.82044  21096786.7394   21096788.8874
  -5573973.52644  -4343329.19544  24197321.5764   24197323.4254
  -2776854.97444  -2163779.48944  24501297.6114   24501302.5054
 -14487290.79544 -11288793.73244  22557680.2964   22557683.3324
 -14878971.76544 -11593989.67544  22562169.8204   22562172.4084
 96  4  2  2 57  0.0000000  0  8G 6G26G16G20G24G23G 5G17
 -25082048.99344 -19544438.23844  20693971.5254   20693972.8224
  -2545197.57044  -1983268.37244  24427925.5934   24427927.9474
 -20426783.93144 -15916950.95544  21361300.0444   21361301.6194
 -21358605.96444 -16643062.29844  21108541.2144   21108543.5564
  -5496059.74744  -4282617.17344  24212148.1154   24212150.1624
  -2882677.98844  -2246238.86944  24481160.0864   24481165.6364
 -14387841.16044 -11211300.52444  22576604.6684   22576606.7484
 -14943770.66344 -11644482.29744  22549839.1204   22549841.9614
 96  4  2  2 57 30.0000000  0  8G 6G26G16G20G24G23G 5G17
 -25122184.74844 -19575712.84744  20686333.9904   20686335.2554
  -2625252.60344  -2045648.87644  24412691.7504   24412693.4324
 -20381644.65944 -15881777.49144  21369889.7364   21369891.4964
 -21296759.64844 -16594870.37544  21120310.0834   21120312.2724
  -5418557.06444  -4222225.47044  24226896.4434   24226899.5034
  -2988822.15244  -2328948.47944  24460961.5074   24460963.1444
 -14288539.43244 -11133922.57044  22595501.0894   22595502.8474
 -15008733.72244 -11695102.84344  22537477.0454   22537479.9124
 96  4  2  2 58  0.0000000  0  8G 6G26G16G20G24G23G 5G17
 -25162461.83544 -19607097.58744  20678669.4004   20678671.1034
  -2705678.91844  -2108318.69344  24397386.7694   24397389.9204
 -20336389.38844 -15846513.63944  21378501.4964   21378503.5584
 -21234831.71044 -16546614.85144  21132094.5914   21132097.4064
  -5341464.06844  -4162153.02244  24241566.5864   24241569.8214
  -3095289.06844  -2411909.61644  24440701.1094   24440704.1664
 -14189398.80844 -11056670.15144  22614366.8214   22614369.1934
 -15073870.65444 -11745858.87644  22525081.9034   22525084.7694
 96  4  2  2 58 30.0000000  0  8G 6G26G16G20G24G23G 5G17
 -25202490.39744 -19638288.66444  20671052.2024   20671053.7544
  -2786096.11944  -2170981.39544  24382083.7664   24382087.3414
 -20290616.24844 -15810846.25144  21387211.9764   21387214.1054
 -21172430.76944 -16497990.74544  21143968.9514   21143971.7944
  -5264398.14744  -4102101.66444  24256231.7144   24256233.8654
  -3201693.57444  -2494822.09644  24420452.9974   24420455.2014
 -14090023.37144 -10979234.76544  22633277.5554   22633279.9854
 -15138799.47844 -11796452.73944  22512726.1234   22512728.9594
 96  4  2  2 59  0.0000000  0  8G 6G26G16G20G24G23G 5G17
 -25241498.61244 -19668684.66644  20663629.4404   20663630.4944
  -2865727.96044  -2233032.14544  24366930.5014   24366933.6194
 -20243547.48644 -15774169.28044  21396168.8634   21396170.5764
 -21108782.53144 -16448394.71844  21156080.9254   21156083.2004
  -5186583.85744  -4041467.15844  24271039.3684   24271042.1074
  -3307247.52544  -2577071.78644  24400366.6444   24400372.5024
 -13989651.27644 -10901022.74644  22652377.9194   22652380.5074
 -15202758.04844 -11846290.55544  22500555.3284   22500557.4994
 96  4  2  2 59 30.0000000  0  8G 6G26G16G20G24G23G 5G17
 -25280228.35544 -19698863.69144  20656259.2684   20656260.8454
  -2945301.56044  -2295037.47544  24351787.7994   24351791.9354
 -20195899.73044 -15737041.15344  21405235.8044   21405237.9634
 -21044606.76444 -16398387.64444  21168293.1494   21168296.0094
  -5108751.18544  -3980818.33144  24285850.2984   24285853.7834
  -3412675.51644  -2659223.36644  24380304.3854   24380307.7244
 -13889032.04944 -10822618.17044  22671524.9334   22671527.3934
 -15266481.21144 -11895944.94844  22488428.9674   22488432.0124
 96  4  2  3  0  0.0000000  0  8G 6G26G16G20G24G23G 5G17
 -25319068.66344 -19729128.85444  20648868.1044   20648869.2924
  -3025208.14244  -2357302.29144  24336582.3314   24336582.9494
 -20148078.77444 -15699778.05744  21414335.8474   21414337.4454
 -20980303.03344 -16348280.84944  21180529.8374   21180532.0854
  -5031306.97444  -3920472.21844  24300587.6624   24300589.7494
  -3518360.38944  -2741575.11244  24360193.1764   24360193.5954
 -13788576.99344 -10744341.49944  22690640.8824   22690643.0214
 -15330366.11844 -11945725.36944  22476272.3424   22476274.7644
 96  4  2  3  0 30.0000000  0  8G 6G26G16G20G24G23G 5G17
 -25357261.00944 -19758889.10744  20641600.4004   20641601.5204
  -3104709.01144  -2419250.98744  24321453.8694   24321454.1994
 -20099372.92244 -15661825.43944  21423604.3384   21423605.7444
 -20915144.50644 -16297507.98144  21192929.0214   21192931.3274
  -4953522.32544  -3859860.79744  24315389.6574   24315392.8074
  -3623565.34544  -2823552.87144  24340173.2714   24340176.2874
 -13687551.93944 -10665620.68644  22709865.3324   22709867.2964
 -15393667.63444 -11995051.20044  22464226.3924   22464228.7794
 96  4  2  3  1  0.0000000  0  8G 6G26G16G20G24G23G 5G17
 -25395448.11644 -19788645.29044  20634333.6344   20634334.7114
  -3184447.35644  -2481384.70444  24306280.1584   24306280.7614
 -20050446.07144 -15623700.61744  21432914.8164   21432916.4334
 -20849796.60744 -16246587.55444  21205364.3004   21205366.6944
  -4876060.46644  -3799500.90944  24330129.9284   24330133.1064
  -3728947.21844  -2905668.50444  24320119.6724   24320121.2384
 -13586622.04544 -10586974.02144  22729071.7544   22729073.9354
 -15457035.47444 -12044428.72044  22452167.8704   22452170.2184
 96  4  2  3  1 30.0000000  0  8G 6G26G16G20G24G23G 5G17
 -25433441.43344 -19818250.47144  20627103.8064   20627104.8834
  -3264249.10244  -2543567.84144  24291094.3684   24291095.4754
 -20001129.93544 -15585272.44944  21442299.3954   21442300.9874
 -20784080.82344 -16195380.46644  21217869.6864   21217871.9434
  -4798735.99144  -3739248.07844  24344844.5014   24344847.5434
  -3834336.71744  -2987790.09944  24300064.7054   24300068.4604
 -13485596.56144 -10508252.87244  22748296.2994   22748298.3684
 -15520277.15044 -12093707.91744  22440133.2634   22440135.7594
 96  4  2  3  2  0.0000000  0  8G 6G26G16G20G24G23G 5G17
 -25471107.44644 -19847600.60544  20619936.2064   20619937.0794
  -3344014.58644  -2605722.71544  24275915.4864   24275917.4684
 -19951322.10144 -15546461.14744  21451777.5364   21451779.0234
 -20717899.17744 -16143810.37344  21230463.5854   21230465.8824
  -4721443.10344  -3679019.89244  24359552.8384   24359553.2994
  -3939629.80344  -3069836.54544  24280027.9764   24280030.9984
 -13384354.32344 -10429362.82144  22767562.0494   22767564.3674
 -15583266.87644 -12142790.80144  22428146.9064   22428149.3204
 96  4  2  3  2 30.0000000  0  8G 6G26G16G20G24G23G 5G17
 -25508255.96244 -19876547.48644  20612867.0784   20612868.1034
  -3423542.63444  -2667692.57544  24260781.8114   24260783.9674
 -19900808.53844 -15507099.92044  21461389.9494   21461391.3924
 -20651053.18144 -16091722.60744  21243184.0274   21243186.1904
  -4643984.31244  -3618662.40144  24374292.7264   24374293.2744
  -4044635.93844  -3151659.42344  24260045.9214   24260049.0914
 -13282675.02644 -10350132.19844  22786910.9794   22786912.6474
 -15645807.99644 -12191524.12144  22416245.7264   22416247.8644
 96  4  2  3  3  0.0000000  0  8G 6G26G16G20G24G23G 5G17
 -25545301.35444 -19905414.01644  20605817.5114   20605818.5564
  -3503226.28944  -2729783.68944  24245618.4304   24245619.0414
 -19849973.79544 -15467488.42244  21471063.3844   21471064.9114
 -20583936.38444 -16039423.83344  21255955.8884   21255958.1304
  -4566751.26544  -3558480.81044  24388989.6434   24388991.5144
  -4149740.93644  -3233559.31244  24240045.0744   24240048.5924
 -13180960.33344 -10270874.00544  22806266.6264   22806268.3064
 -15708304.30044 -12240222.52244  22404352.9004   22404354.6034
 96  4  2  3  3 30.0000000  0  8G 6G26G16G20G24G23G 5G17
 -25581972.56044 -19933988.98444  20598839.2554   20598840.2764
  -3582788.22344  -2791779.98144  24230478.2654   24230478.4964
 -19798546.30744 -15427415.05144  21480849.5864   21480851.1044
 -20516275.65744 -15986701.20644  21268831.2524   21268833.3774
  -4489465.06744  -3498257.82944  24403696.8174   24403698.9184
  -4254656.69444  -3315311.79044  24220080.1474   24220084.7734
 -13078940.73644 -10191378.21744  22825680.4334   22825683.5004
 -15770483.03644 -12288673.46444  22392520.7144   22392523.3004
 96  4  2  3  4  0.0000000  0  8G 6G26G16G20G24G23G 5G17
 -25618416.79644 -19962387.09244  20591904.1294   20591905.1214
  -3662330.80944  -2853761.18844  24215341.8874   24215344.2934
 -19746636.35044 -15386965.73144  21490727.5474   21490729.3344
 -20448194.81244 -15933651.20744  21281786.6944   21281788.7814
  -4412257.17144  -3438095.84044  24418389.2234   24418389.0734
  -4359493.98844  -3397003.11144  24200130.1374   24200133.3524
 -12976755.08744 -10111753.03244  22845125.6544   22845127.7614
 -15832464.30644 -12336970.53844  22380726.0904   22380728.3884
 96  4  2  3  4 30.0000000  0  8G 6G26G16G20G24G23G 5G17
 -25654702.22044 -19990661.44744  20584999.2964   20585000.5124
  -3741881.39444  -2915748.61144  24200203.7744   24200206.8004
 -19694292.99544 -15346178.69444  21500688.2074   21500690.0374
 -20379744.51444 -15880313.32144  21294812.3704   21294814.6274
  -4335157.19244  -3378017.94444  24433060.6354   24433063.6924
  -4464288.15644  -3478660.83044  24180188.1894   24180190.6154
 -12874467.11144 -10032048.11544  22864590.4194   22864592.7414
 -15894308.90444 -12385161.11644  22368957.2864   22368959.6074
 96  4  2  3  5  0.0000000  0  8G 6G26G16G20G24G23G 5G17
 -25690705.57944 -20018716.00844  20578148.0634   20578149.2824
  -3821318.70944  -2977647.76544  24185087.2954   24185088.8034
 -19641409.62544 -15304970.86144  21510751.5794   21510753.2874
 -20310813.97044 -15826601.21844  21307929.3944   21307931.7124
  -4258043.15644  -3317929.11744  24447735.1274   24447736.6004
  -4568922.43044  -3560193.98044  24160276.8574   24160279.8904
 -12771977.59644  -9952186.16244  22884093.6054   22884095.7624
 -15955899.87944 -12433154.05544  22357236.9964   22357239.3734
 96  4  2  3  5 30.0000000  0  8G 6G26G16G20G24G23G 5G17
 -25726415.92044 -20046542.23544  20571352.5484   20571353.6174
  -3900634.09444  -3039451.91344  24169994.0914   24169994.5084
 -19587982.42544 -15263339.26744  21520918.4444   21520920.0914
 -20241395.25844 -15772508.72344  21321139.3194   21321141.8104
  -4180904.86744  -3257821.36444  24462414.1074   24462417.2674
  -4673398.58744  -3641603.89944  24140395.8174   24140401.9954
 -12669277.13944  -9872159.84244  22903636.7874   22903638.2424
 -16017221.38744 -12480937.03144  22345567.7134   22345569.9814
 96  4  2  3  6  0.0000000  0  8G 6G26G16G20G24G23G 5G17
 -25761889.47844 -20074183.95244  20564602.1304   20564603.3894
  -3979901.18344  -3101218.45244  24154909.8454   24154909.0074
 -19534077.95544 -15221335.77744  21531176.1384   21531178.0254
 -20171554.14644 -15718087.09144  21334429.7294   21334432.0174
  -4103806.00444  -3197744.34444  24477085.2384   24477086.8994
  -4777785.08244  -3722943.95044  24120531.7684   24120532.2744
 -12566424.84044  -9792015.20644  22923209.0544   22923211.1584
 -16078341.95044 -12528563.41944  22333937.0564   22333939.8944
 96  4  2  3  6 30.0000000  0  8G 6G26G16G20G24G23G 5G17
 -25797043.23744 -20101576.48144  20557912.5464   20557913.6004
  -4059098.56744  -3162930.66144  24139839.0174   24139841.5944
 -19479671.17044 -15178940.87644  21541529.3054   21541530.9794
 -20101261.11844 -15663313.31444  21347806.1994   21347808.3684
  -4026708.26644  -3137668.19744  24491756.8224   24491760.0284
  -4882049.95544  -3804189.23044  24100690.8204   24100693.9044
 -12463381.75544  -9711721.89344  22942817.4044   22942819.3114
 -16139239.00144 -12576015.64744  22322348.6274   22322351.4144
 96  4  2  3  7  0.0000000  0  8G 6G26G16G20G24G23G 5G17
 -25831882.88744 -20128724.25444  20551282.7944   20551284.0054
  -4138270.93144  -3224623.36144  24124772.8624   24124775.1704
 -19424802.93944 -15136186.40744  21551970.3704   21551971.9794
 -20030538.82444 -15608205.04344  21361264.1394   21361266.1284
  -3949652.00344  -3077624.34944  24506420.0154   24506423.8094
  -4986227.05244  -3885366.10144  24080866.5704   24080869.1404
 -12360176.03044  -9631301.85144  22962456.8094   22962459.1034
 -16199935.88344 -12623311.89144  22310798.3544   22310800.7054
 96  4  2  3  7 30.0000000  0  8G 6G26G16G20G24G23G 5G17
 -25866394.35544 -20155616.30444  20544715.4374   20544716.5134
  -4217410.93044  -3286290.86144  24109713.2214   24109714.9184
 -19369459.20144 -15093061.41344  21562501.9614   21562503.5854
 -19959383.84444 -15552759.61544  21374804.4664   21374806.6544
  -3872634.28344  -3017610.59644  24521076.0084   24521077.9334
  -5090290.39544  -3966454.34944  24061063.8294   24061070.5524
 -12256802.54444  -9550751.08444  22982127.9534   22982130.9864
 -16260418.55844 -12670441.22944  22299288.7694   22299291.4764
 96  4  2  3  8  0.0000000  0  8G 6G26G16G20G24G23G 5G17
 -25900619.83544 -20182285.50844  20538202.5174   20538203.8174
  -4296558.36444  -3347964.15744  24094651.9144   24094652.7284
 -19313694.19444 -15049608.15644  21573113.8804   21573115.7124
 -19887852.31844 -15497020.77744  21388416.4734   21388418.6924
  -3795704.19544  -2957665.06644  24535715.2664   24535717.2264
  -5194271.15744  -4047478.22744  24041276.9734   24041281.8624
 -12153306.82944  -9470105.07744  23001822.5304   23001824.1734
 -16320738.86744 -12717444.05244  22287810.3294   22287813.1024
 96  4  2  3  8 30.0000000  0  8G 6G26G16G20G24G23G 5G17
 -25934517.82644 -20208699.52144  20531752.0314   20531753.1564
  -4375646.37344  -3409591.13844  24079602.0304   24079605.6574
 -19257463.15744 -15005791.76144  21583814.2274   21583816.0664
 -19815901.83044 -15440955.47844  21402108.1384   21402110.2844
  -3718810.63244  -2897748.02044  24550347.5214   24550347.7734
  -5298114.10944  -4128394.72244  24021516.1384   24021520.7274
 -12049646.88644  -9389331.08844  23021548.4934   23021550.6414
 -16380844.85544 -12764279.86444  22276372.4714   22276375.0064
 96  4  2  3  9  0.0000000  0  8G 6G26G16G20G24G23G 5G17
 -25968060.90144 -20234836.97044  20525368.9434   20525370.1354
  -4454602.41844  -3471115.30444  24064577.1554   24064580.0714
 -19200707.07344 -14961566.23444  21594614.6694   21594616.2094
 -19743475.56544 -15384519.44544  21415890.4304   21415892.8754
  -3641904.20744  -2837820.92344  24564982.5724   24564984.5424
  -5401749.82644  -4209149.73944  24001794.8234   24001797.5174
 -11945757.80344  -9308378.56344  23041317.9404   23041319.0664
 -16440667.04744 -12810894.54044  22264988.7264   22264991.0574
 96  4  2  3  9 30.0000000  0  8G 6G26G16G20G24G23G 5G17
 -26001384.44344 -20260803.36544  20519027.7164   20519028.8604
  -4533523.92844  -3532612.51444  24049558.7124   24049559.9504
 -19143536.39644 -14917017.65044  21605493.8954   21605495.6124
 -19670700.89644 -15327811.93044  21429738.9994   21429741.3454
  -3565097.45344  -2777971.51844  24579598.4604   24579599.8324
  -5505289.90444  -4289830.24844  23982091.7444   23982096.4084
 -11841752.21744  -9227335.24644  23061109.5614   23061112.2414
 -16500326.38644 -12857382.32244  22253635.9024   22253638.3604
 96  4  2  3 10  0.0000000  0  8G 6G26G16G20G24G23G 5G17
 -26034382.07344 -20286515.80744  20512748.4934   20512749.5524
  -4612296.59544  -3593993.79244  24034568.7394   24034570.7884
 -19085845.98244 -14872064.07544  21616472.0044   21616473.8404
 -19597458.04644 -15270739.59544  21443676.6044   21443678.9184
  -3488270.47544  -2718106.37544  24594217.9484   24594219.4624
  -5608637.54044  -4370360.79344  23962425.4004   23962427.2554
 -11737516.49444  -9146112.61944  23080945.0004   23080946.5814
 -16559722.82044 -12903665.23844  22242333.1444   22242335.4274
 96  4  2  3 10 30.0000000  0  8G 6G26G16G20G24G23G 5G17
 -26067154.00744 -20312052.38044  20506512.1424   20506513.2474
  -4691018.20944  -3655335.30344  24019588.4594   24019588.1414
 -19027751.00644 -14826795.25944  21627527.1994   21627528.7744
 -19523841.23644 -15213375.86544  21457685.3234   21457687.7324
  -3411528.94844  -2658307.79444  24608821.4314   24608823.8234
  -5711909.05544  -4450832.02144  23942773.4714   23942776.3214
 -11633168.11344  -9064802.18944  23100801.8914   23100804.2744
 -16618968.37444 -12949830.58144  22231058.8654   22231061.3964
 96  4  2  3 11  0.0000000  0  8G 6G26G16G20G24G23G 5G17
 -26099674.96444 -20337393.38544  20500323.7234   20500324.8294
  -4769668.19444  -3716620.95844  24004622.0654   24004624.4144
 -18969230.94144 -14781195.20544  21638663.2034   21638664.7104
 -19449817.98744 -15155695.43544  21471771.5734   21471773.8654
  -3334849.85244  -2598557.87044  24623413.1334   24623415.4334
  -5815092.45444  -4531234.59944  23923138.1084   23923140.8204
 -11528695.00344  -8983394.58744  23120682.3104   23120684.6174
 -16678035.57344 -12995856.95344  22219818.8524   22219820.9634
 96  4  2  3 11 30.0000000  0  8G 6G26G16G20G24G23G 5G17
 -26131855.49844 -20362469.11844  20494199.8554   20494200.9204
  -4848163.87644  -3777786.36644  23989684.7284   23989687.8494
 -18910203.46944 -14735199.76844  21649895.6434   21649897.2564
 -19375314.39444 -15097640.70944  21485949.2314   21485951.5784
  -3258146.48444  -2538789.04944  24638009.2894   24638012.4814
  -5918114.44344  -4611511.40144  23903533.5894   23903536.0644
 -11424039.58444  -8901844.91744  23140597.6214   23140599.2764
 -16736846.43044 -13041683.57844  22208627.5084   22208630.1084
 96  4  2  3 12  0.0000000  0  8G 6G26G16G20G24G23G 5G17
 -26163756.46944 -20387327.01244  20488129.2814   20488130.3774
  -4926588.09544  -3838896.12144  23974761.0624   23974762.2384
 -18850746.00644 -14688869.27544  21661209.9934   21661211.7744
 -19300414.45744 -15039277.13444  21500202.2064   21500204.7754
  -3181513.37144  -2479074.94944  24652592.0494   24652593.8384
  -6021058.44444  -4691727.42544  23883943.9074   23883947.1614
 -11319290.11344  -8820221.96444  23160530.6534   23160533.0464
 -16795473.91144 -13087367.30444  22197471.0944   22197473.2294
 96  4  2  3 12 30.0000000  0  8G 6G26G16G20G24G23G 5G17
 -26195369.89444 -20411960.84844  20482113.4604   20482114.6024
  -5004937.22944  -3899947.36844  23959851.7974   23959854.0674
 -18790851.31044 -14642198.08044  21672607.4544   21672609.2444
 -19225132.54444 -14980615.91444  21514527.8404   21514530.4364
  -3104961.02744  -2419423.75744  24667159.5194   24667161.8704
  -6123904.17744  -4771866.89344  23864372.9444   23864376.3934
 -11214452.41744  -8738530.25944  23180480.6184   23180482.6034
 -16853892.74944 -13132888.45444  22186354.2604   22186356.7764
 96  4  2  3 13  0.0000000  0  8G 6G26G16G20G24G23G 5G17
 -26226615.95744 -20436308.42644  20476167.6514   20476168.7214
  -5083135.19244  -3960880.81844  23944971.0364   23944971.6504
 -18730412.17944 -14595102.65244  21684108.5764   21684110.4054
 -19149409.33844 -14921610.82744  21528937.4884   21528939.9394
  -3028411.88644  -2359775.02544  24681726.5064   24681727.9634
  -6226549.45144  -4851850.15144  23844840.2644   23844843.1544
 -11109439.65044  -8656702.14544  23200463.9354   23200466.0364
 -16912006.72844 -13178172.04444  22175295.6804   22175297.9774
 96  4  2  3 13 30.0000000  0  8G 6G26G16G20G24G23G 5G17
 -26257427.98944 -20460317.79444  20470304.2114   20470305.3234
  -5161130.98344  -4021656.71544  23930128.9854   23930130.6074
 -18669371.11144 -14547538.17944  21695724.3774   21695725.9174
 -19073190.24744 -14862219.33144  21543441.5394   21543444.1674
  -2951803.53344  -2300078.96644  24696304.5784   24696307.1544
  -6328915.97944  -4931616.22044  23825360.5274   23825362.4114
 -11004171.82644  -8574675.27344  23220495.8614   23220497.6684
 -16969756.69444 -13223171.99144  22164306.0684   22164309.0114
 96  4  2  3 14  0.0000000  0  8G 6G26G16G20G24G23G 5G17
 -26288014.68844 -20484151.57644  20464483.7794   20464484.9084
  -5239124.66944  -4082430.99744  23915287.5164   23915289.7974
 -18607950.95744 -14499678.31444  21707412.2444   21707413.9694
 -18996660.80444 -14802585.99844  21558004.5844   21558007.3154
  -2875326.61144  -2240487.14444  24710857.5494   24710859.3034
  -6431190.70144  -5011310.73644  23805898.3114   23805900.3364
 -10898834.39344  -8492594.16744  23240540.8664   23240542.4824
 -17027343.23244 -13268044.59144  22153347.6894   22153349.8794
 96  4  2  3 14 30.0000000  0  8G 6G26G16G20G24G23G 5G17
 -26318279.73144 -20507734.72044  20458724.5744   20458725.6994
  -5317003.28844  -4143115.59844  23900467.3434   23900467.9764
 -18546065.82744 -14451456.13244  21719188.6034   21719190.4004
 -18919719.58644 -14742631.80844  21572646.0524   21572648.8024
  -2798864.53644  -2180906.10144  24725407.8194   24725407.0264
  -6533261.73244  -5090846.52044  23786474.6854   23786477.8614
 -10793327.78144  -8410381.22744  23260618.1954   23260620.7934
 -17084686.97544 -13312727.99544  22142435.4394   22142438.2604
 96  4  2  3 15  0.0000000  0  8G 6G26G16G20G24G23G 5G17
 -26348319.86244 -20531142.61244  20453008.0224   20453009.3044
  -5394849.52544  -4203774.97044  23885653.9094   23885656.2714
 -18483829.77044 -14402960.50144  21731031.6754   21731033.5954
 -18842451.43144 -14682422.86944  21587349.6964   21587352.3694
  -2722504.73044  -2121404.92344  24739938.6954   24739941.7794
  -6635246.08344  -5170314.78344  23767067.5864   23767069.6774
 -10687742.53544  -8328107.01444  23280710.3714   23280711.9194
 -17141910.26544 -13357317.55744  22131546.3024   22131549.3314
 96  4  2  3 15 30.0000000  0  8G 6G26G16G20G24G23G 5G17
 -26378106.87844 -20554353.28244  20447339.7664   20447340.9694
  -5472623.41244  -4264377.97144  23870853.8024   23870854.6264
 -18421241.57244 -14354190.47444  21742941.7554   21742943.4234
 -18764817.77344 -14621929.12544  21602122.9374   21602125.3484
  -2646226.00144  -2061966.93544  24754453.9434   24754456.7864
  -6737135.19744  -5249708.83644  23747678.7904   23747681.7524
 -10582070.22644  -8245764.94744  23300819.0444   23300820.2184
 -17199004.96944 -13401806.91144  22120681.4424   22120684.2554
 96  4  2  3 16  0.0000000  0  8G 6G26G16G20G24G23G 5G17
 -26407455.13144 -20577222.05444  20441755.0554   20441756.2754
  -5550120.38744  -4324765.19844  23856106.6854   23856106.9534
 -18358123.36544 -14305007.45544  21754952.6664   21754954.4894
 -18686654.46844 -14561022.66044  21616996.8554   21616999.3654
  -2569870.66344  -2002469.27244  24768983.9574   24768985.9924
  -6838764.15644  -5328900.16744  23728339.5634   23728342.5554
 -10476159.95544  -8163237.46544  23320973.1064   23320975.6704
 -17255809.25044 -13446069.96144  22109871.9644   22109874.4554
 96  4  2  3 16 30.0000000  0  8G 6G26G16G20G24G23G 5G17
 -26436384.04044 -20599764.05944  20436249.9924   20436251.0374
  -5627378.33744  -4384966.14344  23841404.9864   23841406.7124
 -18294486.02544 -14255419.91044  21767062.5884   21767064.2654
 -18608016.73344 -14499746.51444  21631961.1644   21631963.5864
  -2493494.92444  -1942955.73844  24783517.7634   24783519.3584
  -6940185.53044  -5407929.75944  23709039.7514   23709043.2324
 -10370057.17644  -8080559.96644  23341163.7424   23341165.7964
 -17312358.66244 -13490134.41344  22099111.1144   22099113.1364
 96  4  2  3 17  0.0000000  0  8G 6G26G16G20G24G23G 5G17
 -26464997.93144 -20622060.59544  20430804.9414   20430805.9634
  -5704522.54944  -4445078.49944  23826724.7364   23826726.5694
 -18230435.36944 -14205510.31044  21779251.1124   21779252.7394
 -18529019.20544 -14438190.01244  21646993.8364   21646996.2664
  -2417217.35644  -1883518.72244  24798032.9834   24798035.1184
  -7041506.97844  -5486881.47744  23689758.8954   23689761.7094
 -10263882.88644  -7997826.75944  23361368.0534   23361369.9864
 -17368739.43844 -13534067.45744  22088381.9824   22088384.5884
 96  4  2  3 17 30.0000000  0  8G 6G26G16G20G24G23G 5G17
 -26493490.90144 -20644262.90444  20425383.0654   20425384.0574
  -5781763.31844  -4505266.08344  23812026.2174   23812027.2994
 -18166162.17744 -14155427.30244  21791481.9004   21791483.6514
 -18449881.45344 -14376524.25044  21662053.3084   21662055.8004
  -2341249.42044  -1824322.97744  24812489.0904   24812491.5424
  -7142905.45544  -5565893.23044  23670463.1784   23670465.4444
 -10157844.79444  -7915199.67344  23381546.4924   23381548.1734
 -17425133.54244 -13578010.89244  22077650.5004   22077652.9644
 96  4  2  3 18  0.0000000  0  8G 6G26G16G20G24G23G 5G17
 -26521700.32144 -20666244.26744  20420014.9834   20420015.9304
  -5858946.41644  -4565408.71144  23797338.8894   23797341.4074
 -18101494.59644 -14105036.97344  21803787.6214   21803789.5404
 -18370447.31744 -14314627.53644  21677169.1704   21677171.3654
  -2265411.38244  -1765228.42144  24826920.7464   24826923.5314
  -7244202.00544  -5644825.55144  23651186.8854   23651189.8004
 -10051761.72744  -7832537.55844  23401733.4814   23401735.7974
 -17481356.15844 -13621820.69844  22066951.7994   22066953.8184
 96  4  2  3 18 30.0000000  0  8G 6G26G16G20G24G23G 5G17
 -26549355.64744 -20687793.86244  20414752.2634   20414753.3394
  -5935803.33644  -4625297.20144  23782713.4954   23782714.8774
 -18036154.15944 -14054122.34944  21816221.5554   21816223.2274
 -18290434.54744 -14252279.93744  21692395.1884   21692397.2784
  -2189396.41044  -1705995.99244  24841385.8464   24841388.0034
  -7345102.04944  -5723448.91644  23631986.3624   23631989.1904
  -9945347.59544  -7749617.45444  23421983.4404   23421985.2584
 -17537111.18044 -13665266.14244  22056341.8894   22056344.5094
 96  4  2  3 19  0.0000000  0  8G 6G26G16G20G24G23G 5G17
 -26576707.70544 -20709107.13844  20409547.2884   20409548.3824
  -6012564.13044  -4685110.77044  23768106.4394   23768109.1864
 -17970403.88044 -14002888.36044  21828733.5714   21828735.3274
 -18210083.80944 -14189668.99044  21707685.5344   21707687.8814
  -2113437.87244  -1646807.54144  24855840.1384   24855843.2664
  -7445837.85544  -5801944.30344  23612817.1964   23612820.0324
  -9838852.27044  -7666634.07544  23442248.7314   23442251.6944
 -17592639.01444 -13708534.56544  22045775.3434   22045777.5884
 96  4  2  3 19 30.0000000  0  8G 6G26G16G20G24G23G 5G17
 -26603655.87244 -20730105.69344  20404419.1784   20404420.3814
  -6089107.92644  -4744755.25144  23753540.5934   23753541.9234
 -17904138.96144 -13951253.35444  21841343.3454   21841344.7124
 -18129277.11044 -14126702.74744  21723062.4434   21723065.3184
  -2037422.39244  -1587574.72444  24870305.4224   24870305.5464
  -7546316.18144  -5880239.05344  23593696.6404   23593698.9554
  -9732153.90244  -7583492.49844  23462552.7984   23462555.0134
 -17647843.54544 -13751551.06444  22035270.4184   22035272.7594
 96  4  2  3 20  0.0000000  0  8G 6G26G16G20G24G23G 5G17
 -26630489.80644 -20751015.23444  20399312.6854   20399314.2194
  -6165716.60144  -4804450.28344  23738962.2704   23738964.3494
 -17837656.46444 -13899448.81144  21853994.4754   21853996.6714
 -18048297.03944 -14063601.41144  21738472.1994   21738475.2274
  -1961624.03144  -1528511.07444  24884729.3584   24884730.1644
  -7646839.13644  -5958568.58644  23574567.4204   23574570.3434
  -9625552.12744  -7500426.18744  23482838.3754   23482840.7524
 -17703035.78844 -13794557.98944  22024767.4514   22024770.5144
 96  4  2  3 20 30.0000000  0  8G 6G26G16G20G24G23G 5G17
 -26657051.79844 -20771712.88744  20394258.2224   20394259.7734
  -6242236.26144  -4864075.96944  23724401.0964   23724403.4974
 -17770812.68244 -13847362.74544  21866714.4074   21866716.6144
 -17967004.06344 -14000256.24644  21753941.7864   21753944.8264
  -1885902.99744  -1469507.66344  24899138.6584   24899142.6964
  -7747263.31944  -6036821.14144  23555457.3714   23555460.5554
  -9518917.75544  -7417334.46444  23503130.2744   23503133.2694
 -17758081.43944 -13837450.68344  22014292.4874   22014295.1724
 96  4  2  3 21  0.0000000  0  8G 6G26G16G20G24G23G 5G17
 -26682970.01344 -20791908.91244  20389326.2914   20389327.6924
  -6318291.78644  -4923339.99244  23709928.2064   23709930.5404
 -17703247.19944 -13794714.31444  21879571.6084   21879573.7744
 -17885034.50144 -13936383.87544  21769540.1974   21769543.1064
  -1809909.52344  -1410292.00844  24913599.7694   24913603.7564
  -7847218.71544  -6114708.41444  23536436.5724   23536439.7134
  -9411885.77944  -7333932.92544  23523497.8934   23523499.7484
 -17812613.42044 -13879943.11344  22003915.3074   22003918.2404
 96  4  2  3 21 30.0000000  0  8G 6G26G16G20G24G23G 5G17
 -26708053.47844 -20811454.47744  20384553.1054   20384554.1094
  -6393712.45844  -4982109.31944  23695576.1884   23695577.2514
 -17634781.49044 -13741364.40544  21892600.3484   21892601.7624
 -17802218.21444 -13871851.70844  21785299.7474   21785301.9274
  -1733456.23644  -1350718.00844  24928148.3114   24928147.8714
  -7946514.42844  -6192081.64044  23517541.2984   23517543.5214
  -9304269.25444  -7250075.89144  23543976.6104   23543979.5644
 -17866462.32044 -13921903.26544  21993668.5014   21993671.3004
 96  4  2  3 22  0.0000000  0  8G 6G26G16G20G24G23G 5G17
 -26733008.50044 -20830899.95744  20379804.2584   20379805.3744
  -6469188.70344  -5040921.95744  23681213.5754   23681215.8534
 -17566123.04844 -13687864.31544  21905665.6034   21905667.1384
 -17719273.42644 -13807219.41344  21801083.6874   21801086.0014
  -1657247.66944  -1291334.71644  24942650.4854   24942652.8494
  -8045822.16744  -6269464.24944  23498643.5164   23498646.6604
  -9196786.56744  -7166323.13544  23564429.7604   23564432.1234
 -17920330.42744 -13963878.39744  21983417.5024   21983420.1794
 96  4  2  3 22 30.0000000  0  8G 6G26G16G20G24G23G 5G17
 -26757914.64444 -20850307.34044  20375064.7494   20375065.7484
  -6544778.39844  -5099822.97844  23666829.1894   23666830.6184
 -17497345.51344 -13634271.42644  21918753.3694   21918755.1204
 -17636268.02944 -13742539.89044  21816879.1544   21816881.3794
  -1581375.09644  -1232213.30044  24957088.5564   24957090.3594
  -8145198.27944  -6346900.13144  23479732.7344   23479734.5454
  -9089493.05444  -7082717.78644  23584847.0184   23584850.1554
 -17974269.81944 -14005909.07144  21973153.1704   21973155.3444
 96  4  2  3 23  0.0000000  0  8G 6G26G16G20G24G23G 5G17
 -26782465.28944 -20869437.70744  20370392.9494   20370394.1694
  -6620164.46644  -5158565.34944  23652483.6184   23652485.4474
 -17428155.04744 -13580356.77544  21931919.8804   21931921.7584
 -17552886.24044 -13677567.07444  21832746.0784   21832748.5604
  -1505543.67544  -1173123.89444  24971518.6314
  -8244331.80344  -6424146.99644  23460868.1534   23460871.8544
  -8982058.48344  -6999002.54844  23605291.2984   23605294.3924
 -18027973.92944 -14047756.41344  21962933.7064   21962935.9424
 96  4  2  3 23 30.0000000  0  8G 6G26G16G20G24G23G 5G17
 -26806826.13044 -20888420.16744  20365757.2874   20365758.4714
  -6695521.12444  -5217284.80444  23638143.8834   23638145.4264
 -17358718.71844 -13526250.54744  21945133.1174   21945134.7794
 -17469302.61544 -13612436.98644  21848651.3664   21848653.5974
  -1429931.02544                  24985907.3084
  -8343402.89944  -6501345.20244  23442015.7424   23442018.9274
  -8874662.66344  -6915317.47644  23625727.8484   23625729.2084
 -18081625.85844 -14089563.09344  21952724.1774   21952726.3534
 96  4  2  3 24  0.0000000  0  8G 6G26G16G20G24G23G 5G17
 -26830857.35744 -20907145.78744  20361184.2354   20361185.4284
  -6770689.53244  -5275857.55244  23623839.8734   23623841.4484
 -17288884.09244 -13471833.96044  21958422.2794   21958424.2984
 -17385371.34444 -13547036.00444  21864622.9474   21864625.4784
  -1354400.85744                  25000280.2364
  -8442272.29244  -6578386.25344  23423201.4634   23423203.8014
  -8767169.48144  -6831556.55344  23646183.2274   23646185.8164
 -18135062.75844 -14131202.21144  21942555.4094   21942557.6254
 96  4  2  3 24 30.0000000  0  8G 6G26G16G20G24G23G 5G17
 -26854591.29944 -20925639.76144  20356667.7024   20356669.0504
  -6845736.18944  -5334335.43744  23609558.6574   23609560.3774
 -17218706.60244 -13417150.20344  21971776.5204   21971778.5894
 -17301159.83944 -13481416.66544  21880647.9314   21880650.7374
  -1279016.48944   -996609.27244  25014625.4314
  -8541017.67944  -6655330.67844  23404410.5944   23404413.7144
  -8659639.58044  -6747767.01844  23666645.3314   23666646.7644
 -18188334.89644 -14172712.95144  21932417.9994   21932420.4414
 96  4  2  3 25  0.0000000  0  8G 6G26G16G20G24G23G 5G17
 -26878191.69244 -20944029.67944  20352176.7634   20352178.2204
  -6920848.19844  -5392864.26044  23595265.2134   23595267.3324
 -17148360.62944 -13362335.15944  21985162.8764   21985165.0834
 -17216858.20544 -13415727.09144  21896690.0864   21896693.1914
  -1203929.95444                  25028913.8404
  -8639827.05244  -6732324.95244  23385607.6824   23385610.9934
  -8552278.79644  -6664109.25244  23687075.2734   23687078.4404
 -18241626.82544 -14214239.11344  21922276.7694   21922279.4624
 96  4  2  3 25 30.0000000  0  8G 6G26G16G20G24G23G 5G17
 -26900856.89244 -20961690.87344  20347863.7394   20347864.7464
  -6995218.35844  -5450814.99944  23581113.3244   23581113.0934
 -17077034.13444 -13306756.07044  21998736.0124   21998738.0554
 -17131672.24544 -13349348.43144  21912900.4424   21912903.1534
  -1128313.59944                  25043303.2744
  -8737896.51044  -6808742.67244  23366945.8504   23366947.6064
  -8444314.26744  -6579981.04444  23707620.1364   23707622.1224
 -18294128.82144 -14255149.73944  21912286.0374   21912288.0874
 96  4  2  3 26  0.0000000  0  8G 6G26G16G20G24G23G 5G17
 -26923053.90644 -20978987.24844  20343639.8704   20343640.8914
  -7069300.55544  -5508541.36144  23567015.9744   23567018.1354
 -17005193.59344 -13250776.43244  22012406.8024   22012408.4964
 -17046057.78244 -13282635.87344  21929192.2594   21929194.8754
  -1052616.47444                  25057707.9184
  -8835685.24344  -6884941.65244  23348337.3294   23348339.6694
  -8336206.09144  -6495740.89444  23728192.3354   23728193.2174
 -18346296.18044 -14295799.61444  21902359.0204   21902361.0634
 96  4  2  3 26 30.0000000  0  8G 6G26G16G20G24G23G 5G17
 -26945063.49844 -20996137.58244  20339451.5904   20339452.7394
  -7143382.19644  -5566267.31444  23552918.4954   23552919.0814
 -16933129.01644 -13194622.21844  22026120.1954   22026121.9584
 -16960290.41144 -13215804.17144  21945513.2634   21945515.8144
   -977126.92444                  25072073.0944
  -8933481.13644  -6961146.21244  23329727.2664   23329729.5344
  -8228242.53444  -6411613.44644  23748737.2384   23748738.9384
 -18398433.96544 -14336426.43844  21892437.4684   21892439.5764
 96  4  2  3 27  0.0000000  0  8G 6G26G16G20G24G23G 5G17
 -26966738.34944 -21013027.07844  20335326.9614   20335327.9184
  -7217302.09544  -5623867.21444  23538851.8184   23538853.8944
 -16860685.88744 -13138173.02544  22039905.6794   22039907.3424
 -16874188.41844 -13148711.71844  21961897.8414   21961900.5674
   -901672.88144                  25086431.5674
  -9031105.05444  -7037216.76144  23311150.0324   23311153.0904
  -8120259.02844  -6327470.46644  23769285.8054   23769288.1104
 -18450388.99644 -14376910.85744  21882550.7744   21882553.1434
 96  4  2  3 27 30.0000000  0  8G 6G26G16G20G24G23G 5G17
 -26988242.46644 -21029783.53244  20331234.8494   20331235.9094
  -7291225.37144  -5681469.74144  23524784.9224   23524786.6504
 -16788039.30644 -13081565.29744  22053729.7954   22053731.7314
 -16787915.24844 -13081485.88344  21978315.1334   21978317.4834
   -826437.45844                  25100748.5954
  -9128707.50244  -7113270.58444  23292576.7004   23292578.9344
  -8012405.02244  -6243428.36944  23789809.8804   23789810.9824
 -18502325.03944 -14417380.47844  21872667.6694   21872669.7344
 96  4  2  3 28  0.0000000  0  8G 6G26G16G20G24G23G 5G17
 -27009351.59144 -21046232.20544  20327217.9954   20327218.9854
  -7364932.75344  -5738904.05144  23510759.0074   23510760.2164
 -16714964.29744 -13024623.73144  22067635.5564   22067637.4474
 -16701252.82944 -13013956.74744  21994806.4614   21994809.3584
   -751209.29544                  25115064.0484
  -9226054.01244  -7189124.97244  23274052.3614   23274055.4454
  -7904445.65944  -6159304.19644  23810353.9024   23810355.9214
 -18554014.51044 -14457657.97344  21862831.3754   21862833.4624
 96  4  2  3 28 30.0000000  0  8G 6G26G16G20G24G23G 5G17
 -27030119.83044 -21062415.25844  20323265.8774   20323266.9344
  -7438481.20744  -5796214.51744  23496762.9374   23496764.2264
 -16641530.16544 -12967402.33344  22081609.5264   22081611.5594
 -16614278.18944 -12946184.31344  22011357.1964   22011360.1124
   -676044.69944                  25129367.1544
  -9323192.17144  -7264817.01744  23255567.6774   23255570.3684
  -7796443.57944  -6075146.72344  23830906.0584   23830908.9324
 -18605509.74644 -14497784.11344  21853032.1544   21853034.2914
 96  4  2  3 29  0.0000000  0  8G 6G26G16G20G24G23G 5G17
 -27050502.59844 -21078297.93544  20319387.2744   20319388.3524
  -7511812.57644  -5853355.83044  23482808.4714   23482810.7664
 -16567683.92944 -12909859.81344  22095662.0434   22095663.8024
 -16526950.50144 -12878136.77144  22027975.1604   22027977.9974
   -600880.17744                  25143670.7424
  -9420056.13444  -7340295.39044  23237135.0784   23237138.1204
  -7688344.50444  -5990913.66644  23851476.6704   23851477.4084
 -18656741.92844 -14537705.27444  21843282.9774   21843285.2964
 96  4  2  3 29 30.0000000  0  7G 6G26G16G20G23G 5G17
 -27070552.88344 -21093921.52344  20315571.8114   20315572.8124
  -7584960.80844  -5910354.43444  23468888.7694   23468890.7134
 -16493463.50744 -12852025.71144  22109785.7944   22109787.6054
 -16439344.15544 -12809872.09144  22044646.0634   22044648.4924
  -9516704.66744  -7415605.90444  23218743.4704   23218745.9204
  -7580199.74144  -5906645.02444  23872056.0404   23872057.5614
 -18707751.91544 -14577453.30044  21833576.1454   21833578.1274
 96  4  2  3 30  0.0000000  0  8G 6G26G16G20G22G23G 5G17
 -27090226.02244 -21109251.23744  20311828.1184   20311829.1204
  -7657850.58944  -5967151.63844  23455018.4544   23455020.5654
 -16418810.32344 -12793854.40244  22123991.8544   22123993.8844
 -16351402.09144 -12741345.82044  22061380.8924   22061383.6254
        -1.14754        -1.35954  24640028.6534   24640028.4854
  -9613085.40844  -7490707.74244  23200402.7444   23200405.5774
  -7471958.54244  -5822301.24144  23892653.6934   23892655.7474
 -18758475.97044 -14616978.52244  21823923.7054   21823925.7784
 96  4  2  3 30 30.0000000  0  8G 6G26G16G20G22G23G 5G17
 -27109547.28844 -21124306.76544  20308151.3564   20308152.4134
  -7730508.96044  -6023768.53644  23441191.8644   23441193.9674
 -16343764.49344 -12735377.13944  22138272.6464   22138274.5674
 -16263144.95144 -12672574.02144  22078175.7694   22078178.2984
    -77185.45244    -60144.94744  24625341.0184   24625342.1374
  -9709232.96944  -7565627.88644  23182106.5924   23182109.4044
  -7363658.93044  -5737911.92944  23913262.3364   23913265.0404
 -18808959.15944 -14656316.05744  21814316.9784   21814319.3124
 96  4  2  3 31  0.0000000  0  8G 6G26G16G20G22G23G 5G17
 -27128454.12844 -21139039.36644  20304553.4054   20304554.4224
  -7802879.84844  -6080161.41744  23427420.2424   23427422.2684
 -16268271.46244 -12676551.39844  22152638.3944   22152640.2854
 -16174513.44744 -12603510.51844  22095041.7474   22095044.7474
   -153947.45744   -119959.47044  24610733.5014   24610735.8374
  -9805095.55944  -7640325.97344  23163864.5794   23163867.7774
  -7255247.78444  -5653435.71544  23933892.1654   23933895.9114
 -18859161.51544 -14695434.75344  21804763.9034   21804766.0264
 96  4  2  3 31 30.0000000  0  8G 6G26G16G20G22G23G 5G17
 -27147012.78244 -21153500.65644  20301021.8814   20301022.8564
  -7875050.10844  -6136397.97544  23413686.6434   23413688.1254
 -16192444.16044 -12617465.19444  22167067.9204   22167069.7694
 -16085617.93144 -12534241.29044  22111958.0984   22111960.5604
   -230400.93544   -179533.58144  24596184.7644   24596186.6874
  -9900783.02444  -7714887.59744  23145655.6084   23145657.7444
  -7146832.33644  -5568956.12444  23954522.9424   23954525.2844
 -18909188.94344 -14734417.14844  21795243.8354   21795245.8754
 96  4  2  3 32  0.0000000  0  8G 6G26G16G20G22G23G 5G17
 -27165237.24044 -21167701.53844  20297553.8734   20297554.7684
  -7947057.55044  -6192507.65144  23399984.1604   23399984.6484
 -16116341.52444 -12558164.43944  22181549.7074   22181551.0684
 -15996479.42944 -12464782.70944  22128920.5764   22128922.9724
   -306585.63944   -238898.27844  24581687.3514   24581689.2774
  -9996322.33944  -7789333.78144  23127474.9974   23127478.2034
  -7038456.58944  -5484507.48444  23975146.1804   23975149.5374
 -18959099.92944 -14773308.80944  21785746.1124   21785748.1764
 96  4  2  3 32 30.0000000  0  8G 6G26G16G20G22G23G 5G17
 -27182926.72244 -21181485.54844  20294187.7444   20294188.5594
  -8018723.88144  -6248351.54044  23386346.5274   23386346.8964
 -16039785.14644 -12498510.11644  22196117.9524   22196119.5884
 -15906932.96344 -12395006.22444  22145960.6134   22145962.8714
   -382308.69244   -297903.25344  24567277.6434   24567280.7324
 -10091534.17244  -7863524.79044  23109356.9384   23109359.8024
  -6929941.70244  -5399950.41044  23995795.9604   23995797.7054
 -19008733.40144 -14811984.22544  21776301.1554   21776303.1124
 96  4  2  3 33  0.0000000  0  8G 6G26G16G20G22G23G 5G17
 -27200207.04344 -21194950.72844  20290899.3654   20290900.4114
  -8090153.26144  -6304010.77944  23372753.8384   23372754.2304
 -15962897.89844 -12438597.97844  22210749.0954   22210750.4264
 -15817113.65644 -12325017.13744  22163052.4624   22163055.2094
   -457681.87944   -356635.58944  24552934.8734   24552935.9654
 -10186541.06144  -7937556.11144  23091277.7804   23091280.8224
  -6821407.24744  -5315378.12544  24016449.3584   24016451.2114
 -19058197.92344 -14850527.99844  21766888.4014   21766890.6104
 96  4  2  3 33 30.0000000  0  8G 6G26G16G20G22G23G 5G17
 -27217294.97544 -21208265.99944  20287647.7534   20287648.8434
  -8161536.72844  -6359634.24844  23359170.1704   23359170.7804
 -15885874.82144 -12378579.99644  22225406.1924   22225407.7114
 -15727222.48944 -12254972.06744  22180158.2194   22180161.1574
   -532898.77144   -415246.14144  24538621.6554   24538622.4264
 -10281538.18144  -8011579.81544  23073200.4044   23073203.2234
  -6713053.15944  -5230946.36044  24037068.4944   24037069.1764
 -19107684.52644 -14889088.97544  21757471.3744   21757473.5104
 96  4  2  3 34  0.0000000  0  8G 6G26G16G20G22G23G 5G17
 -27233967.83144 -21221257.83744  20284474.9624   20284476.0544
  -8232626.38444  -6415028.76044  23345642.1164   23345643.9464
 -15808454.93644 -12318252.81544  22240138.7554   22240140.2254
 -15637001.16044 -12184669.74844  22197326.8864   22197329.5564
   -607693.20044   -473527.52444  24524388.5944   24524391.9914
 -10376267.07544  -8085394.51444  23055173.8844   23055176.7044
  -6604616.95644  -5146450.62744  24057703.1974   24057706.5804
 -19156937.64244 -14927468.01644  21748098.8724   21748101.1844
 96  4  2  3 34 30.0000000  0  8G 6G26G16G20G22G23G 5G17
 -27250243.03844 -21233939.82044  20281377.7374   20281378.8254
  -8303431.84344  -6470201.82944  23332168.2474   23332169.4284
 -15730622.47944 -12257604.14844  22254949.7104   22254951.3154
 -15546463.27644 -12114120.76244  22214555.6674   22214558.3784
   -682070.50344   -531483.84944  24510234.8774   24510237.0814
 -10470739.03044  -8159009.00544  23037196.4624   23037198.4194
  -6496101.84344  -5061893.38544  24078352.9144   24078355.4124
 -19205937.24944 -14965649.51944  21738774.4484   21738776.5584
 96  4  2  3 35  0.0000000  0  8G 6G26G16G20G22G23G 5G17
 -27265987.40944 -21246208.16944  20278381.8344   20278382.8994
  -8373823.52744  -6525052.47944  23318773.0004   23318774.8484
 -15652245.63144 -12196531.28044  22269864.2844   22269866.1544
 -15455469.20344 -12043216.29944  22231871.2204   22231873.4164
   -755909.60944   -589020.82344  24496183.8424   24496185.9404
 -10564815.52244  -8232315.34644  23019294.4384   23019297.2004
  -6387381.30744  -4977176.07444  24099041.7534   24099043.2354
 -19254536.33544 -15003518.92544  21729526.4204   21729528.6374
 96  4  2  3 35 30.0000000  0  8G 6G26G16G20G22G23G 5G17
 -27281517.48144 -21258309.52344  20275426.5954   20275427.6284
  -8444150.91844  -6579853.03144  23305390.3754   23305391.1864
 -15573666.39544 -12135300.71244  22284817.4694   22284818.8584
 -15364356.47144 -11972219.35944  22249209.4294   22249212.4214
   -829553.48844   -646405.65444  24482170.0364   24482171.0944
 -10658830.06544  -8305573.41844  23001403.9124   23001406.3114
  -6278794.75944  -4892563.16144  24119704.9684   24119707.2524
 -19303078.48444 -15041343.96644  21720289.1484   21720291.3984
 96  4  2  3 36  0.0000000  0  8G 6G26G16G20G22G23G 5G17
 -27296659.62044 -21270108.58444  20272545.0344   20272546.1494
  -8514264.75044  -6634487.17344  23292048.2534   23292050.0224
 -15494740.28044 -12073799.84544  22299836.5744   22299837.9784
 -15272960.39544 -11901001.62944  22266601.5664   22266604.5274
   -902850.79244   -703520.44344  24468221.8924   24468224.1184
 -10752623.58444  -8378659.26144  22983555.6034   22983558.6814
  -6170186.96544  -4807933.72044  24140372.5344   24140374.0224
 -19351410.71144 -15079005.43044  21711091.7924   21711093.9334
 96  4  2  3 36 30.0000000  0  8G 6G26G16G20G22G23G 5G17
 -27311440.19344 -21281625.90544  20269732.4294   20269733.5364
  -8584203.87444  -6688985.17144  23278739.1294   23278740.3924
 -15415504.25244 -12012057.48544  22314914.6394   22314916.6454
 -15181319.43944 -11829593.09644  22284040.1554   22284042.8284
   -975839.51844   -760394.74844  24454332.6144   24454335.8444
 -10846221.89644  -8451592.99544  22965744.3464   22965746.1184
  -6061613.36144  -4723330.88244  24161033.1894   24161033.3134
 -19399560.44844 -15116524.69744  21701929.2264   21701931.6684
 96  4  2  3 37  0.0000000  0  8G 6G26G16G20G22G23G 5G17
 -27325828.47444 -21292837.55544  20266994.4804   20266995.4654
  -8653919.27544  -6743308.84044  23265472.5024   23265474.0444
 -15335952.52444 -11950069.12744  22330052.8064   22330054.6694
 -15089409.86744 -11757975.24544  22301530.0734   22301532.6824
  -1048481.24544   -816998.71644  24440509.4794   24440511.4664
 -10939583.79344  -8524342.50644  22947978.1984   22947981.2144
  -5953048.86344  -4638735.15744  24181692.2554   24181692.8694
 -19447505.57844 -15153884.53044  21692805.4744   21692807.8204
 96  4  2  3 37 30.0000000  0  8G 6G26G16G20G22G23G 5G17
 -27339790.55544 -21303717.10444  20264337.6074   20264338.5484
  -8723369.65844  -6797426.00144  23252256.6584   23252257.3494
 -15256054.36144 -11887810.82244  22345256.8324   22345258.4944
 -14997194.89244 -11686119.42244  22319077.9384   22319080.5824
  -1120731.19944   -873297.36144  24426760.5384   24426762.4894
 -11032666.81644  -8596874.71744  22930265.1704   22930267.9404
  -5844454.75144  -4554116.37344  24202356.9074   24202356.7144
 -19495206.81044 -15191054.30844  21683728.3374   21683730.5614
 96  4  2  3 38  0.0000000  0  8G 6G26G16G20G22G23G 5G17
 -27353372.59144 -21314300.51144  20261753.0184   20261753.9984
  -8792576.40844  -6851353.31744  23239086.9224   23239088.6144
 -15175830.11244 -11825298.42344  22360523.1284   22360524.7424
 -14904712.76144 -11614055.43344  22336676.7714   22336679.0424
  -1192620.55244   -929315.04544  24413080.4904   24413082.3684
 -11125490.86044  -8669205.11944  22912601.2074   22912604.1264
  -5735869.49844  -4469504.43844  24223020.0124   24223024.1024
 -19542685.82244 -15228050.92544  21674693.3014   21674695.3894
 96  4  2  3 38 30.0000000  0  8G 6G26G16G20G22G23G 5G17
 -27366477.36044 -21324512.02744  20259259.3694   20259260.1204
  -8861422.02044  -6904999.23644  23225986.3884   23225987.4964
 -15095178.29544 -11762452.85144  22375870.6644   22375872.1634
 -14811888.07444 -11541724.50644  22354340.8424   22354343.2564
  -1264048.22544   -984972.96744  24399488.4244   24399491.6504
 -11217951.27244  -8741252.17444  22895006.4604   22895009.2474
  -5627198.31344  -4384825.56744  24243699.4084   24243702.5014
 -19589838.10244 -15264792.95144  21665720.6014   21665722.7574
 96  4  2  3 39  0.0000000  0  8G 6G26G16G20G22G23G 5G17
 -27379216.95744 -21334438.99844  20256834.9844   20256836.0124
  -8930008.28644  -6958443.06644  23212934.8184   23212935.5054
 -15014231.05744 -11699377.08344  22391274.4384   22391276.6804
 -14718845.55444 -11469223.85044  22372046.1554   22372048.4974
  -1335127.54744  -1040359.45244  24385962.5724   24385963.7864
 -11310169.16544  -8813110.25244  22877458.1584   22877460.3244
  -5518546.07044  -4300161.50944  24264375.1794   24264376.7544
 -19636799.02144 -15301385.86544  21656784.1834   21656786.3574
 96  4  2  3 39 30.0000000  0  8G 6G26G16G20G22G23G 5G17
 -27391595.24644 -21344084.42244  20254479.5114   20254480.5024
  -8998352.08044  -7011697.94544  23199929.3944   23199930.4664
 -14932979.65644 -11636064.30644  22406736.0174   22406737.9224
 -14625594.31644 -11396560.55844  22389791.3324   22389793.7444
  -1405854.53844  -1095471.40244  24372503.6824   24372505.2964
 -11402142.32244  -8884777.63144  22859956.2754   22859958.9304
  -5409914.38144  -4215513.40144  24285047.2474   24285053.8294
 -19683573.21444 -15337833.28044  21647883.2424   21647885.6474
 96  4  2  3 40  0.0000000  0  8G 6G26G16G20G22G23G 5G17
 -27403575.53544 -21353419.71444  20252199.7504   20252200.8174
  -9066409.31644  -7064729.53844  23186978.5604   23186980.0544
 -14851395.58244 -11572492.30144  22422260.9934   22422263.2014
 -14532114.66644 -11323719.28744  22407579.8404   22407582.5884
  -1476193.25744  -1150280.76744  24359118.5124   24359120.3464
 -11493828.98444  -8956221.77244  22842508.7194   22842511.0884
  -5301273.61544  -4130858.23044  24305720.9454   24305723.7934
 -19730148.07344 -15374125.36944  21639020.3564   21639022.4864
 96  4  2  3 40 30.0000000  0  8G 6G26G16G20G22G23G 5G17
 -27415070.41044 -21362376.76644  20250012.3584   20250013.2044
  -9134095.30944  -7117471.84744  23174098.3374   23174099.5294
 -14769420.52944 -11508615.63644  22437860.4384   22437862.3874
 -14438330.70244 -11250640.88844  22425426.4174   22425428.7554
  -1546059.06644  -1204721.64644  24345823.4274   24345824.1224
 -11585157.44444  -9027386.78744  22825129.2954   22825131.7604
  -5192554.47044  -4046141.97144  24326409.6034   24326412.7864
 -19776457.35844 -15410210.51644  21630208.0854   21630210.3124
 96  4  2  3 41  0.0000000  0  8G 6G26G16G20G22G23G 5G17
 -27426263.13044 -21371098.37644  20247882.5174   20247883.4584
  -9201599.73644  -7170072.68044  23161252.3864   23161254.4894
 -14687233.51944 -11444573.81244  22453500.1214   22453501.7364
 -14344418.76444 -11177462.77544  22443297.1514   22443299.5884
  -1615639.39244  -1258940.09544  24332582.4684   24332585.6514
 -11676323.05144  -9098424.90444  22807781.1294   22807784.0394
  -5083955.20344  -3961519.14244  24347075.1084   24347075.9424
 -19822692.54844 -15446237.92944  21621409.7914   21621412.1124
 96  4  2  3 41 30.0000000  0  8G 6G26G16G20G22G23G 5G17
 -27437005.68644 -21379469.20144  20245838.2884   20245839.1584
  -9268775.79344  -7222417.63544  23148469.4024   23148469.6144
 -14604695.20444 -11380258.23944  22469206.7624   22469207.8144
 -14250226.65844 -11104066.31844  22461221.2384   22461223.9304
  -1684800.19244  -1312831.62844  24319421.7794   24319422.5054
 -11767181.09544  -9169223.36044  22790491.6054   22790494.7934
  -4975345.08244  -3876887.84144  24367743.0934   24367744.4284
 -19868696.31944 -15482085.01344  21612655.5034   21612657.7724
 96  4  2  3 42  0.0000000  0  8G 6G26G16G20G22G23G 5G17
 -27447049.53844 -21387295.58544  20243927.0324   20243927.9204
  -9335361.13744  -7274302.29344  23135798.3314   23135800.2134
 -14521584.36344 -11315496.54444  22485022.1044   22485023.8704
 -14155501.59844 -11030254.58144  22479246.7874   22479249.4524
  -1753308.59844  -1366214.78144  24306385.3404   24306388.5894
 -11857509.15444  -9239608.84644  22773302.7684   22773304.9794
  -4866498.74044  -3792072.48344  24388455.9234   24388458.0054
 -19914212.66944 -15517552.29144  21603994.1404   21603996.1714
 96  4  2  3 42 30.0000000  0  8G 6G26G16G20G22G23G 5G17
 -27457103.16544 -21395129.58044  20242013.8664   20242014.7524
  -9402051.54544  -7326268.81844  23123107.9034   23123108.5104
 -14438594.81044 -11250829.35944  22500814.4954   22500815.7074
 -14060931.52644 -10956563.62144  22497242.9874   22497245.9864
  -1821854.03644  -1419626.80044  24293341.4714   24293345.3944
 -11948024.14444  -9310139.99344  22756078.1224   22756080.4694
  -4758125.31944  -3707625.64144  24409078.6074   24409079.0104
 -19959914.82544 -15553164.35444  21595297.3194   21595299.2454
 96  4  2  3 43  0.0000000  0  8G 6G26G16G20G22G23G 5G17
 -27466664.09944 -21402579.66044  20240194.3954   20240195.2074
  -9468344.01944  -7377925.27044  23110492.6244   23110494.7214
 -14355217.73344 -11185860.20744  22516680.4624   22516682.2164
 -13966006.89844 -10882596.38344  22515306.5524   22515309.1204
  -1889926.40544  -1472670.20044  24280387.7154   24280391.5524
 -12038212.12144  -9380416.32244  22738915.9194   22738918.0784
  -4649705.98544  -3623143.02944  24429709.9614   24429713.0194
 -20005296.79644 -15588526.91744  21586661.3704   21586663.5294
 96  4  2  3 43 30.0000000  0  8G 6G26G16G20G22G23G 5G17
 -27475782.24544 -21409684.71844  20238459.3114   20238460.3134
  -9534302.03544  -7429321.10244  23097941.3474   23097942.9154
 -14271520.58044 -11120641.64844  22532607.3374   22532609.3204
 -13870784.95744 -10808397.47644  22533426.7954   22533429.2694
  -1957564.79044  -1525375.44344  24267516.3524   24267519.3754
 -12128117.96444  -9450472.80944  22721807.5194   22721809.3014
  -4541278.45544  -3538653.99744  24450342.9394   24450344.6354
 -20050419.90544 -15623687.77244  21578074.6954   21578076.8184
 96  4  2  3 44  0.0000000  0  8G 6G26G16G20G22G23G 5G17
 -27484659.79244 -21416602.29844  20236769.9174   20236771.0124
  -9600134.05044  -7480618.76144  23085413.8684   23085415.1794
 -14187679.11344 -11055310.63944  22548561.8734   22548563.9884
 -13775486.99144 -10734139.33044  22551561.3884   22551564.5014
  -2024953.57644  -1577886.17744  24254692.7734   24254695.8734
 -12217926.90144  -9520453.78944  22704717.4954   22704719.7174
  -4433036.68544  -3454309.75344  24470940.6254   24470942.6344
 -20095497.57244 -15658813.22144  21569496.6134   21569499.0654
 96  4  2  3 44 30.0000000  0  8G 6G26G16G20G22G23G 5G17
 -27493010.18144 -21423109.10044  20235180.8404   20235181.9344
  -9665569.36644  -7531607.29344  23072961.8774   23072963.8844
 -14103392.80944 -10989633.00344  22564601.0154   22564602.9374
 -13679846.93444 -10659614.61844  22569761.0024   22569763.5474
  -2091804.75744  -1629978.00644  24241971.4384   24241974.1554
 -12307328.75444  -9590117.55344  22687704.8584   22687707.6164
  -4324683.48944  -3369878.63644  24491559.6074   24491559.7864
 -20140269.21044 -15693700.20644  21560976.9044   21560979.0304
 96  4  2  3 45  0.0000000  0  8G 6G26G16G20G22G23G 5G17
 -27500686.47844 -21429090.63644  20233720.0874   20233721.1214
  -9730480.82244  -7582187.62544  23060609.5394   23060610.7114
 -14018534.24344 -10923509.43744  22580749.0624   22580750.7664
 -13583733.59444 -10584721.11344  22588050.7684   22588053.9504
  -2157989.78844  -1681550.76344  24229376.7794   24229379.5714
 -12396180.23644  -9659352.46144  22670796.9934   22670799.6384
  -4216070.42844  -3285245.06944  24512227.9484   24512229.0534
 -20184609.06644 -15728250.73244  21552539.2074   21552541.3264
 96  4  2  3 45 30.0000000  0  8G 6G26G16G20G22G23G 5G17
 -27508046.98544 -21434826.09944  20232319.5794   20232320.5714
  -9795230.28844  -7632641.71544  23048288.1544   23048289.1844
 -13933466.17544 -10857222.63144  22596937.1294   22596939.0424
 -13487526.35044 -10509754.43744  22606358.5284   22606360.9194
  -2223877.43244  -1732891.76544  24216839.1934   24216840.8064
 -12484851.10544  -9728446.62344  22653923.3834   22653926.5114
  -4107575.69344  -3200703.70544  24532873.8534   24532874.0574
 -20228861.62344 -15762733.23344  21544118.3634   21544120.5094
 96  4  2  3 46  0.0000000  0  8G17G 6G26G16G20G22G23G 5
 -20272973.70344 -15797106.27544  21535724.0854   21535726.3514
 -27515066.73844 -21440296.04544  20230983.7254   20230984.8254
  -9859758.36644  -7682923.29844  23036008.7884   23036010.6924
 -13848157.25744 -10790748.14944  22613170.8934   22613172.4774
 -13391205.34344 -10434699.11244  22624687.8054   22624690.1824
  -2289442.34444  -1783981.31544  24204362.4874   24204363.1734
 -12573309.46344  -9797375.20744  22637090.2324   22637092.6504
  -3999189.14644  -3116246.64744  24553499.2234   24553500.7634
 96  4  2  3 46 30.0000000  0  8G 6G26G16G20G22G23G 5G17
 -27521757.20944 -21445509.40244  20229710.6034   20229711.3284
  -9924073.95444  -7733039.33044  23023769.9124   23023771.4894
 -13762647.30144 -10724117.02244  22629442.8554   22629444.4334
 -13294769.74844 -10359554.49944  22643038.7774   22643041.4244
  -2354704.09344  -1834834.62144  24191943.4064   24191947.7194
 -12661589.22544  -9866164.60944  22620291.0814   22620293.4294
  -3890926.76144  -3031886.31744  24574100.7714   24574103.6974
 -20316956.89244 -15831378.87944  21527354.3374   21527356.4564
 96  4  2  3 47  0.0000000  0  8G17G 6G26G16G20G22G23G 5
 -20360549.88744 -15865347.43744  21519058.7914   21519060.9524
 -27527872.39944 -21450274.48644  20228546.8844   20228547.7484
  -9987918.33544  -7782788.18544  23011620.5464   23011622.0414
 -13676692.46644 -10657139.22344  22645799.5134   22645801.0984
 -13197974.53644 -10284129.65544  22661458.3874   22661460.5884
  -2419404.22944  -1885250.31944  24179631.3844   24179634.2264
 -12749448.04544  -9934626.01544  22603572.0424   22603574.1414
  -3782542.74444  -2947431.20944  24594725.5484   24594727.1744
 96  4  2  3 47 30.0000000  0  8G17G 6G26G16G20G22G23G 5
 -20404030.52744 -15899228.44744  21510784.7354   21510787.0554
 -27533689.65144 -21454807.40844  20227439.9004   20227440.8674
 -10051550.95944  -7832372.02844  22999511.7734   22999513.2724
 -13590572.18244 -10590032.51044  22662187.5864   22662189.6044
 -13101108.82244 -10208649.87844  22679891.3634   22679893.8184
  -2483813.32544  -1935439.21344  24167374.7644   24167377.7784
 -12837160.24544 -10002973.17244  22586881.0504   22586884.1354
  -3674318.96544  -2863100.96944  24615319.9164   24615322.7784
 96  4  2  3 48  0.0000000  0  8G17G 6G26G16G20G22G23G 5
 -20447258.59744 -15932912.64744  21502558.7124   21502560.7344
 -27539041.81544 -21458977.92044  20226421.4644   20226422.4254
 -10114802.16944  -7881658.66944  22987475.6394   22987477.0824
 -13504125.64144 -10522671.57344  22678637.8914   22678639.9644
 -13003986.44244 -10132970.11144  22698372.9674   22698375.4074
  -2547755.37744  -1985264.19244  24155207.0354   24155207.1184
 -12924560.12244 -10071076.95444  22570249.5014   22570251.9244
  -3566083.27344  -2778761.42644  24635916.3284   24635919.1254
 96  4  2  3 48 30.0000000  0  8G 6G26G16G20G22G23G 5G17
 -27543758.39644 -21462653.18144  20225523.9124   20225524.7394
 -10177519.49844  -7930529.28844  22975540.8734   22975542.6104
 -13417183.49844 -10454924.44744  22695182.5194   22695184.4074
 -12906423.90744 -10056947.36344  22716938.5874   22716941.4354
  -2611058.71644  -2034591.43944  24143160.5654   24143162.3244
 -13011472.92644 -10138801.20244  22553710.4954   22553713.0454
  -3457657.38744  -2694273.70844  24656549.1094   24656550.3444
 -20490086.17144 -15966284.76144  21494408.7924   21494410.9434
 96  4  2  3 49  0.0000000  0  8G 6G26G16G20G22G23G 5G17
 -27548183.33044 -21466101.18544  20224681.7924   20224682.7604
 -10240035.27444  -7979242.84944  22963644.4424   22963644.9954
 -13330089.30644 -10387058.84544  22711756.0194   22711757.9644
 -12808775.96244  -9980858.06644  22735520.3534   22735523.0434
  -2674066.84244  -2083688.66244  24131170.7384   24131171.2794
 -13098218.11344 -10206394.83344  22537203.4984   22537206.4684
  -3349399.83744  -2609917.18544  24677149.8174   24677151.7604
 -20532845.78444 -15999603.92744  21486271.9194   21486274.2374
 96  4  2  3 49 30.0000000  0  8G 6G26G16G20G22G23G 5G17
 -27552345.83544 -21469344.70344  20223889.7204   20223890.7004
 -10302390.25244  -8027831.11244  22951778.6224   22951779.7884
 -13242893.87244 -10319114.35544  22728348.7444   22728350.7784
 -12711066.85044  -9904721.11644  22754113.5224   22754116.3254
  -2736826.21444  -2132592.09244  24119227.9094   24119229.4624
 -13184825.57344 -10273881.15044  22520722.7164   22520725.1524
  -3241370.11144  -2525738.13344  24697707.1134   24697714.8454
 -20575585.90344 -16032907.90544  21478138.6564   21478140.8934
 96  4  2  3 50  0.0000000  0  8G 6G26G16G20G22G23G 5G17
 -27556066.45544 -21472243.88844  20223181.8274   20223182.6644
 -10364406.08044  -8076155.10044  22939977.5354   22939978.3014
 -13155412.37444 -10250946.96144  22744996.0074   22744997.7744
 -12613115.89044  -9828395.69644  22772752.9604   22772755.8414
  -2799156.17644  -2181160.88944  24107366.6004   24107370.1964
 -13271094.39644 -10341103.59544  22504306.3374   22504308.8664
  -3133405.97944  -2441610.17944  24718252.1694   24718253.6794
 -20618126.22544 -16066056.19644  21470043.5784   21470045.7714
 96  4  2  3 50 30.0000000  0  8G 6G26G16G20G22G23G 5G17
 -27559390.69544 -21474834.21544  20222549.1794   20222550.0054
 -10426122.40344  -8124245.70644  22928233.1544   22928233.6144
 -13067694.13844 -10182595.09644  22761688.2834   22761689.9604
 -12515005.30444  -9751945.89244  22791422.8634   22791425.4164
  -2861105.56144  -2229433.14544  24095578.1904   24095578.9224
 -13357065.93944 -10408094.39644  22487946.3904   22487949.0984
  -3025560.01444  -2357574.37344  24738774.6654   24738775.8054
 -20660499.94344 -16099074.66644  21461980.1034   21461982.2584
 96  4  2  3 51  0.0000000  0  8G 6G26G16G20G22G23G 5G17
 -27562376.63544 -21477160.93144  20221981.0294   20221981.7874
 -10487602.16744  -8172151.99644  22916533.9984   22916534.4744
 -12979819.36244 -10114121.23744  22778410.2564   22778411.7434
 -12416835.54644  -9675449.96544  22810104.1344   22810106.9804
  -2922742.16344  -2277461.63444  24083849.1024   24083852.1834
 -13442832.22944 -10474925.25644  22471625.5454   22471627.9284
  -2917915.20844  -2273695.28344  24759258.6314
 -20702773.38744 -16132014.99844  21453935.7854   21453937.8254
 96  4  2  3 51 30.0000000  0  8G 6G26G16G20G22G23G 5G17
 -27564584.65844 -21478881.47844  20221560.8114   20221561.5334
 -10548402.36544  -8219528.75044  22904964.1364   22904965.1754
 -12891347.53544 -10045182.14444  22795245.8424   22795247.2344
 -12318168.77744  -9598566.77144  22828879.7574   22828881.6204
  -2983621.95744  -2324900.58544  24072264.1044   24072267.6444
 -13527972.05844 -10541267.95944  22455423.8614   22455426.2504
  -2810020.10944  -2189621.14344  24779790.1934   24779790.7614
 -20744513.47744 -16164539.72644  21445992.9794   21445994.8844
 96  4  2  3 52  0.0000000  0  8G 6G26G16G20G22G23G 5G17
 -27566405.70144 -21480300.48844  20221214.3604   20221215.2234
 -10608899.51944  -8266669.38944  22893451.7554   22893452.3804
 -12802675.55044  -9976087.10244  22812119.4864   22812121.4784
 -12219410.20044  -9521612.04444  22847672.9564   22847675.7124
  -3044128.61944  -2372048.80244  24060750.0444   24060750.0624
 -13612898.52744 -10607444.42044  22439262.7214   22439265.7204
  -2702249.94344  -2105644.36444  24800298.2334   24800296.1254
 -20786100.50644 -16196945.19444  21438079.1294   21438081.3594
 96  4  2  3 52 30.0000000  0  8G 6G26G16G20G22G23G 5G17
 -27568166.98744 -21481672.93144  20220879.0354   20220880.0604
 -10669436.43244  -8313840.99344  22881932.0024   22881933.0524
 -12714148.75944  -9907105.19544  22828965.5304   22828967.3854
 -12120903.14944  -9444853.30744  22866418.1724   22866421.2324
  -3104596.47544  -2419166.23544  24049243.4684   24049243.6184
 -13697972.87244 -10673736.10744  22423073.5984   22423076.4774
  -2594932.21144  -2022020.13044  24820720.1204   24820724.9404
 -20827872.97244 -16229495.15644  21430130.0784   21430132.2484
 96  4  2  3 53  0.0000000  0  8G 6G26G16G20G22G23G 5G17
 -27569255.77644 -21482521.34444  20220671.9734   20220672.8974
 -10729389.48744  -8360557.64744  22870523.2334   22870524.6384
 -12625144.94944  -9837751.57444  22845902.4064   22845903.9354
 -12022005.78544  -9367790.42144  22885237.7684   22885240.8904
  -3164413.54244  -2465776.94144  24037860.6954   24037863.5954
 -13782567.91744 -10739654.30744  22406975.6264   22406978.2264
  -2487452.27044  -1938269.54444  24841172.8624   24841173.9854
 -20869218.06444 -16261712.09744  21422262.3934   21422264.5124
 96  4  2  3 53 30.0000000  0  8G 6G26G16G20G22G23G 5G17
 -27569685.53544 -21482856.22344  20220590.1494   20220591.0564
 -10788747.37944  -8406810.53944  22859227.8804   22859228.9904
 -12535663.76944  -9768025.97944  22862930.1014   22862932.1694
 -11922706.84044  -9290414.61644  22904133.7074   22904136.2544
  -3223582.57544  -2511882.68344  24026601.0024   24026603.1804
 -13866653.56444 -10805175.57844  22390974.6204   22390977.6964
  -2379804.50144  -1854388.12044  24861657.4924
 -20910137.54244 -16293597.39044  21414475.5664   21414477.7404
 96  4  2  3 54  0.0000000  0  8G 6G26G16G20G22G23G 5G17
 -27569713.05644 -21482877.67244  20220585.0014   20220585.7624
 -10847785.39944  -8452814.18544  22847993.1374   22847994.0424
 -12445961.64944  -9698128.22844  22879999.8644   22880001.2104
 -11823282.90044  -9212941.40944  22923053.4944   22923056.6404
  -3282353.84744  -2557678.47044  24015417.1894   24015417.5454
 -13950477.05544 -10870492.56744  22375023.6414   22375026.2394
  -2272265.45444  -1770591.42944  24882121.3524   24882121.9724
 -20950898.78344 -16325359.39144  21406719.0254   21406721.1984
 96  4  2  3 54 30.0000000  0  8G 6G26G16G20G22G23G 5G17
 -27569373.50944 -21482613.09944  20220649.5924   20220650.2874
 -10906531.85744  -8498590.64244  22836814.1734   22836815.6124
 -12356046.21744  -9628064.25544  22897110.1924   22897112.4794
 -11723762.05244  -9135392.68544  22941991.6854   22941994.2414
  -3340750.59444  -2603182.43444  24004304.4684   24004306.7454
 -14034028.63444 -10935597.68144  22359124.2474   22359126.7544
  -2164865.07144  -1686902.81644  24902559.0754
 -20991526.11644 -16357017.04244  21398987.8514   21398990.0354
 96  4  2  3 55  0.0000000  0  8G 6G26G16G20G22G23G 5G17
 -27568651.35744 -21482050.39244  20220787.0194   20220787.8964
 -10964954.15244  -8544114.49644  22825696.7914   22825697.6434
 -12265904.76244  -9557824.16444  22914263.5364   22914265.2184
 -11624113.67644  -9057744.59744  22960954.0234   22960957.0834
  -3398752.67844  -2648378.84744  23993267.0354   23993269.0244
 -14117267.86944 -11000459.40844  22343284.5254   22343286.9134
  -2057581.29944  -1603305.00644  24922974.4994   24922973.5864
 -21031990.15544 -16388547.44944  21391287.7314   21391289.8294
 96  4  2  3 55 30.0000000  0  8G 6G26G16G20G22G23G 5G17
 -27567460.78444 -21481122.67844  20221013.5384   20221014.5534
 -11022987.75344  -8589335.46044  22814653.4734   22814654.6484
 -12175480.83144  -9487363.96844  22931470.6244   22931472.4624
 -11524271.83144  -8979945.75144  22979953.3954   22979956.0494
  -3456266.41044  -2693194.74344  23982322.6224   23982323.4504
 -14200122.79444 -11065021.67244  22327517.7484   22327520.3194
  -1950345.52144  -1519744.64544  24943380.7364   24943384.7394
 -21072200.50944 -16419880.16944  21383635.9454   21383638.2924
 96  4  2  3 56  0.0000000  0  8G 6G26G16G20G22G23G 5G17
 -27565937.65744 -21479935.83544  20221303.4674   20221304.4004
 -11080774.97244  -8634364.44744  22803656.9154   22803657.5474
 -12084919.85844  -9416796.97844  22948703.8164   22948706.1714
 -11424370.63844  -8902100.66944  22998963.9154   22998966.7694
  -3513428.03844  -2737736.25944  23971445.0734   23971447.8414
 -14282729.59044 -11129390.58544  22311798.2014   22311800.9264
  -1843299.13444                  24963750.9644
 -21112283.04544 -16451113.29844  21376008.4524   21376010.7824
 96  4  2  3 56 30.0000000  0  8G 6G26G16G20G22G23G 5G17
 -27563907.21844 -21478353.68444  20221689.8674   20221690.6344
 -11138124.40844  -8679052.30244  22792743.6484   22792744.8364
 -11994063.64244  -9345999.93344  22965993.1644   22965994.9424
 -11324219.70744  -8824060.98044  23018021.8954   23018025.0554
  -3570081.04944  -2781881.46544  23960664.5574   23960665.8924
 -14364922.94744 -11193437.33144  22296157.2844   22296160.0514
  -1736266.73744  -1352929.91344  24984118.4224
 -21152059.09044 -16482107.60244  21368439.3934   21368441.5094
 96  4  2  3 57  0.0000000  0  8G 6G26G16G20G22G23G 5G17
 -27561349.50344 -21476360.66744  20222176.5454   20222177.5664
 -11195019.05944  -8723385.79344  22781916.9254   22781917.9774
 -11902926.72744  -9274984.15344  22983336.1204   22983337.6864
 -11223817.17044  -8745825.22344  23037127.8104   23037130.6244
  -3626211.04344  -2825619.12144  23949983.3584   23949984.9274
 -14446712.35044 -11257169.31244  22280593.2614   22280595.9544
  -1629253.58044                  25004482.4664
 -21191535.97244 -16512868.80244  21360927.1254   21360929.0994
 96  4  2  3 57 30.0000000  0  8G 6G26G16G20G22G23G 5G17
 -27558500.52644 -21474140.69744  20222718.7374   20222719.5434
 -11251694.87144  -8767548.76144  22771131.7864   22771132.5194
 -11811728.51244  -9203920.60544  23000690.4724   23000691.9334
 -11123416.76844  -8667591.14744  23056233.3044   23056236.3504
  -3682044.47444  -2869125.68544  23939358.7774   23939361.2764
 -14528336.90344 -11320772.85044  22265060.6544   22265062.9774
  -1522498.11944  -1186357.02844  25024797.1214
 -21230961.39744 -16543589.91144  21353424.8554   21353427.1454
 96  4  2  3 58  0.0000000  0  8G 6G26G16G20G22G23G 5G17
 -27555207.49844 -21471574.70344  20223345.3684   20223346.2304
 -11307989.41544  -8811414.63544  22760419.4654   22760420.7164
 -11720292.46144  -9132671.74344  23018090.2234   23018092.1304
 -11022871.07644  -8589243.85244  23075366.6144   23075369.6344
  -3737433.15144  -2912285.70644  23928818.5494   23928821.7134
 -14609655.24644 -11384137.77744  22249586.3574   22249588.6024
  -1415840.71744  -1103247.27844  25045093.4744
 -21270203.19844 -16574167.93044  21345957.2974   21345959.3674
 96  4  2  3 58 30.0000000  0  8G 6G26G16G20G22G23G 5G17
 -27551236.63444 -21468480.52444  20224100.9704   20224101.9774
 -11363676.11044  -8854806.85044  22749822.3434   22749824.0784
 -11628386.02744  -9061056.33944  23035579.4724   23035581.3974
 -10921969.30144  -8510619.08744  23094567.6144   23094570.6024
  -3792138.13444  -2954912.96744  23918408.4934   23918409.3304
 -14690457.60144 -11447100.63944  22234210.1134   22234212.4794
  -1309050.61744  -1020034.16744  25065414.8514
 -21309046.86744 -16604435.70944  21338565.6414   21338567.5834
 96  4  2  3 59  0.0000000  0  8G 6G26G16G20G22G23G 5G17
 -27546918.93544 -21465116.08844  20224922.6514   20224923.5374
 -11419074.75344  -8897974.59744  22739280.4084   22739282.0334
 -11536321.63244  -8989317.85544  23053098.7934   23053099.6284
 -10821035.13344  -8431969.07844  23113774.8104   23113777.9174
  -3846465.49044  -2997245.97344  23908070.5274   23908071.2044
 -14771051.54044 -11509901.10244  22218873.6504   22218876.0324
  -1202442.34544                  25085701.5764
 -21347816.04344 -16634645.44944  21331187.9924   21331189.9794
 96  4  2  3 59 30.0000000  0  8G 6G26G16G20G22G23G 5G17
 -27542236.52244 -21461467.46244  20225813.6944   20225814.5304
 -11474175.46744  -8940910.19744  22728794.9684   22728796.6524
 -11444074.99744  -8917437.35844  23070652.7724   23070654.7634
 -10720042.29444  -8353273.36244  23132992.8844   23132996.0064
  -3900404.45144  -3039276.32944  23897806.3164   23897807.6704
 -14851413.60544 -11572520.88144  22203581.1734   22203583.6624
  -1095762.65544                  25105956.5734
 -21386478.75644 -16664772.22644  21323830.7014   21323832.9964
 96  4  2  4  0  0.0000000  0  8G 6G26G16G20G22G23G 5G17
 -27537088.63644 -21457456.12844  20226793.2064   20226794.0144
 -11528883.21444  -8983539.59044  22718384.4014   22718385.4634
 -11351577.17244  -8845361.13544  23088254.4634   23088256.1214
 -10618890.04444  -8274453.41844  23152241.5274   23152244.0414
  -3953869.20444  -3080937.18744  23887632.2424   23887634.5894
 -14931447.73344 -11634885.12544  22188351.2174   22188353.7654
   -988639.32044                  25126201.5714
 -21424945.69344 -16694746.44944  21316510.6894   21316512.8654
 96  4  2  4  0 30.0000000  0  7G 6G26G16G20G22G23G17
 -27531409.71844 -21453031.00544  20227873.9404   20227874.9254
 -11583124.44844  -9025805.47144  22708062.7704   22708064.4704
 -11258791.52444  -8773060.63244  23105910.8964   23105912.9984
 -10517516.62644  -8195461.13744  23171532.3444   23171535.4134
  -4006801.27044  -3122182.96644  23877559.4214   23877560.9864
 -15011071.39144 -11696929.51844  22173199.3214   22173201.4314
 -21463147.93744 -16724514.42544  21309241.1324   21309243.3814
 96  4  2  4  1  0.0000000  0  7G 6G26G16G20G22G23G17
 -27525529.68344 -21448449.16944  20228992.9604   20228994.0124
 -11637225.81844  -9067962.34244  22697767.4724   22697768.7424
 -11166070.82644  -8700810.74944  23123555.0994   23123556.8524
 -10416251.11844  -8116552.93144  23190802.7034   23190805.1114
  -4059551.17444  -3163286.78244  23867521.3064   23867523.5684
 -15090608.41344 -11758906.40344  22158063.9364   22158066.1364
 -21501419.91244 -16754336.73444  21301958.1764   21301960.2264
 96  4  2  4  1 30.0000000  0  7G 6G26G16G20G22G23G17
 -27519249.80844 -21443555.77144  20230188.0094   20230188.9944
 -11691001.44044  -9109865.38444  22687534.4914   22687535.2824
 -11073229.59444  -8628466.93944  23141222.1194   23141224.1574
 -10314931.81044  -8037602.80344  23210083.0374   23210084.9434
  -4111934.67244  -3204105.10944  23857553.2354   23857554.4554
 -15169889.29644 -11820683.69844  22142977.2604   22142979.9144
 -21539569.77444 -16784063.88544  21294698.4594   21294700.6344
 96  4  2  4  2  0.0000000  0  8G 6G26G16G20G22G23G 5G17
 -27512305.05844 -21438144.29044  20231509.4814   20231510.2244
 -11744160.08044  -9151287.65144  22677418.7564   22677419.8334
 -10979998.92244  -8555819.67644  23158963.3694   23158965.1024
 -10213303.53844  -7958411.92744  23229422.1644   23229424.7254
  -4163678.98144  -3244425.32444  23847706.5264   23847708.9304
 -15248653.08444 -11882058.06244  22127989.0164   22127991.3574
        -0.10454                  25206864.8354
 -21577321.12144 -16813480.50744  21287514.6064   21287516.8064
 96  4  2  4  2 30.0000000  0  8G 6G26G16G20G22G23G 5G17
 -27504820.59844 -21432312.25444  20232933.8124   20232934.7854
 -11796812.23744  -9192315.26444  22667399.3634   22667400.4074
 -10886486.38144  -8482952.76644  23176758.1614   23176759.7234
 -10111498.06744  -7879082.95544  23248795.1564   23248798.3514
  -4214894.50344  -3284333.51044  23837960.8494   23837963.6544
 -15327023.19844 -11943125.66844  22113075.5914   22113078.0564
    105781.30344                  25226994.2784
 -21614770.58244 -16842661.89244  21280388.2184   21280390.4104
 96  4  2  4  3  0.0000000  0  7G 6G26G16G20G22G23G17
 -27496924.28844 -21426159.28944  20234436.3654   20234437.2804
 -11849089.04044  -9233050.38944  22657451.3094   22657451.8084
 -10792798.67944  -8409949.37144  23194586.3454   23194588.2064
 -10009644.14044  -7799716.23544  23268177.4404   23268180.0114
  -4265694.43044  -3323917.88144  23828293.8364   23828297.0564
 -15405126.75044 -12003985.56344  22098213.0084   22098215.2894
 -21652030.33544 -16871695.44844  21273297.7834   21273299.9854
 96  4  2  4  3 30.0000000  0  8G 6G26G16G20G22G23G21G17
 -27488604.43544 -21419676.29544  20236019.6384   20236020.5444
 -11900970.81844  -9273477.71644  22647578.3474   22647579.9344
 -10698910.83444  -8336790.02544  23212452.6464   23212454.6794
  -9907742.02744  -7720311.97844  23287568.6014   23287571.5174
  -4316049.17544  -3363155.36144  23818711.8564   23818714.0564
 -15482949.51344 -12064626.66544  22083403.9444   22083406.1844
        -0.70554                  25604440.1514
 -21689084.47944 -16900568.80244  21266246.6524   21266248.9094
 96  4  2  4  4  0.0000000  0  8G 6G26G16G20G22G23G21G17
 -27479848.06044 -21412853.15444  20237685.7924   20237686.7984
 -11952443.40544  -9313586.18644  22637783.6094   22637784.3024
 -10604831.06344  -8263481.11444  23230355.4424   23230357.4794
  -9805758.16244  -7640844.01844  23306975.4154   23306978.5004
  -4365938.93744  -3402030.49044  23809218.1494   23809220.6244
 -15560458.11444 -12125022.96544  22068654.5004   22068656.8984
   -100472.29944                  25585320.6774
 -21725930.09044 -16929279.65844  21259235.2824   21259237.4874
 96  4  2  4  4 30.0000000  0  8G 6G26G16G20G22G23G21G17
 -27470718.01744 -21405738.85144  20239423.1504   20239424.0954
 -12003600.93244  -9353449.14744  22628048.4674   22628050.2524
 -10510630.18044  -8190077.83244  23248281.3104   23248282.7664
  -9703745.35744  -7561353.51844  23326387.9384   23326390.5234
  -4415428.58344  -3440593.85344  23799800.6274   23799802.9744
 -15637704.19344 -12185214.69944  22053954.9714   22053957.3214
   -200928.41044                  25566204.5404
 -21762653.52744 -16957895.31144  21252247.0174   21252249.1684
 96  4  2  4  5  0.0000000  0  8G 6G26G16G20G22G23G21G17
 -27461148.82444 -21398282.35044  20241244.2284   20241245.2654
 -12054380.34744  -9393017.49644  22618385.4464   22618386.4254
 -10416257.33044  -8116540.55044  23266239.9564   23266242.3894
  -9601637.39744  -7481788.86544  23345818.3134   23345821.4324
  -4464462.13844  -3478801.82244  23790469.6984   23790472.1914
 -15714615.47944 -12245145.55444  22039319.3554   22039321.7464
   -301305.91044                  25547103.2314
 -21799213.54544 -16986383.62644  21245289.7654   21245292.0204
 96  4  2  4  5 30.0000000  0  8G 6G26G16G20G22G23G21G17
 -27450881.05644 -21390281.51044  20243198.0074   20243199.0164
 -12104520.96844  -9432088.07944  22608844.0304   22608845.5224
 -10321475.87944  -8042684.88844  23284276.2884   23284277.8604
  -9499176.68544  -7401949.35944  23365315.9514   23365318.1964
  -4512787.35644  -3516457.84044  23781273.5844   23781275.0134
 -15790946.02044 -12304623.87844  22024794.1114   22024796.5824
   -401354.56444                  25528064.5934
 -21835368.27744 -17014556.12944  21238409.8024   21238412.0694
 96  4  2  4  6  0.0000000  0  8G 6G26G16G20G22G23G21G17
 -27440009.33644 -21381810.05444  20245266.9764   20245267.9884
 -12154123.57044  -9470739.42844  22599405.0014   22599406.0984
 -10226385.74544  -7968588.69044  23302371.2974   23302371.9564
  -9396458.21544  -7321908.98944  23384862.7624   23384864.2364
  -4560507.94044  -3553642.69344  23772192.6004   23772193.8334
 -15866785.14044 -12363719.27544  22010362.3564   22010364.6654
   -501172.62844                  25509069.6294
 -21871204.19944 -17042480.21144  21231590.4274   21231592.5554
 96  4  2  4  6 30.0000000  0  8G 6G26G16G20G22G23G21G17
 -27428925.88044 -21373173.61844  20247376.0954   20247377.0984
 -12203577.30344  -9509274.77744  22589994.2274   22589995.3174
 -10131370.99944  -7894551.23544  23320451.8954   23320453.5124
  -9293909.88944  -7242001.19844  23404376.9364   23404379.9254
  -4608031.73544  -3590674.22744  23763149.2534   23763151.6844
 -15942538.36144 -12422747.73844  21995946.9944   21995949.3534
   -601181.60444                  25490038.5744
 -21907111.70144 -17070460.07444  21224757.4044   21224759.8194
 96  4  2  4  7  0.0000000  0  8G 6G26G16G20G22G23G21G17
 -27417368.56744 -21364167.94344  20249575.4494   20249576.4674
 -12252602.48044  -9547476.19344  22580665.1934   22580665.9734
 -10036170.96244  -7820369.39044  23338567.8074   23338569.2584
  -9191291.61944  -7162038.90644  23423904.6344   23423907.2204
  -4655102.60544  -3627352.82444  23754191.9584   23754194.6624
 -16017949.71744 -12481509.81344  21981596.7794   21981599.3254
   -701138.37144                  25471017.1734
 -21942822.92244 -17098286.99744  21217961.8584   21217963.9684
 96  4  2  4  7 30.0000000  0  8G 6G26G16G20G22G23G21G17
 -27405336.25244 -21354792.12944  20251865.1274   20251865.9844
 -12301194.03744  -9585339.73344  22571418.2714   22571419.3674
  -9940780.27744  -7746038.98944  23356720.0064   23356722.0784
  -9088602.40444  -7082021.33944  23443445.9474   23443448.1334
  -4701713.97644  -3663673.35944  23745322.0164   23745325.0274
 -16093024.59944 -12540009.70344  21967310.4264   21967312.8474
   -801046.37544                  25452005.1444
 -21978323.97844 -17125950.14644  21211206.1714   21211208.4724
 96  4  2  4  8  0.0000000  0  8G 6G26G16G20G22G23G21G17
 -27392840.59144 -21345055.27144  20254242.9004   20254244.0314
 -12349364.35044  -9622875.02144  22562251.8504   22562252.4744
  -9845202.22944  -7671562.59344  23374907.9084   23374910.3084
  -8985862.39044  -7001964.18544  23462996.5484   23462999.6614
  -4747876.72344  -3699644.33444  23736537.4714   23736538.8424
 -16167761.60544 -12598246.31244  21953088.3664   21953090.7064
   -900924.07544   -702018.83944  25432999.1444
 -22013625.55744 -17153457.85644  21204488.4654   21204490.6744
 96  4  2  4  8 30.0000000  0  8G 6G26G16G20G22G23G21G17
 -27379866.27344 -21334945.42244  20256711.9804   20256713.0264
 -12397093.03144  -9660066.18644  22553169.4194   22553170.6804
  -9749423.99144  -7596930.19744  23393133.9094   23393136.2924
  -8883046.41744  -6921847.86344  23482561.6154   23482563.9874
  -4793568.20144  -3735248.07444  23727842.6994   23727844.8494
 -16242151.04744 -12656212.09644  21938932.5324   21938935.3614
  -1000750.61044   -779805.72644  25414002.7084
 -22048728.12244 -17180810.49344  21197808.6614   21197810.7994
 96  4  2  4  9  0.0000000  0  8G 6G26G16G20G22G23G21G17
 -27366363.93944 -21324424.13444  20259281.2954   20259282.3194
 -12444328.58344  -9696873.07744  22544180.7084   22544182.2114
  -9653407.99844  -7522112.55244  23411405.0814   23411407.1894
  -8780084.37944  -6841617.70644  23502154.6164   23502157.0334
  -4838712.11644  -3770425.14444  23719252.0154   23719255.0114
 -16316134.57444 -12713861.58344  21924853.7574   21924856.2974
  -1100450.79244   -857494.12944  25395030.1804
 -22083573.43744 -17207962.67944  21191177.8474   21191180.1164
 96  4  2  4  9 30.0000000  0  8G 6G26G16G20G22G23G21G17
 -27352362.33744 -21313513.80844  20261945.7404   20261946.8224
 -12491106.72044  -9733323.55144  22535279.1644   22535280.0874
  -9557208.08544  -7447151.59344  23429711.4704   23429713.2684
  -8677020.56344  -6761308.23044  23521766.9264   23521770.3524
  -4883327.01744  -3805189.99144  23710762.0374   23710764.1234
 -16389741.73344 -12771217.79844  21910846.7544   21910849.2424
  -1200046.23044   -935100.84544  25376077.7434
 -22118203.53644 -17234947.16244  21184588.0244   21184590.1554
 96  4  2  4 10  0.0000000  0  8G 6G26G16G20G22G23G21G17
 -27337965.32044 -21302295.36344  20264685.3754   20264686.5774
 -12537536.79044  -9769502.80644  22526443.6214   22526445.4664
  -9460943.25444  -7372140.03644  23448030.0304   23448031.8954
  -8573976.46544  -6681014.12344  23541375.6454   23541379.2154
  -4927525.99444  -3839630.74544  23702351.1794   23702353.4464
 -16463077.23344 -12828362.33044  21896891.4584   21896894.0884
  -1299643.89244                  25357124.7064
 -22152748.57944 -17261865.36344  21178014.2714   21178016.5194
 96  4  2  4 10 30.0000000  0  8G 6G26G16G20G22G23G21G17
 -27322980.83844 -21290619.15944  20267536.8364   20267537.8584
 -12583421.09144  -9805256.79144  22517712.1984   22517712.8884
  -9364434.37844  -7296938.30944  23466395.1644   23466396.3744
  -8470757.68844  -6600583.91444  23561017.4324   23561020.4824
  -4971112.23544  -3873594.05644  23694057.0884   23694059.3814
 -16535944.80444 -12885142.23944  21883025.2224   21883027.4784
  -1399042.10244  -1090162.48944  25338209.8774
 -22187004.51644 -17288558.28444  21171495.6114   21171497.7304
 96  4  2  4 11  0.0000000  0  8G 6G26G16G20G22G23G21G17
 -27307436.66844 -21278506.83044  20270494.8314   20270495.9274
 -12628776.80144  -9840598.87844  22509081.1064   22509081.8184
  -9267704.82644  -7221564.63244  23484802.1704   23484804.1554
  -8367402.87744  -6520047.66944  23580685.3404   23580687.7194
  -5014110.55944  -3907099.22644  23685874.6554   23685876.0134
 -16608357.11344 -12941567.40244  21869245.6724   21869248.0984
  -1498281.61844  -1167491.93044  25319325.1624
 -22220988.36644 -17315039.20244  21165028.7324   21165030.7254
 96  4  2  4 11 30.0000000  0  8G 6G26G16G20G22G23G21G17
 -27291472.96844 -21266067.59144  20273532.6984   20273533.6604
 -12673732.20644  -9875629.05944  22500526.5424   22500527.7424
  -9170876.68644  -7146114.13344  23503227.8744   23503229.8484
  -8264043.64344  -6439507.99144  23600353.8844   23600356.6314
  -5056688.29044  -3940276.67544  23677772.3564   23677774.6074
 -16680454.99544 -12997747.55844  21855525.9304   21855528.2264
  -1597506.28144  -1244809.79744  25300443.3354   25300443.6404
 -22254846.98144 -17341422.52644  21158585.6334   21158587.7154
 96  4  2  4 12  0.0000000  0  8G 6G26G16G20G22G23G21G17
 -27275045.33144 -21253266.83844  20276658.6214   20276659.6494
 -12718224.74944  -9910298.55244  22492059.9104   22492060.9584
  -9073870.35644  -7070524.78644  23521687.5024   23521689.7184
  -8160606.68944  -6358907.75044  23620037.2704   23620040.1354
  -5098806.17444  -3973095.80144  23669757.6014   23669760.3734
 -16752190.55144 -13053645.37944  21841875.0764   21841877.3854
  -1696550.90144                  25281578.3314
 -22288497.84244 -17367643.96844  21152182.0174   21152184.2084
 96  4  2  4 12 30.0000000  0  8G 6G26G16G20G22G23G21G17
 -27258249.62844 -21240179.27944  20279854.7814   20279855.7284
 -12762348.56744  -9944680.74244  22483663.3624   22483664.0734
  -8976767.44444  -6994860.17544  23540165.5324   23540167.5274
  -8057173.96644  -6278310.81244  23639719.8144   23639721.8964
  -5140542.36744  -4005617.49644  23661815.5714   23661818.1094
 -16823651.71244 -13109329.38544  21828276.4974   21828278.8474
  -1795706.27744  -1399251.80444  25262708.0434
 -22322014.97244 -17393761.20644  21145803.9984   21145806.0624
 96  4  2  4 13  0.0000000  0  8G 6G26G16G20G22G23G21G17
 -27241037.04644 -21226766.88744  20283130.3024   20283131.2154
 -12806043.34044  -9978728.60844  22475348.4084   22475349.8384
  -8879513.93144  -6919078.22944  23558672.4124   23558674.6204
  -7953690.20944  -6197674.11544  23659412.3744   23659414.5944
  -5181856.39644  -4037810.24144  23653953.9994   23653956.6724
 -16894794.88844 -13164765.61244  21814738.2964   21814740.5644
  -1894809.39144  -1476474.89744  25243849.7014
 -22355360.05644 -17419744.37844  21139458.6714   21139460.6534
 96  4  2  4 13 30.0000000  0  8G 6G26G16G20G22G23G21G17
 -27223372.58044 -21213002.38144  20286491.8114   20286492.9204
 -12849289.51744 -10012426.92044  22467119.0744   22467120.1414
  -8782088.36644  -6843162.21244  23577212.0304   23577213.7514
  -7850131.22144  -6116978.78544  23679118.8564   23679121.9964
  -5222705.40644  -4069640.63644  23646180.5194   23646183.5194
 -16965598.78244 -13219937.46344  21801264.6574   21801266.9904
  -1993803.99244  -1553613.53844  25225011.4164
 -22388501.22844 -17445568.66144  21133152.0484   21133154.1964
 96  4  2  4 14  0.0000000  0  8G 6G26G16G20G22G23G21G17
 -27205252.63944 -21198882.95344  20289939.7024   20289940.7444
 -12892090.55644 -10045778.37844  22458974.2694   22458974.8344
  -8684508.63844  -6767126.05844  23595780.7434   23595782.5014
  -7746518.67644  -6036241.73744  23698835.6794   23698837.5014
  -5263059.52044  -4101085.38944  23638501.3894   23638503.5884
 -17036049.37244 -13274834.00744  21787858.3704   21787860.7134
  -2092692.74944  -1630669.65144  25206193.3504
 -22421441.39544 -17471236.31544  21126883.6924   21126885.6344
 96  4  2  4 14 30.0000000  0  8G 6G26G16G20G22G23G21G17
 -27186653.74444 -21184390.30844  20293479.0984   20293479.9674
 -12934433.78244 -10078773.08644  22450916.7274   22450917.3274
  -8586785.65044  -6690978.28144  23614376.9144   23614378.5584
  -7642858.80344  -5955467.81144  23718561.4754   23718563.8234
  -5302886.01944  -4132119.03044  23630922.6554   23630925.7934
 -17106127.53144 -13329440.34944  21774522.8774   21774525.2424
  -2191480.91444  -1707647.40944  25187394.4384   25187397.5804
 -22454199.48944 -17496762.09144  21120650.0654   21120652.0434
 96  4  2  4 15  0.0000000  0  8G 6G26G16G20G22G23G21G17
 -27167617.21044 -21169556.64644  20297101.6364   20297102.6694
 -12976354.65144 -10111438.68344  22442939.4804   22442940.6004
  -8488976.05044  -6614763.00844  23632989.4924   23632991.4354
  -7539218.21144  -5874708.90144  23738283.4724   23738285.4734
  -5342239.79044  -4162784.28744  23623433.9624   23623436.3434
 -17175883.50544 -13383795.64044  21761248.7984   21761251.1654
  -2290213.92644  -1784582.17944  25168606.1084   25168609.4044
 -22486823.29044 -17522183.22244  21114441.9684   21114443.9594
 96  4  2  4 15 30.0000000  0  8G 6G26G16G20G22G23G21G17
 -27148028.89644 -21154293.03044  20300829.2604   20300830.1914
 -13017753.49744 -10143697.51344  22435061.4494   22435062.4754
  -8390970.68244  -6538395.18644  23651639.1194   23651640.6164
  -7435508.00244  -5793895.75644  23758018.9124   23758020.6264
  -5381006.82544  -4192992.36944  23616056.8554   23616059.4184
 -17245210.10744 -13437816.35244  21748056.2754   21748058.6624
  -2388861.09344  -1861450.15044  25149846.5084
 -22519202.70244 -17547413.91044  21108280.3244   21108282.3304
 96  4  2  4 16  0.0000000  0  8G 6G26G16G20G22G23G21G17
 -27128041.83844 -21138718.70744  20304632.6774   20304633.8934
 -13058768.33044 -10175657.10644  22427256.3584   22427258.2934
  -8292920.35644  -6461992.33744  23670297.3994   23670300.0114
  -7331871.20444  -5713139.79944  23777740.2714   23777742.2254
  -5419353.41344  -4222872.82744  23608759.6644   23608762.4354
 -17314264.74044 -13491625.14544  21734915.7674   21734918.6474
  -2487533.77244  -1938337.95444  25131083.9114   25131084.4634
 -22551492.38644 -17572574.69344  21102135.7724   21102138.0484
 96  4  2  4 16 30.0000000  0  8G 6G26G16G20G22G23G21G17
 -27107537.51444 -21122741.31644  20308534.4964   20308535.4574
 -13099282.79244 -10207226.79044  22419546.7734   22419548.0634
  -8194708.27144  -6385463.44244  23688986.6374   23688987.8404
  -7228188.07544  -5632347.74344  23797470.5854   23797472.7114
  -5457177.37344  -4252346.04044  23601562.0614   23601564.1024
 -17382952.67544 -13545148.18944  21721844.8684   21721847.1304
  -2586018.15344  -2015078.93244  25112343.0954   25112347.7234
 -22583570.78444 -17597570.83044  21096031.4254   21096033.4564
 96  4  2  4 17  0.0000000  0  8G 6G26G16G20G22G23G21G17
 -27086225.56744 -21106134.61744  20312589.8894   20312591.0354
 -13138992.79144 -10238169.64144  22411990.2814   22411991.9554
  -8096031.61544  -6308572.54644  23707764.2104   23707767.0414
  -7124157.18644  -5551284.72144  23817266.7594   23817270.0954
  -5494196.70744  -4281192.27344  23594517.2444   23594519.9254
 -17450971.03744 -13598149.49444  21708901.3654   21708904.1654
  -2684068.11144  -2091481.49944  25093684.7854   25093685.8654
 -22615130.26844 -17622162.63344  21090025.8714   21090028.0264
 96  4  2  4 17 30.0000000  0  8G 6G26G16G20G22G23G21G17
 -27065018.95844 -21089609.99444  20316625.3164   20316626.7714
 -13178800.70144 -10269188.78744  22404415.0734   22404416.5444
  -7997803.34044  -6232031.04144  23726456.3514   23726458.4064
  -7020681.03044  -5470653.93944  23836957.5714   23836960.4434
  -5531309.88744  -4310111.63244  23587454.8944   23587458.1114
 -17519220.14744 -13651330.60244  21695913.8084   21695916.6364
  -2782592.15244  -2168253.38744  25074936.2004   25074939.2374
 -22647079.46044 -17647058.10944  21083946.0264   21083948.4444
 96  4  2  4 18  0.0000000  0  8G 6G26G16G20G22G23G21G17
 -27043267.41744 -21072660.75544  20320764.5404   20320766.0214
 -13218046.77644 -10299770.13744  22396946.7044   22396948.0494
  -7899375.46344  -6155333.99444  23745186.6034   23745189.5744
  -6917110.41844  -5389949.56244  23856666.5794   23856668.8824
  -5567869.60244  -4338599.72344  23580498.0094   23580500.2134
 -17587041.29944 -13704178.23144  21683007.9224   21683010.6274
  -2880931.66244  -2244881.52244  25056222.8444   25056227.3524
 -22678763.86044 -17671747.24844  21077916.7014   21077919.2824
 96  4  2  4 18 30.0000000  0  8G 6G26G16G20G22G23G21G17
 -27020780.99544 -21055138.88344  20325043.6384   20325045.0124
 -13256538.70744 -10329763.84344  22389621.9254   22389622.6774
  -7800554.85344  -6078330.91844  23763991.5484   23763993.7704
  -6813271.57844  -5309036.16944  23876426.6024   23876429.6284
  -5603681.41644  -4366505.03344  23573683.4044   23573686.0804
 -17654215.01244 -13756521.36044  21670225.3584   21670228.1564
  -2978891.62544  -2321213.93144  25037581.6904   25037584.8334
 -22709991.12844 -17696080.18044  21071974.4394   21071976.9544
 96  4  2  4 19  0.0000000  0  8G 6G26G16G20G22G23G21G17
 -26997765.39244 -21037204.65944  20329423.2394   20329424.8344
 -13294480.58544 -10359328.91544  22382401.9284   22382402.3074
  -7701539.13944  -6001175.81544  23782833.5104   23782835.4754
  -6709365.69244  -5228070.53644  23896199.2264   23896202.9824
  -5638942.87344  -4393981.49844  23566973.2584   23566975.3784
 -17720918.99944 -13808498.47244  21657531.9684   21657534.9674
  -3076679.89644  -2397412.53444  25018972.9624   25018973.0484
 -22740951.11744 -17720204.83944  21066082.9214   21066085.4044
 96  4  2  4 19 30.0000000  0  8G 6G26G16G20G22G23G21G17
 -26974266.27144 -21018893.66944  20333894.9974   20333896.5514
 -13331944.02744 -10388521.19544  22375272.7244   22375274.0134
  -7602386.21044  -5923913.79244  23801701.6544   23801703.9894
  -6605454.75444  -5147100.95844  23915972.7784   23915975.9954
  -5673706.71844  -4421070.20244  23560357.9254   23560360.0304
 -17787216.09544 -13860158.52544  21644916.0964   21644918.9494
  -3174375.13144  -2473538.65744  25000382.4174   25000385.4644
 -22771701.87844 -17744166.46444  21060231.2154   21060233.5914
 96  4  2  4 20  0.0000000  0  8G 6G26G16G20G22G23G21G17
 -26950279.76644 -21000202.89744  20338459.5344   20338461.0514
 -13368939.73644 -10417349.00644  22368232.6194   22368233.5234
  -7503101.83744  -5846549.34244  23820594.9554   23820597.7364
  -6501527.74944  -5066118.84444  23935749.4764   23935751.6874
  -5707973.68944  -4447771.73444  23553836.9554   23553839.5494
 -17853105.86344 -13911501.18244  21632377.5384   21632380.1384
  -3271981.63044  -2549595.60844  24981808.3364   24981811.1584
 -22802250.04144 -17767970.22344  21054418.0924   21054420.4484
 96  4  2  4 20 30.0000000  0  8G 6G26G16G20G22G23G21G17
 -26925821.74744 -20981144.71244  20343113.7734   20343115.2234
 -13405473.46044 -10445816.82744  22361280.3984   22361281.4814
  -7403697.72644  -5769091.60044  23839510.8184   23839514.1024
  -6397587.89244  -4985126.73844  23955528.6754   23955531.6994
  -5741731.36844  -4474076.41444  23547413.0584   23547415.7964
 -17918600.58744 -13962536.01144  21619914.2414   21619916.9284
  -3369507.90744  -2625590.05644  24963249.7464   24963253.5654
 -22832611.21144 -17791628.26944  21048640.5654   21048642.9044
 96  4  2  4 21  0.0000000  0  8G 6G26G16G20G22G23G21G17
 -26900884.04244 -20961712.74844  20347859.3284   20347860.7804
 -13441542.37844 -10473922.46744  22354416.5764   22354417.6434
  -7304198.07444  -5691559.41644  23858444.9764   23858446.1584
  -6293620.48944  -4904113.16644  23975312.9544   23975316.9304
  -5774979.95544  -4499984.39544  23541085.8644   23541087.7834
 -17983733.26444 -14013288.72444  21607520.0484   21607522.9394
  -3466958.08444  -2701525.24444  24944705.4474   24944707.4124
 -22862795.53344 -17815148.51144  21042896.6294   21042899.0934
 96  4  2  4 21 30.0000000  0  8G 6G26G16G20G22G23G21G17
 -26875453.46644 -20941896.73344  20352698.6874   20352700.0044
 -13477127.91944 -10501651.44644  22347644.8034   22347646.2734
  -7204595.93344  -5613947.37244  23877398.5514   23877401.1124
  -6189621.66144  -4823075.11144  23995103.2264   23995106.5184
  -5807712.53844  -4525490.30244  23534857.1464   23534859.4574
 -18048506.54444 -14063761.38744  21595193.9254   21595196.5194
  -3564322.28844  -2777393.40644  24926177.6994   24926181.4654
 -22892804.74544 -17838532.29544  21037186.0904   21037188.4354
 96  4  2  4 22  0.0000000  0  8G 6G26G16G20G22G23G21G17
 -26849555.19744 -20921716.28044  20357627.0114   20357628.2914
 -13512226.15944 -10529000.69644  22340966.0754   22340967.4194
  -7104903.94144  -5536265.29044  23896369.3654   23896372.2254
  -6085611.21844  -4742027.99644  24014895.3794   24014898.7514
  -5839940.92244  -4550603.32744  23528724.4654   23528727.2844
 -18112938.99444 -14113968.47044  21582932.8054   21582935.6224
  -3661598.76944  -2853193.21844  24907666.5594   24907671.1144
 -22922646.67944 -17861785.73144  21031507.3364   21031509.5894
 96  4  2  4 22 30.0000000  0  8G 6G26G16G20G22G23G21G17
 -26823176.08544 -20901161.14644  20362646.7294   20362648.1214
 -13546815.89844 -10555953.72144  22334383.9464   22334385.1664
  -7005117.26944  -5458509.45144  23915358.0714   23915360.9324
  -5981601.52844  -4660981.43744  24034687.7414   24034691.0944
  -5871664.36044  -4575322.88244  23522687.7174   23522690.8414
 -18177027.76644 -14163907.75344  21570737.1754   21570739.7584
  -3758774.91344  -2928914.84344  24889174.4814   24889178.1614
 -22952295.90244 -17884889.01644  21025865.2574   21025867.7684
 96  4  2  4 23  0.0000000  0  8G 6G26G16G20G22G23G21G17
 -26796309.07244 -20880225.82944  20367759.3574   20367760.7104
 -13580901.24844 -10582513.72244  22327897.8404   22327898.8614
  -6905239.07244  -5380682.29244  23934364.1814   23934366.3454
  -5877599.47844  -4579940.87744  24054478.8974   24054482.0204
  -5902904.98544  -4599666.23044  23516743.0274   23516744.9874
 -18240771.96044 -14213578.53144  21558607.0354   21558609.7224
  -3855850.48244  -3004558.11644  24870701.6654   24870705.1104
 -22981743.72344 -17907835.35644  21020261.5124   21020263.9294
 96  4  2  4 23 30.0000000  0  8G 6G26G16G20G22G23G21G17
 -26768967.90944 -20858921.05044  20372962.1654   20372963.5454
 -13614485.00944 -10608682.87344  22321507.1384   22321507.7934
  -6805262.81144  -5302778.71144  23953388.8854   23953390.8454
  -5773632.52744  -4498927.66444  24074263.2874   24074265.5884
  -5933654.77744  -4623627.11744  23510891.2184   23510893.4774
 -18304160.45144 -14262972.14144  21546544.6864   21546547.4444
  -3952816.75744  -3080116.20244  24852249.4144   24852254.0614
 -23010981.85644 -17930618.29544  21014697.6254   21014700.1294
 96  4  2  4 24  0.0000000  0  8G 6G26G16G20G22G23G21G17
 -26741148.54844 -20837243.65344  20378255.9914   20378257.5004
 -13647548.71644 -10634446.78544  22315215.3204   22315216.4154
  -6705193.21744  -5224802.40844  23972431.5984   23972434.7114
  -5669698.75744  -4417940.30444  24094041.2294   24094043.5794
  -5963895.73344  -4647191.51144  23505136.5244   23505139.0884
 -18367177.28944 -14312076.14644  21534552.9274   21534555.6014
  -4049658.03044  -3155576.94244  24833821.0664   24833825.0704
 -23040005.74944 -17953234.30844  21009174.6194   21009176.9384
 96  4  2  4 24 30.0000000  0  8G 6G26G16G20G22G23G21G17
 -26712848.28944 -20815191.52444  20383641.4234   20383642.8944
 -13680101.94944 -10659812.93244  22309020.5654   22309021.3904
  -6605042.60244  -5146762.98944  23991489.5934   23991492.5524
  -5565795.76944  -4336976.92144  24113813.3134   24113816.4014
  -5993631.80544  -4670362.50944  23499477.9924   23499481.1054
 -18429813.52544 -14360883.58244  21522633.6514   21522636.2694
  -4146378.58344  -3230943.53344  24815415.6074   24815420.6504
 -23068828.18344 -17975693.35544  21003689.9014   21003692.2204
 96  4  2  4 25  0.0000000  0  8G 6G26G16G20G22G23G21G17
 -26684053.81544 -20792754.28844  20389120.8524   20389122.3414
 -13712129.99744 -10684769.84544  22302925.6124   22302926.7264
  -6504784.35944  -5068639.69044  24010568.1774   24010570.0514
  -5461893.91044  -4256014.44844  24133584.9384   24133587.6214
  -6022836.92644  -4693119.80044  23493920.6334   23493923.6354
 -18492040.22744 -14409371.90044  21510792.3224   21510795.0204
  -4242945.25044  -3306190.25744  24797039.7744   24797042.9394
 -23097450.92444 -17997996.79044  20998243.0284   20998245.4454
 96  4  2  4 25 30.0000000  0  8G 6G26G16G20G22G23G21G17
 -26654784.96844 -20769947.41044  20394690.4974   20394692.0944
 -13743650.40244 -10709331.19644  22296927.3454   22296927.9264
  -6404435.37144  -4990445.67144  24029664.0124   24029667.0964
  -5358004.05144  -4175061.31144  24153354.5944   24153357.2734
  -6051525.60144  -4715476.24244  23488461.1484   23488463.4074
 -18553862.17944 -14457544.82944  21499027.9944   21499030.7034
  -4339374.29144  -3381329.74744  24778689.9784   24778694.1984
 -23125896.64744 -18020162.29044  20992830.1014   20992832.4484
 96  4  2  4 26  0.0000000  0  8G26G 6G16G20G22G23G21G17
 -13774668.76644 -10733501.34244  22291024.6414   22291025.3914
 -26625045.21844 -20746773.59744  20400349.9004   20400351.4044
  -6303990.14844  -4912176.67344  24048778.0984   24048781.3134
  -5254108.70844  -4094103.90444  24173125.1084   24173128.7494
  -6079717.17244  -4737441.92744  23483096.3524   23483098.1204
 -18615273.66544 -14505397.91544  21487341.7594   21487344.2714
  -4435668.53144  -3456364.19244  24760365.8684   24760369.0434
 -23154176.85344 -18042198.80644  20987448.5074   20987450.9274
 96  4  2  4 26 30.0000000  0  8G 6G26G16G20G22G23G21G17
 -26594833.36644 -20723231.90944  20406098.8244   20406100.2834
 -13805187.45644 -10757282.13844  22285217.2924   22285218.4864
  -6203441.48644  -4833827.06144  24067911.8164   24067912.7154
  -5150200.29544  -4013136.29744  24192898.3344   24192901.4984
  -6107417.15344  -4759026.35644  23477825.2244   23477825.6914
 -18676275.77544 -14552932.00744  21475733.4504   21475736.1994
  -4531818.74544  -3531286.40744  24742069.1594   24742072.5334
 -23182290.93644 -18064105.88044  20982098.5564   20982100.9744
 96  4  2  4 27  0.0000000  0  8G 6G26G16G20G22G23G21G17
 -26564161.06044 -20699331.42044  20411935.7394   20411937.1754
 -13835199.61644 -10780668.22844  22279506.2784   22279507.4204
  -6102792.47244  -4755399.25644  24087064.6344   24087067.0614
  -5046291.50944  -3932168.40344  24212671.4804   24212674.3094
  -6134628.17844  -4780229.78044  23472647.3694   23472649.4014
 -18736876.24544 -14600153.13044  21464201.4174   21464204.1224
  -4627831.04344  -3606101.16944  24723798.7484   24723803.9904
 -23210240.66944 -18085884.89644  20976779.8694   20976782.3194
 96  4  2  4 27 30.0000000  0  8G26G 6G16G20G22G23G21G17
 -13864698.40044 -10803654.28644  22273892.8224   22273894.3844
 -26533024.13444 -20675068.89144  20417860.7904   20417862.3284
  -6002042.78444  -4676893.02044  24106236.7324   24106239.2814
  -4942395.37744  -3851210.38844  24232442.3694   24232445.0444
  -6161348.88644  -4801051.13044  23467562.7364   23467565.6874
 -18797083.54444 -14647067.88844  21452744.3064   21452746.8994
  -4723717.06744  -3680817.53644  24705552.1554   24705555.3104
 -23238016.30444 -18107528.24744  20971494.3844   20971496.7604
 96  4  2  4 28  0.0000000  0  8G 6G26G16G20G22G23G21G17
 -26501421.46244 -20650443.44544  20423874.6864   20423876.1494
 -13893684.68444 -10826240.99144  22268376.9154   22268378.4964
  -5901213.51444  -4598324.76944  24125423.9404   24125426.6234
  -4838544.31944  -3770287.50044  24252204.5554   24252207.2054
  -6187583.69944  -4821493.84844  23462570.2004   23462572.0144
 -18856927.70944 -14693699.68344  21441356.3894   21441358.8614
  -4819480.14844  -3755438.07444  24687329.0954   24687332.4854
 -23265625.57844 -18129041.95244  20966240.5974   20966242.9464
 96  4  2  4 28 30.0000000  0  8G26G 6G16G20G22G23G21G17
 -13922163.06544 -10848431.92744  22262957.5664   22262958.6784
 -26469340.80144 -20625445.54644  20429979.4354   20429981.0094
  -5800320.94044  -4519707.17144  24144623.1864   24144626.3414
  -4734765.46144  -3689420.85144  24271953.0614   24271956.1734
  -6213323.80344  -4841551.08744  23457672.0754   23457675.1544
 -18916422.57344 -14740059.29344  21430034.8784   21430037.4824
  -4915134.79244  -3829974.16044  24669126.5064   24669129.7194
 -23293062.71244 -18150421.52644  20961019.3724   20961021.9084
 96  4  2  4 29  0.0000000  0  8G 6G26G16G20G22G23G21G17
 -26436745.63544 -20600046.72744  20436182.0274   20436183.6544
 -13950119.28344 -10870215.98044  22257637.8204   22257638.9824
  -5699347.36744  -4441026.45544  24163837.7524   24163841.1194
  -4631046.65544  -3608600.99644  24291689.9974   24291692.2464
  -6238537.66544  -4861198.24444  23452873.7254   23452876.0574
 -18975540.59644 -14786125.26244  21418785.0634   21418787.5644
  -5010668.00644  -3904415.60244  24650946.9874   24650949.3164
 -23320294.82944 -18171641.34344  20955837.2914   20955839.6804
 96  4  2  4 29 30.0000000  0  8G 6G26G16G20G22G23G21G17
 -26403638.92944 -20574249.30544  20442482.1334   20442483.6474
 -13977581.49844 -10891615.12044  22252411.9594   22252413.5244
  -5598308.78644  -4362295.10244  24183064.6094   24183065.9104
  -4527410.20544  -3527845.33544  24311411.2114   24311412.8934
  -6263230.66744  -4880439.54144  23448175.1614   23448177.3984
 -19034299.40144 -14831911.32044  21407603.5814   21407606.0714
  -5106086.31544  -3978767.52644  24632789.5954   24632791.1414
 -23347331.21444 -18192708.64344  20950692.4404   20950694.6914
 96  4  2  4 30  0.0000000  0  8G26G 6G16G20G22G23G21G17
 -14004308.31444 -10912441.17144  22247325.9524   22247327.4564
 -26369775.96644 -20547862.58144  20448926.1404   20448927.1644
  -5496961.01444  -4283322.79644  24202350.6584   24202352.4284
  -4423614.05144  -3446965.16644  24331163.0714   24331167.1044
  -6287157.03544  -4899083.44844  23443622.2254   23443624.1384
 -19092446.17944 -14877220.47244  21396538.5474   21396540.5944
  -5201142.34044  -4052837.11344  24614700.8894   24614703.3964
 -23373920.17144 -18213427.29844  20945632.8574   20945634.6234
 96  4  2  4 30 30.0000000  0  8G26G 6G16G20G22G23G21G17
 -14030483.20444 -10932837.15144  22242345.0084   22242346.0324
 -26335348.84044 -20521036.25644  20455477.2974   20455478.3914
  -5395465.48844  -4204235.36744  24221664.5924   24221667.2134
  -4319812.08844  -3366080.53944  24350915.8584   24350919.4524
  -6310487.59044  -4917263.10444  23439182.4614   23439184.3874
 -19150143.86744 -14922179.68944  21385559.0374   21385561.3864
  -5296015.33544  -4126764.10744  24596646.9154   24596648.8264
 -23400240.39244 -18233936.56144  20940624.2324   20940626.2594
 96  4  2  4 31  0.0000000  0  8G 6G26G16G20G22G23G21G17
 -26300837.16644 -20494144.05244  20462044.7604   20462046.1384
 -14056572.83344 -10953166.73144  22237379.9624   22237381.8644
  -5294285.48744  -4125393.81544  24240918.4954   24240922.4694
  -4216466.32444  -3285551.37144  24370582.0974   24370585.2284
  -6333694.24244  -4935346.20944  23434766.3274   23434768.4514
 -19207859.35344 -14967152.77944  21374576.1894   21374578.7444
  -5391164.30944  -4200906.15944  24578540.7054   24578544.1984
 -23426765.85644 -18254605.75644  20935576.5084   20935578.9964
 96  4  2  4 31 30.0000000  0  8G26G 6G16G20G22G23G21G17
 -14082399.39244 -10973291.30844  22232465.5564   22232466.8794
 -26266088.40144 -20467067.10344  20468657.0954   20468658.6994
  -5193255.63644  -4046669.25644  24260143.8464   24260144.9794
  -4113412.86644  -3205249.95044  24390192.3154   24390195.3594
  -6356633.44244  -4953220.89944  23430401.3324   23430403.6134
 -19265437.82244 -15012019.09944  21363619.3754   21363621.8344
  -5486423.03044  -4275133.71444  24560413.6144   24560416.7374
 -23453337.40244 -18275310.85544  20930520.1304   20930522.5584
 96  4  2  4 32  0.0000000  0  7G26G 6G16G20G22G23G17
 -14107439.93244 -10992803.40044  22227700.6644   22227701.5474
 -26230612.59444 -20439423.63344  20475407.8924   20475409.4404
  -5091888.92744  -3967682.20344  24279433.3174   24279435.1704
  -4010142.90044  -3124779.84644  24409843.8104   24409848.1594
  -6378829.57144  -4970516.59344  23426177.4924   23426179.7584
 -19322369.53044 -15056381.44844  21352785.6504   21352788.2344
 -23479459.86344 -18295666.01044  20925549.0904   20925551.5844
 96  4  2  4 32 30.0000000  0  7G26G 6G16G20G22G23G17
 -14131843.07644 -11011818.83644  22223056.9544   22223057.6374
 -26194568.75244 -20411337.54044  20482266.9184   20482268.3884
  -4990364.92244  -3888572.58344  24298752.7604   24298754.5724
  -3906814.63544  -3044264.33844  24429506.4894   24429510.8634
  -6400443.67944  -4987358.75644  23422064.4824   23422066.9114
 -19378813.58744 -15100363.81444  21342044.6634   21342047.2204
 -23505300.44044 -18315801.51344  20920631.8224   20920634.3814
 96  4  2  4 33  0.0000000  0  8G26G 6G16G20G22G23G21G17
 -14155630.25244 -11030354.29944  22218530.4364   22218531.0304
 -26157992.44744 -20382836.54444  20489227.1494   20489228.6274
  -4888739.96144  -3809384.30444  24318091.3684   24318094.0364
  -3803485.78044  -2963748.31344  24449169.2594   24449172.3264
  -6421527.82544  -5003787.97544  23418052.5254   23418055.0354
 -19434801.26544 -15143990.55844  21331390.5154   21331393.0794
        -0.46954        -0.20154  24506376.5484   24506380.3634
 -23530905.14144 -18335753.21344  20915759.4804   20915761.8184
 96  4  2  4 33 30.0000000  0  8G26G 6G16G20G22G23G21G17
 -14178838.91844 -11048438.96344  22214113.5834   22214114.6374
 -26120932.96344 -20353959.05044  20496279.3544   20496280.7704
  -4787074.92844  -3730164.78944  24337437.4804   24337440.6934
  -3700201.17144  -2883266.78344  24468823.8834   24468825.6804
  -6442131.84844  -5019843.05744  23414131.5684   23414133.4444
 -19490376.06644 -15187295.58144  21320814.8974   21320817.3864
    -94314.81644    -73491.88544  24488429.1364   24488432.3164
 -23556327.59044 -18355562.90544  20910921.7684   20910924.1374
 96  4  2  4 34  0.0000000  0  8G26G 6G16G20G22G23G21G17
 -14201508.10644 -11066103.24544  22209799.7924   22209801.6374
 -26083412.29644 -20324722.18944  20503419.4774   20503420.9774
  -4685391.81744  -3650931.23144  24356787.2634   24356789.8954
  -3596983.34044  -2802837.29944  24488465.6994   24488468.5564
  -6462245.12744  -5035515.74144  23410304.0634   23410306.3674
 -19545547.10344 -15230285.98344  21310316.2954   21310318.8904
   -188513.36344   -146893.30444  24470503.6704   24470506.0444
 -23581596.17344 -18375252.70244  20906113.2854   20906115.7424
 96  4  2  4 34 30.0000000  0  7G26G16G20G 6G22G23G17
 -14223632.24244 -11083342.80644  22205589.7514   22205591.5194
  -4583655.66644  -3571656.28144  24376146.9254   24376149.1854
  -3493813.53844  -2722445.23844  24508098.1284   24508100.8134
 -26045401.94644 -20295103.75144  20510652.5814   20510654.0984
  -6481814.24744  -5050764.41444  23406580.0384   23406581.7434
 -19600294.09944 -15272945.95844  21299898.3854   21299900.7494
 -23606688.24444 -18394804.96244  20901338.4074   20901340.8044
 96  4  2  4 35  0.0000000  0  7G26G16G20G 6G22G23G17
 -14245227.02644 -11100169.88444  22201480.5534   22201482.3734
  -4481869.92444  -3492342.71344  24395516.1004   24395517.9264
  -3390707.51544  -2642102.88544  24527718.4484   24527724.2074
 -26006920.50744 -20265118.22944  20517975.1924   20517976.7394
  -6500847.36744  -5065595.42744  23402958.1434   23402960.3904
 -19654634.64444 -15315289.22144  21289557.6464   21289560.0574
 -23631612.65644 -18414226.57944  20896595.4194   20896597.8844
 96  4  2  4 35 30.0000000  0  7G26G 6G16G20G22G23G17
 -14266300.42544 -11116590.69344  22197470.4764   22197471.7544
 -25967962.59544 -20234761.43444  20525388.8014   20525390.2834
  -4380031.78244  -3412988.31244  24414895.2184   24414897.5194
  -3287663.66044  -2561808.93244  24547327.1084   24547329.0214
  -6519323.50444  -5079992.41944  23399442.4274   23399445.2364
 -19708578.69944 -15357323.52744  21279292.3474   21279294.6504
 -23656339.24244 -18433494.03744  20891890.1464   20891892.7074
 96  4  2  4 36  0.0000000  0  8G26G 6G16G20G22G23G21G17
 -14286847.35644 -11132601.27044  22193560.3654   22193561.4054
 -25928524.52944 -20204030.49344  20532893.6394   20532895.1384
  -4278136.03544  -3333589.02044  24434285.3604   24434287.9114
  -3184700.15944  -2481577.63844  24566920.4574   24566923.1854
  -6537251.82244  -5093962.52644  23396030.6584   23396032.6874
 -19762125.57644 -15399048.34444  21269102.6924   21269105.2184
        -1.19154        -0.84454  24399090.2034   24399093.5704
 -23680855.97244 -18452597.97544  20887224.6944   20887227.1894
 96  4  2  4 36 30.0000000  0  8G26G 6G16G20G22G23G21G17
 -14306844.50144 -11148183.44744  22189754.7034   22189755.7574
 -25888602.56144 -20172922.48344  20540490.3444   20540491.9564
  -4176195.78844  -3254155.04244  24453683.7284   24453686.5654
  -3081827.24944  -2401416.92644  24586496.5944   24586498.1664
  -6554661.28544  -5107528.35444  23392717.7924   23392719.4784
 -19815285.58944 -15440471.70944  21258986.7164   21258989.1064
    -93398.04944    -72777.60844  24381317.3664   24381319.9934
 -23705152.58344 -18471530.39244  20882601.2374   20882603.5224
 96  4  2  4 37  0.0000000  0  8G26G 6G16G20G22G23G21G17
 -14326289.85044 -11163335.65644  22186054.3554   22186054.9864
 -25848202.75944 -20141442.13844  20548178.1764   20548179.6674
  -4074223.55844  -3174696.15644  24473088.5084   24473090.1564
  -2979059.71844  -2321338.28544  24606052.6554   24606056.3034
  -6571578.71944  -5120710.78144  23389498.3054   23389500.6184
 -19868065.99144 -15481599.27344  21248942.7814   21248945.0994
   -186627.51844   -145423.92644  24363576.3624   24363580.5954
 -23729230.56744 -18490292.44744  20878019.4564   20878021.6374
